     2              OBSERVATION DATA    GPS                 RINEX VERSION / TYPE
teqc 1999Jul19 19991123 03:13:34UTC                         PGM / RUN BY / DATE
                                                            COMMENT
Original Marker Name: 1009                                  COMMENT
Campaign Name: HPGN 1991                                    COMMENT
4-Character Station Name: 1009                              COMMENT
6-Character Antenna Code: TRMSST                            COMMENT
Vertical Measurement Point: BPA                             COMMENT
Vertical Offset to Rinex Ref. Point: 0.0000                 COMMENT
Radial Measurement Point: RRP                               COMMENT
Radial Offset to Rinex Ref. Point: 0.0000                   COMMENT
Antenna Height from Field Measurement: 2.2200 m             COMMENT
                                                            COMMENT
Original XYZ: -2554984.2866 -4308724.4366 3935849.1888      COMMENT
New XYZ position is based on association with SCEC monument COMMENT
E1F9N9J6+0011. Position of that monument is believed to be  COMMENT
valid to within 1 m horizontally; vertical accuracy         COMMENT
should be no worse than 3-times this value.                 COMMENT
                                                            COMMENT
Revised Rinex header created by UCSD GPS archive for        COMMENT
GSAC on 10-Mar-2000 (2000:070) 17:30:20 GMT                 COMMENT
For assistance contact dagnew@ucsd.edu or hjohnson@ucsd.edu COMMENT
                                                            COMMENT
HPGN CA 10 09                                               MARKER NAME
1009                                                        MARKER NUMBER
-Unknown- CALIF DEPT TRANSPORTATION                         OBSERVER / AGENCY
423 TRIMBLE 4000 SST NP 4.30 / SP 4.20                      REC # / TYPE / VERS
106 TR 4000SST L1/L2 GEO                                    ANT # / TYPE
 -2554986.5958 -4308733.8618  3935849.4272                  APPROX POSITION XYZ
        2.2200        0.0000        0.0000                  ANTENNA: DELTA H/E/N
     1     1     0                                          WAVELENGTH FACT L1/2
     5    C1    L1    L2    S1    S2                        # / TYPES OF OBSERV
     0                                                      INTERVAL
  1991     5    29    17    18   15.000000                  TIME OF FIRST OBS
  1991     5    29    23    28   30.000000                  TIME OF LAST OBS
                                                            END OF HEADER
 91  5 29 17 18 15.0000000  0  4G18G 2G11G19
  20775673.016          -0.77918                        28.750
  24408624.969          -0.93515                         9.500
  24426707.820          -0.73115                        10.500
  20833123.617          -0.69417                        23.000
 91  5 29 17 18 30.0000000  0  4G18G 2G11G19
  20772604.016      -16126.367 8        -0.27633        28.750           2.750
  24392386.945      -85379.050 5        -0.31031        10.500           0.406
  24412763.430      -73298.595 5                        10.750
  20825814.789      -38398.186 7                        23.750
 91  5 29 17 18 45.0000000  0  4G18G 2G11G19
  20769551.633      -32172.580 8    -12503.83423        28.750           2.750
  24376142.750     -170754.370 5    -66526.42921        10.500           0.438
  24398823.594     -146555.216 5        -0.19431        11.750           0.406
  20818515.313      -76768.810 7        -0.06332        22.250           1.813
 91  5 29 17 19  0.0000000  0  4G18G 2G11G19
  20766515.719      -48126.412 8    -24935.40123        28.750           2.719
  24359892.133     -256113.771 5   -133040.10721        10.250           0.406
  24384893.258     -219757.297 5    -57040.68021        11.750           0.625
  20811216.898     -115099.563 7    -29868.17422        23.750           1.781
 91  5 29 17 19 15.0000000  0  4G18G 2G11G19
  20763496.234      -63983.269 8    -37291.40523        28.250           2.656
  24343652.547     -341452.073 5   -199537.34421        10.250           0.438
  24370973.352     -292899.608 6   -114034.61021        12.500           0.469
  20803936.594     -153385.732 7    -59701.54422        22.750           1.875
 91  5 29 17 19 30.0000000  0  4G18G 2G11G19
  20760498.305      -79741.016 8    -49570.18223        28.500           2.750
  24327413.992     -426766.916 5   -266016.34721        10.250           0.500
  24357069.563     -365979.534 6   -170979.92521        12.750           0.531
  20796657.844     -191624.978 7    -89498.35522        22.250           1.844
 91  5 29 17 19 45.0000000  0  4G18G 2G11G19
  20757520.711      -95395.362 8    -61768.38523        28.750           2.656
  24311186.734     -512053.958 5   -332473.64921        10.250           0.438
  24343172.531     -438992.363 6   -227872.94621        12.500           0.500
  20789392.836     -229813.138 7   -119255.35622        22.500           1.906
 91  5 29 17 20  0.0000000  0  4G18G 2G11G19
  20754562.141     -110939.650 8    -73880.82923        28.750           2.656
  24294971.711     -597306.325 5   -398903.92821        10.750           0.531
  24329293.586     -511930.917 6   -284708.10621        12.500           0.563
  20782133.789     -267943.621 7   -148967.41722        23.000           1.938
 91  5 29 17 20 15.0000000  0  4G18G 2G11G19
  20751626.805     -126375.326 8    -85908.64023        29.000           2.719
  24278752.383     -682525.393 5   -465308.25121        10.750           0.406
  24315428.703     -584796.427 6   -341486.34221        12.750           0.531
  20774891.422     -306017.883 7   -178635.67122        22.250           1.813
 91  5 29 17 20 30.0000000  0  4G18G 2G11G19
  20748709.828     -141700.221 8    -97850.13023        29.250           2.656
  24262544.492     -767708.730 5   -531684.76621        10.750           0.531
  24301576.617     -657586.339 6   -398205.66221        12.250           0.563
  20767655.922     -344033.898 7   -208258.53722        22.000           1.719
 91  5 29 17 20 45.0000000  0  4G18G 2G11G19
  20745813.586     -156913.866 8   -109704.93523        28.750           2.688
  24246337.664     -852855.223 5   -598032.53221        10.250           0.344
  24287738.961     -730299.321 6   -454865.04521        12.250           0.563
  20760434.258     -381990.871 7   -237835.39422        22.250           1.875
 91  5 29 17 21  0.0000000  0  4G18G 2G11G19
  20742940.523     -172018.504 8   -121474.79623        28.750           2.656
  24230142.250     -937967.020 5   -664353.31621        10.500           0.500
  24273916.250     -802937.461 6   -511466.10021        13.000           0.438
  20753218.094     -419891.316 7   -267368.20922        22.750           1.813
 91  5 29 17 21 15.0000000  0  4G18G 2G11G19
  20740087.531     -187013.541 8   -133159.25923        29.000           2.688
  24213952.984    -1023043.526 5   -730646.57621         9.750           0.469
  24260109.469     -875499.912 6   -568008.20021        12.750           0.656
  20746020.523     -457734.725 7   -296856.57622        22.500           1.875
 91  5 29 17 21 30.0000000  0  4G18G 2G11G19
  20737254.055     -201898.611 8   -144758.02923        29.250           2.688
  24197767.633    -1108084.106 5   -796911.81321        10.250           0.375
  24246312.766     -947985.693 5   -624490.55021        11.750           0.531
  20738830.914     -495520.596 7   -326300.11222        22.000           1.719
 91  5 29 17 21 45.0000000  0  4G18G 2G11G19
  20734443.055     -216671.816 8   -156269.63423        29.000           2.688
  24181591.617    -1193086.601 5   -863147.40521        10.250           0.344
  24232535.133    -1020392.390 6   -680911.26321        12.000           0.656
  20731649.203     -533246.825 7   -355697.17222        21.500           1.781
 91  5 29 17 22  0.0000000  0  4G18G 2G11G19
  20731652.688     -231333.614 8   -167694.42223        29.000           2.781
  24165425.508    -1278051.083 5   -929353.39821         9.500           0.375
  24218771.953    -1092719.914 6   -737270.29421        13.000           0.500
  20724480.742     -570913.896 7   -385048.13022        22.750           1.844
 91  5 29 17 22 15.0000000  0  4G18G 2G11G19
  20728885.156     -245884.110 8   -179032.48923        29.250           2.625
  24149263.836    -1362977.821 5   -995529.92221        10.000           0.375
  24205022.086    -1164968.126 6   -793567.52621        13.500           0.625
  20717327.281     -608522.177 7   -414353.28822        22.000           1.688
 91  5 29 17 22 30.0000000  0  4G18G 2G11G19
  20726137.648     -260323.936 8   -190284.31123        29.500           2.688
  24133104.789    -1447867.058 5  -1061677.28821         9.000           0.375
  24191292.031    -1237137.297 6   -849803.17221        14.500           0.500
  20710178.359     -646072.267 7   -443613.09422        21.500           1.813
 91  5 29 17 22 45.0000000  0  5G18G 2G11G19G16
  20723408.930     -274656.531 8   -201452.58123        29.000           2.625
  24116965.094    -1532721.750 5  -1127797.70721        10.000           0.375
  24177569.320    -1309230.321 6   -905979.48921        13.250           0.500
  20703046.492     -683567.658 7   -472830.28322        21.750           1.688
  24319542.484      -68831.344 4                         7.250
 91  5 29 17 23  0.0000000  0  5G18G 2G11G19G16
  20720702.297     -288877.483 8   -212533.85523        28.500           2.656
  24100823.852    -1617537.229 5  -1193887.54321        10.250           0.469
  24163870.336    -1381242.321 6   -962092.70221        13.750           0.375
  20695918.891     -721003.717 7   -502001.23722        21.750           1.688
  24306464.336     -137552.604 5        -0.12131         8.250           0.281
 91  5 29 17 23 15.0000000  0  5G18G 2G11G19G16
  20718018.227     -302988.957 8   -223529.82623        29.250           2.719
  24084681.523    -1702315.853 5  -1259948.70021        10.000           0.406
  24150178.586    -1453175.088 6  -1018144.11921        13.000           0.375
  20688809.648     -758382.770 7   -531127.76422        21.750           1.781
  24293414.719     -206166.193 5    -53465.23421         8.250           0.375
 91  5 29 17 23 30.0000000  0  5G18G 2G11G19G16
  20715353.477     -316985.436 8   -234436.18723        28.500           2.594
  24068567.750    -1787051.635 5  -1325976.46221        11.000           0.500
  24136509.563    -1525022.563 6  -1074129.11921        13.000           0.531
  20681709.031     -795699.317 7   -560205.59922        21.500           1.813
  24280376.117     -274666.279 5   -106841.90121         8.000           0.281
 91  5 29 17 23 45.0000000  0  5G18G 2G11G19G16
  20712710.414     -330872.185 8   -245257.04523        28.500           2.625
  24052446.375    -1871749.647 5  -1391974.79521        10.500           0.531
  24122850.891    -1596789.741 6  -1130051.51721        12.750           0.531
  20674618.867     -832958.634 7   -589238.82722        22.000           1.781
  24267360.789     -343057.916 5   -160134.07921         8.000           0.281
 91  5 29 17 24  0.0000000  0  5G18G 2G11G19G16
  20710090.180     -344646.625 8   -255990.39123        28.250           2.656
  24036340.859    -1956407.038 5  -1457941.47421        11.500           0.469
  24109210.648    -1668473.467 6  -1185908.91321        12.750           0.531
  20667539.367     -870157.995 7   -618225.34322        21.500           1.844
  24254375.039     -411338.316 5                         9.250
 91  5 29 17 24 15.0000000  0  5G18G 2G11G19G16
  20707489.156     -358309.872 8   -266637.09523        28.250           2.656
  24020240.844    -2041024.555 5  -1523877.10421        11.750           0.500
  24095581.578    -1740074.394 6  -1241701.75721        12.750           0.531
  20660470.000     -907298.549 7   -647166.03622        21.500           1.750
  24241394.313     -479508.020 5                         8.000
 91  5 29 17 24 30.0000000  0  5G18G 2G11G19G16
  20704910.883     -371862.877 7   -277197.89223        27.750           2.688
  24004138.109    -2125602.815 5  -1589782.11421        11.750           0.531
  24081975.453    -1811592.887 6  -1297430.37121        13.000           0.531
  20653413.375     -944380.948 7   -676061.40922        22.750           1.781
  24228443.117     -547567.548 4        -0.15331         7.000           0.281
 91  5 29 17 24 45.0000000  0  5G18G 2G11G19G16
  20702354.531     -385304.843 8   -287672.16723        28.500           2.594
  23988057.922    -2210140.895 6  -1655655.84221        12.000           0.500
  24068382.383    -1883027.925 6  -1353093.97021        13.500           0.406
  20646370.938     -981404.603 7   -704911.01622        21.500           1.781
  24215519.422     -615515.974 4    -52946.90921         7.250           0.281
 91  5 29 17 25  0.0000000  0  5G18G 2G11G19G16
  20699814.289     -398633.716 7   -298058.31923        27.750           2.656
  23971973.258    -2294636.692 5  -1721496.61021        11.250           0.563
  24054801.344    -1954377.078 6  -1408690.64921        13.750           0.438
  20639330.875    -1018367.608 7   -733713.35622        22.000           1.875
  24202611.344     -683350.845 5   -105805.25321         7.500           0.344
 91  5 29 17 25 15.0000000  0  5G18G 2G11G19G16
  20697302.516     -411851.607 8   -308357.99223        28.000           2.656
  23955902.227    -2379092.186 5  -1787305.97121        11.750           0.625
  24041244.289    -2025642.156 6  -1464221.82621        14.000           0.531
  20632312.273    -1055272.034 7   -762470.04822        21.500           1.781
  24189716.914     -751074.313 5   -158576.74121         7.500           0.281
 91  5 29 17 25 30.0000000  0  5G18G 2G11G19G16
  20694807.258     -424957.651 7   -318570.50823        27.500           2.531
  23939843.305    -2463505.860 5  -1853082.76421        11.500           0.531
  24027700.602    -2096821.333 6  -1519686.04521        14.250           0.531
  20625300.430    -1092116.822 7   -791180.27822        22.750           1.719
  24176854.336     -818685.009 5   -211260.36521         7.750           0.344
 91  5 29 17 25 45.0000000  0  5G18G 2G11G19G16
  20692336.102     -437949.664 8   -328694.17123        28.000           2.656
  23923787.078    -2547875.386 6  -1918825.15221        12.000           0.594
  24014171.711    -2167912.196 6  -1575081.46221        14.500           0.438
  20618299.805    -1128899.861 7   -819842.38722        21.000           1.656
  24164013.891     -886180.355 5   -263854.12021         8.000           0.188
 91  5 29 17 26  0.0000000  0  5G18G 2G11G19G16
  20689884.875     -450831.598 8   -338732.05823        28.000           2.625
  23907733.555    -2632204.588 5  -1984536.09621        11.500           0.656
  24000659.148    -2238918.293 6  -1630410.83121        14.500           0.531
  20611311.227    -1165625.097 7   -848459.44922        22.000           1.906
  24151185.820     -953563.991 5   -316360.84321         8.000           0.250
 91  5 29 17 26 15.0000000  0  5G18G 2G11G19G16
  20687451.961     -463602.282 7   -348683.26223        27.250           2.594
  23891699.891    -2716491.994 6  -2050214.51421        12.000           0.563
  23987160.055    -2309837.992 6  -1685672.87521        12.750           0.438
  20604337.352    -1202291.291 7   -877030.50922        22.250           1.781
  24138386.898    -1020834.441 5   -368779.34821         8.000           0.313
 91  5 29 17 26 30.0000000  0  5G18G 2G11G19G16
  20685046.469     -476257.867 7   -358544.77723        27.750           2.594
  23875667.469    -2800733.661 6  -2115857.26721        12.000           0.563
  23973683.609    -2380667.077 6  -1740864.30921        12.500           0.375
  20597368.797    -1238894.519 7   -905552.50822        22.250           1.875
  24125605.219    -1087987.744 5   -421106.55121         8.250           0.313
 91  5 29 17 26 45.0000000  0  5G18G 2G11G19G16
  20682658.828     -488802.276 7   -368319.65723        27.250           2.625
  23859651.344    -2884933.129 6  -2181467.14921        12.250           0.563
  23960221.109    -2451409.089 6  -1795987.90921        13.250           0.375
  20590416.836    -1275438.707 7   -934028.49722        21.250           1.750
  24112850.203    -1155027.436 5   -473345.25621         9.000           0.313
 91  5 29 17 27  0.0000000  0  5G18G 2G11G19G16
  20680291.680     -501236.415 7   -378008.61123        26.750           2.594
  23843633.703    -2969091.221 6  -2247044.77321        12.000           0.531
  23946777.906    -2522064.401 6  -1851043.94521        13.750           0.344
  20583473.023    -1311924.921 7   -962459.31022        22.250           1.688
  24100115.961    -1221954.135 5   -525495.91221         9.250           0.281
 91  5 29 17 27 15.0000000  0  5G18G 2G11G19G16
  20677947.758     -513554.055 7   -387606.79223        27.250           2.531
  23827624.367    -3053201.229 5  -2312584.94321        11.500           0.656
  23933349.805    -2592626.247 6  -1906027.15021        13.500           0.563
  20576544.656    -1348346.790 7   -990839.98722        21.750           1.750
  24087406.398    -1288761.225 5   -577553.34921         9.250           0.188
 91  5 29 17 27 30.0000000  0  5G18G 2G11G19G16
  20675627.719     -525758.785 7   -397116.99423        27.500           2.625
  23811629.773    -3137266.224 5  -2378090.04021        11.500           0.625
  23919941.813    -2663097.579 6  -1960939.81621        14.000           0.500
  20569619.734    -1384707.648 7  -1019173.12622        22.000           1.719
  24074713.078    -1355451.896 5   -629520.09121         9.000           0.219
 91  5 29 17 27 45.0000000  0  5G18G 2G11G19G16
  20673326.734     -537843.950 7   -406534.02223        27.000           2.625
  23795641.680    -3221279.809 6  -2443555.06321        12.250           0.469
  23906546.047    -2733471.637 6  -2015776.68921        12.750           0.563
  20562717.578    -1421001.234 7  -1047453.84322        21.500           1.844
  24062042.250    -1422019.565 5   -681390.99221         9.500           0.250
 91  5 29 17 28  0.0000000  0  5G18G 2G11G19G16
  20671047.984     -549812.164 7   -415859.92823        27.000           2.563
  23779665.883    -3305244.255 5  -2508981.80821        11.750           0.563
  23893167.758    -2803750.542 6  -2070539.40121        12.250           0.438
  20555821.508    -1457230.032 7  -1075684.07622        22.500           1.719
  24049403.484    -1488466.122 5   -733167.52821         9.750           0.313
 91  5 29 17 28 15.0000000  0  5G18G 2G11G19G16
  20668792.828     -561667.434 7   -425097.81723        27.000           2.594
  23763691.813    -3389163.094 5  -2574373.02521        11.250           0.625
  23879820.266    -2873937.661 6  -2125230.62521        13.500           0.563
  20548941.258    -1493397.743 7  -1103866.70222        21.500           1.750
  24036776.703    -1554795.565 5   -784852.77321         9.000           0.344
 91  5 29 17 28 30.0000000  0  5G18G 2G11G19G16
  20666557.320     -573413.222 7   -434250.39823        27.000           2.656
  23747733.172    -3473039.927 5  -2639731.49221        11.500           0.563
  23866474.914    -2944036.276 6  -2179852.83821        12.500           0.594
  20542068.672    -1529507.955 7  -1132004.53522        21.750           1.719
  24024176.383    -1621010.990 5   -836449.19221         9.250           0.281
 91  5 29 17 28 45.0000000  0  5G18G 2G11G19G16
  20664346.547     -585049.968 7   -443318.00923        27.250           2.594
  23731777.531    -3556875.099 5  -2705057.51621        11.000           0.500
  23853157.383    -3014046.583 6  -2234406.28421        13.500           0.438
  20535209.367    -1565561.334 7  -1160098.07522        21.750           1.656
  24011600.516    -1687112.849 5   -887957.10221         8.750           0.281
 91  5 29 17 28 59.9990000  0  5G18G 2G11G19G16
  20662149.183     -596572.704 7   -452296.78523        26.250           2.531
  23715834.737    -3640658.040 5  -2770342.82621        11.750           0.500
  23839851.222    -3083958.786 6  -2288883.28921        13.500           0.500
  20528357.472    -1601550.926 7  -1188141.92022        22.000           1.719
  23999043.120    -1753091.947 5   -939369.35321         9.250           0.219
 91  5 29 17 29 14.9990000  0  5G18G 2G11G19G16
  20659978.792     -607982.914 7   -461187.87923        26.500           2.594
  23699897.050    -3724399.762 5  -2835596.03521        11.500           0.594
  23826563.628    -3153781.840 6  -2343290.81821        13.000           0.500
  20521522.792    -1637481.507 7  -1216139.77222        21.750           1.719
  23986509.503    -1818956.572 5   -990692.44821         9.500           0.281
 91  5 29 17 29 29.9990000  0  5G18G 2G11G19G16
  20657830.167     -619281.305 7   -469991.84123        26.500           2.656
  23683972.011    -3808095.948 5  -2900813.76421        11.750           0.438
  23813297.401    -3223512.202 6  -2397626.13121        13.000           0.438
  20514696.433    -1673352.199 7  -1244090.96422        21.750           1.781
  23973999.300    -1884703.500 5  -1041923.79421         9.750           0.188
 91  5 29 17 29 44.9990000  0  5G18G 2G11G19G16
  20655702.901     -630467.396 7   -478708.30023        27.000           2.563
  23668048.581    -3891745.729 5  -2965995.33421        11.250           0.531
  23800045.776    -3293148.828 6  -2451888.37921        12.750           0.531
  20507883.159    -1709162.279 7  -1271994.92122        21.250           1.781
  23961506.855    -1950332.120 5  -1093062.96321         9.500           0.219
 91  5 29 17 29 59.9990000  0  5G18G 2G11G19G16
  20653593.526     -641540.368 7   -487336.60823        26.000           2.563
  23652146.605    -3975348.169 6  -3031139.98221        12.250           0.469
  23786809.089    -3362690.500 6  -2506076.65121        12.750           0.531
  20501077.589    -1744911.075 7  -1299851.13722        22.500           1.656
  23949047.933    -2015841.273 5  -1144109.04921        10.000           0.281
 91  5 29 17 30 14.9990000  0  5G18G 2G11G19G16
  20651506.292     -652503.550 7   -495879.36523        26.000           2.750
  23636243.831    -4058906.092 5  -3096249.99321        11.750           0.375
  23773592.276    -3432139.838 6  -2560192.96021        13.250           0.594
  20494288.034    -1780601.641 7  -1327661.95922        21.500           1.750
  23936600.370    -2081233.954 5  -1195064.36521        10.250           0.281
 91  5 29 17 30 29.9990000  0  5G18G 2G11G19G16
  20649442.769     -663355.511 7   -504335.46123        26.500           2.531
  23620352.347    -4142418.089 6  -3161324.18021        12.250           0.625
  23760394.605    -3501495.186 6  -2614236.03821        13.250           0.531
  20487506.659    -1816232.660 7  -1355426.39422        22.750           1.750
  23924176.175    -2146508.427 5  -1245927.59921         9.500           0.281
 91  5 29 17 30 44.9990000  0  5G18G 2G11G19G16
  20647400.605     -674092.468 7   -512701.94423        26.750           2.594
  23604471.870    -4225880.378 6  -3226359.64521        12.250           0.688
  23747217.276    -3570752.524 6  -2668202.74021        13.000           0.563
  20480737.909    -1851800.523 7  -1383141.61822        21.500           1.719
  23911781.612    -2211660.826 5  -1296695.67221        10.000           0.250
 91  5 29 17 30 59.9990000  0  5G18G 2G11G19G16
  20645377.448     -684717.612 7   -520981.29423        26.750           2.625
  23588598.136    -4309295.383 6  -3291358.25521        12.000           0.531
  23734055.167    -3639914.408 6  -2722095.05721        13.500           0.438
  20473979.183    -1887308.276 7  -1410809.99522        22.250           1.625
  23899404.839    -2276693.596 5  -1347370.57421        10.000           0.281
 91  5 29 17 31 14.9990000  0  5G18G 2G11G19G16
  20643374.730     -695232.961 7   -529175.10423        26.250           2.594
  23572734.909    -4392665.240 6  -3356321.70521        12.750           0.563
  23720911.394    -3708982.552 6  -2775914.34621        13.750           0.500
  20467238.183    -1922757.976 7  -1438433.14122        22.000           1.594
  23887052.987    -2341608.951 5  -1397953.96821        10.250           0.344
 91  5 29 17 31 29.9990000  0  5G18G 2G11G19G16
  20641397.245     -705635.515 7   -537281.01023        26.250           2.594
  23556873.620    -4475986.796 5  -3421247.50721        11.500           0.688
  23707788.026    -3777953.359 6  -2829657.78321        14.500           0.531
  20460499.339    -1958146.411 7  -1466008.54822        23.000           1.750
  23874725.089    -2406403.392 5  -1448443.13221        10.000           0.344
 91  5 29 17 31 44.9990000  0  5G18G 2G11G19G16
  20639438.542     -715925.839 7   -545299.46123        26.250           2.625
  23541031.925    -4559260.169 6  -3486135.75921        12.750           0.594
  23694683.956    -3846826.983 6  -2883325.51021        14.500           0.469
  20453777.198    -1993474.265 7  -1493536.74922        21.000           1.656
  23862420.401    -2471077.265 5  -1498838.35421         9.500           0.219
 91  5 29 17 31 59.9990000  0  5G18G 2G11G19G16
  20637502.464     -726104.649 7   -553231.02323        26.750           2.688
  23525194.800    -4642485.671 6  -3550986.72921        12.500           0.625
  23681595.120    -3915603.504 6  -2936917.56121        14.000           0.625
  20447068.433    -2028741.952 7  -1521018.06422        21.500           1.719
  23850136.112    -2535630.827 5  -1549139.81621         9.250           0.219
 91  5 29 17 32 14.9990000  0  5G18G 2G11G19G16
  20635586.628     -736171.491 7   -561075.33723        27.250           2.594
  23509360.690    -4725662.735 6  -3615799.91521        12.000           0.625
  23668526.722    -3984282.219 6  -2990433.40021        14.000           0.469
  20440367.300    -2063949.160 7  -1548452.25222        21.250           1.688
  23837867.776    -2600063.650 5  -1599347.18121         9.750           0.250
 91  5 29 17 32 29.9990000  0  5G18G 2G11G19G16
  20633691.800     -746129.157 7   -568834.58123        27.000           2.594
  23493548.565    -4808793.703 6  -3680577.22821        12.500           0.719
  23655476.464    -4052865.343 6  -3043874.74921        14.000           0.594
  20433678.245    -2099098.574 7  -1575841.41422        22.250           1.656
  23825628.800    -2664377.985 5  -1649462.23621         9.750           0.344
 91  5 29 17 32 44.9990000  0  5G18G 2G11G19G16
  20631818.464     -755976.808 7   -576508.09623        27.250           2.594
  23477733.339    -4891877.591 6  -3745317.81921        12.250           0.688
  23642442.003    -4121351.548 6  -3097240.57721        13.750           0.531
  20427001.065    -2134189.168 7  -1603184.73122        21.250           1.688
  23813418.245    -2728572.197 5  -1699483.65521        10.250           0.250
 91  5 29 17 32 59.9990000  0  5G18G 2G11G19G16
  20629964.542     -765711.066 7   -584093.25523        26.500           2.750
  23461932.737    -4974910.627 6  -3810018.78521        13.250           0.594
  23629431.730    -4189736.957 6  -3150527.86021        14.500           0.563
  20420336.675    -2169217.618 7  -1630479.62722        21.250           1.656
  23801226.331    -2792642.914 5  -1749408.90621        10.000           0.281
 91  5 29 17 33 14.9990000  0  5G18G 2G11G19G16
  20628135.440     -775332.121 7   -591590.19823        27.250           2.688
  23446143.065    -5057892.768 6  -3874680.14221        12.500           0.625
  23616433.925    -4258021.347 6  -3203736.42821        14.000           0.781
  20413682.448    -2204184.055 7  -1657726.20522        21.500           1.688
  23789053.980    -2856590.354 5  -1799238.08321        10.000           0.281
 91  5 29 17 33 29.9990000  0  5G18G 2G11G19G16
  20626323.722     -784843.586 7   -599001.75723        26.750           2.625
  23430363.667    -5140827.268 6  -3939304.32521        13.250           0.750
  23603458.401    -4326207.757 6  -3256868.64021        14.250           0.563
  20407037.659    -2239091.826 7  -1684927.06722        21.750           1.719
  23776906.128    -2920417.684 5  -1848973.62721         9.750           0.219
 91  5 29 17 33 44.9990000  0  5G18G 2G11G19G16
  20624536.565     -794243.302 7   -606326.23223        26.750           2.656
  23414587.737    -5223712.219 6  -4003889.92221        13.250           0.625
  23590504.026    -4394293.929 6  -3309922.75121        15.250           0.625
  20400410.214    -2273939.123 7  -1712080.80222        21.500           1.656
  23764787.261    -2984122.581 5  -1898613.80021        10.250           0.281
 91  5 29 17 33 59.9990000  0  5G18G 2G11G19G16
  20622769.245     -803530.657 7   -613563.15423        27.000           2.594
  23398826.495    -5306546.576 6  -4068436.09221        13.250           0.656
  23577568.987    -4462278.797 6  -3362897.93621        15.500           0.625
  20393789.636    -2308725.211 7  -1739186.84622        21.000           1.750
  23752688.581    -3047704.224 5  -1948157.92721         9.500           0.313
 91  5 29 17 34 14.9990000  0  5G18G 2G11G19G16
  20621021.558     -812708.623 7   -620714.84023        26.500           2.656
  23383077.112    -5389332.901 6  -4132944.85421        13.750           0.688
  23564647.558    -4530164.764 6  -3415796.04121        16.000           0.688
  20387180.237    -2343452.882 7  -1766247.37122        21.500           1.750
  23740612.112    -3111165.035 5  -1997607.90521         9.250           0.281
 91  5 29 17 34 29.9990000  0  5G18G 2G11G19G16
  20619298.698     -821772.845 7   -627777.88823        27.250           2.563
  23367325.261    -5472066.827 6  -4197412.75821        12.500           0.563
  23551749.050    -4597947.051 6  -3468613.37021        15.500           0.563
  20380581.112    -2378117.853 7  -1793259.03722        21.750           1.688
  23728559.464    -3174500.438 5  -2046960.17521         9.000           0.156
 91  5 29 17 34 44.9990000  0  5G18G 2G11G19G16
  20617592.956     -830725.314 7   -634753.86923        26.500           2.719
  23351592.722    -5554749.755 6  -4261840.93421        13.000           0.656
  23538868.292    -4665627.119 6  -3521351.03621        15.500           0.594
  20373998.878    -2412722.028 7  -1820223.32922        21.750           1.750
  23716529.605    -3237712.035 5  -2096215.93621         9.750           0.344
 91  5 29 17 34 59.9990000  0  5G18G 2G11G19G16
  20615911.855     -839568.209 7   -641644.45923        26.750           2.656
  23335868.862    -5637383.702 6  -4326230.94421        12.750           0.750
  23526010.495    -4733206.628 6  -3574010.34421        15.250           0.531
  20367425.331    -2447267.443 7  -1847141.83622        22.000           1.750
  23704525.011    -3300801.550 5  -2145376.60821         9.500           0.281
 91  5 29 17 35 14.9990000  0  5G18G 2G11G19G16
  20614248.159     -848301.160 7   -648449.36923        26.250           2.531
  23320154.503    -5719968.039 6  -4390582.27721        13.500           0.750
  23513168.417    -4800684.940 6  -3626590.79621        15.250           0.625
  20360863.378    -2481753.668 7  -1874014.21822        21.500           1.813
  23692545.042    -3363768.492 5  -2194441.73321        10.500           0.438
 91  5 29 17 35 29.9990000  0  5G18G 2G11G19G16
  20612607.511     -856924.891 7   -655169.18823        26.500           2.563
  23304449.573    -5802503.128 6  -4454895.27621        13.250           0.781
  23500347.698    -4868062.150 6  -3679092.47921        15.750           0.625
  20354309.003    -2516181.216 7  -1900840.87622        21.500           1.719
  23680583.417    -3426613.330 5  -2243411.71121        10.250           0.281
 91  5 29 17 35 44.9990000  0  5G18G 2G11G19G16
  20610988.730     -865439.705 7   -661804.13223        26.750           2.563
  23288749.214    -5884989.139 6  -4519170.00921        13.000           0.813
  23487544.144    -4935338.080 6  -3731515.23121        15.250           0.625
  20347770.683    -2550550.476 7  -1927622.11722        21.250           1.750
  23668644.331    -3489335.946 5  -2292286.48521        10.250           0.250
 91  5 29 17 35 59.9990000  0  5G18G 2G11G19G16
  20609388.472     -873843.452 7   -668352.53523        26.250           2.594
  23273064.269    -5967423.249 6  -4583404.29221        13.250           0.719
  23474763.472    -5002509.921 6  -3783856.86421        15.750           0.656
  20341244.948    -2584859.135 7  -1954356.13822        21.250           1.688
  23656730.292    -3551933.530 5  -2341063.81121        10.250           0.313
 91  5 29 17 36 14.9990000  0  5G18G 2G11G19G16
  20607810.909     -882137.310 7   -674815.30223        26.750           2.688
  23257385.105    -6049806.959 6  -4647599.33421        13.250           0.750
  23462000.300    -5069578.798 6  -3836118.28021        15.750           0.656
  20334726.886    -2619108.658 7  -1981044.08122        21.250           1.719
  23644847.956    -3614407.745 5  -2389745.00521        10.000           0.281
 91  5 29 17 36 29.9990000  0  5G18G 2G11G19G16
  20606253.245     -890318.584 7   -681190.34823        26.500           2.531
  23241722.128    -6132137.160 6  -4711752.66121        13.750           0.813
  23449255.214    -5136541.595 6  -3888297.03121        15.750           0.563
  20328219.144    -2653296.071 7  -2007683.61822        21.000           1.875
  23632987.112    -3676755.624 5  -2438327.76021        10.500           0.375
 91  5 29 17 36 44.9990000  0  5G18G 2G11G19G16
  20604716.995     -898390.023 7   -687479.80023        26.500           2.656
  23226062.331    -6214416.528 6  -4775866.38721        13.250           0.688
  23436532.980    -5203400.660 6  -3940394.94221        15.750           0.625
  20321724.901    -2687424.119 7  -2034276.90522        21.250           1.781
  23621142.120    -3738979.461 5  -2486813.84921         9.750           0.313
 91  5 29 17 36 59.9990000  0  5G18G 2G11G19G16
  20603203.448     -906353.217 7   -693684.91023        26.750           2.625
  23210419.511    -6296646.283 6  -4839941.46721        14.250           0.813
  23423829.331    -5270156.975 6  -3992412.81121        15.250           0.500
  20315238.300    -2721494.307 7  -2060825.10122        21.500           1.656
  23609322.815    -3801080.461 5  -2535204.20721         9.250           0.219
 91  5 29 17 37 14.9990000  0  5G18G 2G11G19G16
  20601709.409     -914205.302 7   -699803.44222        26.500           2.469
  23194778.964    -6378823.101 6  -4903975.28221        14.000           0.781
  23411148.636    -5336807.105 6  -4044347.92021        16.000           0.656
  20308768.855    -2755503.671 7  -2087325.90322        20.750           1.656
  23597530.753    -3863055.355 5  -2583496.33221         8.750           0.188
 91  5 29 17 37 29.9990000  0  5G18G 2G11G19G16
  20600233.839     -921947.507 7   -705836.34723        26.500           2.594
  23179151.065    -6460947.751 6  -4967968.44121        14.000           0.594
  23398485.909    -5403351.779 6  -4096200.85721        16.000           0.656
  20302306.917    -2789453.048 7  -2113779.96822        21.500           1.656
  23585759.933    -3924904.879 5  -2631690.74821         9.000           0.250
 91  5 29 17 37 44.9990000  0  5G18G 2G11G19G16
  20598782.815     -929580.386 7   -711784.07123        26.500           2.781
  23163534.386    -6543020.807 6  -5031921.43621        14.250           0.656
  23385842.519    -5469791.320 6  -4147971.87621        16.000           0.625
  20295862.175    -2823343.284 7  -2140187.94622        21.000           1.750
  23574018.800    -3986629.370 5  -2679787.72821         9.500           0.281
 91  5 29 17 37 59.9990000  0  5G18G 2G11G19G16
  20597349.409     -937107.130 7   -717649.09523        26.750           2.594
  23147924.167    -6625045.189 6  -5095836.46121        14.750           0.844
  23373218.706    -5536128.299 6  -4199662.99021        15.500           0.656
  20289421.190    -2857177.448 7  -2166552.22822        21.500           1.719
  23562293.995    -4048231.628 5  -2727789.49621         9.500           0.250
 91  5 29 17 38 14.9990000  0  5G18G 2G11G19G16
  20595940.355     -944523.068 7   -723427.77223        27.000           2.625
  23132326.417    -6707015.762 6  -5159709.57921        15.000           0.781
  23360614.894    -5602357.474 6  -4251270.07921        15.500           0.625
  20282995.425    -2890950.686 7  -2192869.03922        20.250           1.781
  23550594.409    -4109706.868 5  -2775692.29121         9.000           0.188
 91  5 29 17 38 29.9990000  0  5G18G 2G11G19G16
  20594548.448     -951825.220 7   -729117.78623        26.500           2.625
  23116736.034    -6788929.560 6  -5223538.46421        14.500           0.656
  23348033.050    -5668475.737 6  -4302790.75721        15.000           0.594
  20276577.253    -2924660.151 7  -2219136.15522        21.250           1.719
  23538923.425    -4171051.984 5  -2823493.63821         9.750           0.406
 91  5 29 17 38 44.9990000  0  5G18G 2G11G19G16
  20593181.995     -959015.556 7   -734720.67123        27.000           2.563
  23101160.855    -6870788.220 6  -5287324.37621        14.750           0.719
  23335472.128    -5734484.447 6  -4354226.05321        14.500           0.688
  20270176.987    -2958307.805 7  -2245355.10422        20.750           1.719
  23527269.612    -4232268.505 5  -2871194.80821         9.500           0.438
 91  5 29 17 38 59.9990000  0  5G18G 2G11G19G16
  20591833.448     -966098.195 7   -740239.64023        26.750           2.688
  23085592.815    -6952595.292 6  -5351070.08921        14.750           0.688
  23322932.292    -5800387.110 6  -4405578.71721        14.750           0.563
  20263782.894    -2991897.283 7  -2271528.72722        21.000           1.781
  23515648.534    -4293360.382 5  -2918798.84721        10.000           0.344
 91  5 29 17 39 14.9990000  0  5G18G 2G11G19G16
  20590507.862     -973072.904 7   -745674.50823        27.250           2.656
  23070030.589    -7034350.670 6  -5414775.53421        14.000           0.719
  23310411.909    -5866183.312 6  -4456848.42921        14.750           0.594
  20257405.378    -3025428.473 7  -2297656.92222        20.500           1.688
  23504043.269    -4354327.216 5  -2966305.45821         9.500           0.406
 91  5 29 17 39 29.9990000  0  5G18G 2G11G19G16
  20589200.433     -979937.140 7   -751023.28823        27.000           2.656
  23054492.042    -7116051.431 6  -5478438.41821        14.750           0.813
  23297912.659    -5931869.957 6  -4508032.76221        14.750           0.625
  20251032.378    -3058898.682 7  -2323737.60522        21.000           1.688
  23492465.394    -4415165.784 5  -3013712.11221        10.000           0.469
 91  5 29 17 39 44.9990000  0  5G18G 2G11G19G16
  20587914.597     -986692.020 7   -756286.85623        27.250           2.719
  23038953.151    -7197698.082 6  -5542059.12821        15.000           0.594
  23285429.987    -5997447.380 6  -4559132.00021        14.250           0.656
  20244676.198    -3092308.793 7  -2349771.45822        20.250           1.719
  23480917.511    -4475876.799 5  -3061019.37721         9.750           0.344
 91  5 29 17 39 59.9990000  0  5G18G 2G11G19G16
  20586648.933     -993341.651 7   -761468.41523        27.250           2.656
  23023427.847    -7279294.496 6  -5605640.69621        14.500           0.688
  23272968.917    -6062919.339 6  -4610149.05921        14.250           0.688
  20238329.409    -3125662.818 7  -2375761.60422        21.500           1.875
  23469384.183    -4536464.188 5  -3108230.31421        10.500           0.375
 91  5 29 17 40 14.9980000  0  5G18G 2G11G19G16
  20585403.592     -999879.916 7   -766563.19023        27.000           2.719
  23007907.428    -7360829.326 6  -5669174.28021        14.500           0.688
  23260532.147    -6128275.600 6  -4661075.95621        14.250           0.625
  20231994.904    -3158953.021 7  -2401702.02122        20.750           1.750
  23457879.412    -4596918.098 5  -3155337.26221         9.500           0.344
 91  5 29 17 40 29.9980000  0  5G18G 2G11G19G16
  20584184.701    -1006308.054 7   -771572.15923        27.500           2.656
  22992405.904    -7442313.926 6  -5732668.72421        14.000           0.781
  23248119.920    -6193524.759 6  -4711919.41221        14.750           0.563
  20225670.647    -3192184.283 7  -2427596.50822        21.750           1.781
  23446402.178    -4657246.924 5  -3202346.69921         9.500           0.344
 91  5 29 17 40 44.9980000  0  5G18G 2G11G19G16
  20582980.951    -1012626.201 7   -776495.41423        27.500           2.781
  22976906.357    -7523742.914 6  -5796119.82921        14.250           0.750
  23235723.045    -6258662.633 6  -4762676.14421        14.250           0.719
  20219360.436    -3225354.932 7  -2453443.76222        21.000           1.781
  23434947.100    -4717446.672 5  -3249255.59321        10.250           0.313
 91  5 29 17 40 59.9980000  0  5G18G 2G11G19G16
  20581800.475    -1018817.940 7   -781320.17623        27.000           2.750
  22961424.318    -7605099.749 6  -5859514.72521        14.500           0.750
  23223353.436    -6323672.338 6  -4813333.01721        14.250           0.688
  20213061.123    -3258448.406 7  -2479230.89222        21.000           1.813
  23423517.037    -4777500.614 5  -3296050.86421        10.250           0.313
 91  5 29 17 41 14.9980000  0  5G18G 2G11G19G16
  20580684.904    -1024681.754 7   -785889.40723        27.000           2.781
  22945992.037    -7686182.460 6  -5922695.99821        14.250           0.750
  23211044.772    -6388351.675 6  -4863732.45221        15.000           0.625
  20206817.217    -3291262.857 7  -2504800.58822        20.750           1.813
  23412157.404    -4837207.029 5  -3342575.32421        11.000           0.344
 91  5 29 17 41 29.9980000  0  5G18G 2G11G19G16
  20579585.959    -1030460.488 7   -790392.34623        27.500           2.750
  22930570.959    -7767233.534 6  -5985852.64021        14.000           0.781
  23198752.303    -6452943.142 6  -4914063.41021        14.000           0.625
  20200577.889    -3324040.994 7  -2530341.99622        21.500           1.781
  23400815.740    -4896808.214 5  -3389017.81821        10.000           0.344
 91  5 29 17 41 44.9980000  0  5G18G 2G11G19G16
  20578504.920    -1036142.355 7   -794819.80023        27.000           2.688
  22915155.764    -7848241.201 6  -6048975.46721        14.250           0.750
  23186483.131    -6517434.613 6  -4964316.46621        14.500           0.625
  20194353.982    -3356771.188 7  -2555846.04322        21.250           1.813
  23389496.272    -4956292.162 5  -3435368.91421        10.250           0.281
 91  5 29 17 41 59.9980000  0  5G18G 2G11G19G16
  20577443.732    -1041722.450 7   -799167.94923        27.000           2.719
  22899752.693    -7929200.082 6  -6112060.24121        15.000           0.813
  23174229.037    -6581820.550 6  -5014487.26921        14.250           0.719
  20188133.818    -3389448.335 7  -2581308.75722        20.750           1.844
  23378197.959    -5015653.830 5  -3481624.75121         9.750           0.344
 91  5 29 17 42 14.9980000  0  5G18G 2G11G19G16
  20576402.240    -1047191.994 7   -803429.95623        26.750           2.750
  22884358.311    -8010100.812 6  -6175099.71621        14.250           0.813
  23161998.928    -6646091.608 6  -5064568.56221        15.000           0.719
  20181926.748    -3422063.406 7  -2606723.09622        21.000           1.781
  23366928.295    -5074883.963 5  -3527778.08521        10.250           0.375
 91  5 29 17 42 29.9980000  0  5G18G 2G11G19G16
  20575383.076    -1052544.576 7   -807600.82623        26.750           2.750
  22868972.709    -8090937.466 6  -6238089.27421        14.750           0.813
  23149790.811    -6710241.353 6  -5114555.33321        14.250           0.625
  20175733.123    -3454610.270 7  -2632084.29422        22.000           1.844
  23355683.482    -5133976.078 5  -3573823.87521         9.500           0.375
 91  5 29 17 42 44.9980000  0  5G18G 2G11G19G16
  20574391.373    -1057766.034 7   -811669.52023        27.250           2.719
  22853603.725    -8171695.311 6  -6301017.42121        14.000           0.750
  23137612.420    -6774254.977 6  -5164436.02521        14.250           0.688
  20169557.678    -3487074.624 7  -2657381.18922        21.000           1.813
  23344466.240    -5192915.733 5  -3619750.85821        10.250           0.406
 91  5 29 17 42 59.9980000  0  5G18G 2G11G19G16
  20573419.318    -1062864.966 7   -815642.74723        26.750           2.750
  22838248.553    -8252382.737 6  -6363890.67521        14.000           0.844
  23125450.498    -6838140.657 6  -5214217.03521        14.500           0.719
  20163392.107    -3519464.954 7  -2682620.41022        21.750           1.813
  23333279.982    -5251711.253 5  -3665565.55821         9.500           0.438
 91  5 29 17 43 14.9980000  0  5G18G 2G11G19G16
  20572469.732    -1067849.610 7   -819526.92023        26.250           2.688
  22822905.709    -8333007.418 6  -6426715.06721        14.500           0.875
  23113318.662    -6901906.078 6  -5263904.33221        15.000           0.719
  20157242.279    -3551789.261 7  -2707808.18022        21.250           1.719
  23322116.623    -5310370.346 5  -3711273.91821        10.000           0.313
 91  5 29 17 43 29.9980000  0  5G18G 2G11G19G16
  20571543.779    -1072725.246 7   -823326.15023        26.250           2.750
  22807577.014    -8413574.170 6  -6489494.30821        14.500           0.813
  23101204.537    -6965555.912 6  -5313501.56221        14.750           0.688
  20151099.990    -3584052.482 7  -2732948.35722        22.000           1.750
  23310983.256    -5368897.899 5  -3756879.79021        10.500           0.344
 91  5 29 17 43 44.9980000  0  5G18G 2G11G19G16
  20570635.100    -1077495.000 7   -827042.87423        26.000           2.750
  22792257.568    -8494086.077 6  -6552230.80721        15.000           0.813
  23089115.732    -7029093.076 6  -5363010.98921        15.000           0.594
  20144974.623    -3616257.932 7  -2758043.51722        21.250           1.719
  23299866.201    -5427297.085 5  -3802385.63321        10.250           0.281
 91  5 29 17 43 59.9980000  0  5G18G 2G11G19G16
  20569751.209    -1082156.086 7   -830674.91123        26.500           2.719
  22776944.201    -8574540.153 6  -6614922.24421        14.750           0.938
  23077049.193    -7092514.290 6  -5412430.05821        15.500           0.656
  20138852.162    -3648402.750 7  -2783091.42822        22.500           1.750
  23288777.467    -5485564.932 5  -3847789.14921        10.250           0.406
 91  5 29 17 44 14.9980000  0  6G18G 2G11G19G16G 6
  20568882.506    -1086707.793 7   -834221.73523        25.750           2.625
  22761649.889    -8654935.392 6  -6677567.82321        15.000           0.844
  23064999.842    -7155818.317 6  -5461757.83221        15.500           0.750
  20132752.342    -3680486.082 7  -2808091.43422        21.750           1.750
  23277711.404    -5543700.099 5  -3893089.27321         9.500           0.313
  23940440.404          -0.30413                         6.000
 91  5 29 17 44 29.9980000  0  6G18G 2G11G19G16G 6
  20568033.701    -1091165.080 7   -837694.97623        25.250           2.688
  22746359.568    -8735286.272 6  -6740178.84121        15.500           0.906
  23052974.045    -7219019.618 6  -5511005.56021        16.000           0.813
  20126654.436    -3712522.676 7  -2833055.02022        21.500           1.656
  23266676.631    -5601717.176 5  -3938297.36721         9.750           0.344
  23926805.217      -71637.722 4                         6.250
 91  5 29 17 44 44.9980000  0  6G18G 2G11G19G16G 6
  20567202.936    -1095531.486 7   -841097.40523        25.500           2.688
  22731070.561    -8815596.324 6  -6802758.05421        14.250           0.781
  23040965.334    -7282121.454 6  -5560175.77421        16.000           0.844
  20120565.772    -3744516.203 7  -2857985.04122        21.250           1.719
  23255658.850    -5659619.601 5  -3983416.13121        10.250           0.281
  23913175.053     -143265.501 4                         7.000
 91  5 29 17 44 59.9980000  0  6G18G 2G11G19G16G 6
  20566390.857    -1099795.180 7   -844419.79623        25.250           2.656
  22715804.865    -8895853.176 6  -6865295.81521        15.500           0.906
  23028980.975    -7345111.354 6  -5609258.77121        16.250           0.688
  20114486.600    -3776454.440 7  -2882871.98422        22.000           1.719
  23244661.115    -5717395.228 5  -4028436.11921        10.000           0.313
  23899551.787     -214871.594 3                         6.000
 91  5 29 17 45 14.9980000  0  6G18G 2G11G19G16G 6
  20565602.959    -1103945.924 7   -847654.17223        25.250           2.656
  22700541.459    -8976046.591 6  -6927784.13621        15.250           0.906
  23017017.857    -7407978.716 6  -5658246.28721        16.750           0.750
  20108423.287    -3808327.273 7  -2907707.96222        21.250           1.719
  23233695.279    -5775033.758 5  -4073349.25721        10.000           0.406
  23885930.756     -286445.896 4                         6.500
 91  5 29 17 45 29.9980000  0  6G18G 2G11G19G16G 6
  20564837.584    -1107970.339 7   -850790.11423        25.000           2.688
  22685298.764    -9056162.837 6  -6990212.31821        15.000           0.969
  23005078.397    -7470709.599 6  -5707127.44321        16.500           0.719
  20102375.928    -3840121.139 7  -2932482.40822        21.750           1.719
  23222752.303    -5832521.266 5  -4118144.69521        10.000           0.344
  23872316.592     -357974.719 4        -0.37831         6.500           0.344
 91  5 29 17 45 44.9980000  0  6G18G 2G11G19G16G 6
  20564091.920    -1111885.653 7   -853841.04123        25.250           2.656
  22670058.514    -9136218.675 6  -7052593.43821        14.750           1.000
  22993166.076    -7533320.867 6  -5755915.40621        16.750           0.719
  20096334.748    -3871853.204 7  -2957208.69522        21.250           1.750
  23211842.803    -5889874.740 5  -4162835.72121        10.250           0.344
  23858708.631     -429475.276 4    -55715.01421         6.750           0.313
 91  5 29 17 45 59.9980000  0  6G18G 2G11G19G16G 6
  20563368.818    -1115687.178 7   -856803.30123        25.500           2.688
  22654841.209    -9216209.134 6  -7114923.62021        15.250           0.938
  22981271.100    -7595807.393 6  -5804606.15321        16.000           0.750
  20090308.647    -3903518.646 7  -2981883.07522        22.000           1.781
  23200950.670    -5947089.165 5  -4207418.39821        10.250           0.219
  23845110.451     -500942.702 4   -111403.86321         7.000           0.344
 91  5 29 17 46 14.9980000  0  6G18G 2G11G19G16G 6
  20562668.240    -1119378.286 7   -859679.51923        25.500           2.719
  22639630.420    -9296137.357 6  -7177205.27821        15.500           0.938
  22969405.920    -7658171.974 6  -5853201.89921        16.250           0.656
  20084295.326    -3935120.576 7  -3006507.95322        21.000           1.750
  23190088.022    -6004167.802 5  -4251895.26821         9.500           0.438
  23831514.459     -572380.355 4   -167069.51821         7.000           0.250
 91  5 29 17 46 29.9980000  0  6G18G 2G11G19G16G 6
  20561982.115    -1122965.893 7   -862475.09623        24.750           2.656
  22624434.209    -9376009.853 6  -7239443.54221        15.500           0.938
  22957559.217    -7720420.995 6  -5901707.59721        16.500           0.813
  20078294.506    -3966665.730 7  -3031088.60322        21.500           1.813
  23179254.287    -6061116.821 5  -4296271.10921        10.250           0.344
  23817927.545     -643794.848 4   -222717.10521         6.750           0.313
 91  5 29 17 46 44.9980000  0  6G18G 2G11G19G16G 6
  20561320.201    -1126448.110 7   -865188.53823        25.000           2.625
  22609244.029    -9455824.580 6  -7301636.78121        15.500           0.969
  22945736.420    -7782552.327 6  -5950121.57921        16.000           0.750
  20072301.654    -3998152.287 7  -3055623.58222        21.250           1.781
  23168439.514    -6117934.531 5  -4340544.65821         9.750           0.313
  23804343.115     -715184.334 4   -278345.21221         6.750           0.156
 91  5 29 17 46 59.9980000  0  6G18G 2G11G19G16G 6
  20560677.053    -1129821.118 7   -867816.89523        24.750           2.531
  22594065.592    -9535577.581 6  -7363781.92421        15.000           0.938
  22933937.420    -7844561.800 6  -5998440.60021        16.500           0.719
  20066320.037    -4029576.486 7  -3080109.98022        21.750           1.813
  23157654.967    -6174616.951 5  -4384712.78221        10.250           0.344
  23790767.326     -786544.987 5   -333950.91821         7.750           0.156
 91  5 29 17 47 14.9980000  0  6G18G 2G11G19G16G 6
  20560059.350    -1133086.135 7   -870361.09423        25.500           2.563
  22578901.600    -9615269.660 6  -7425879.58621        15.750           0.969
  22922162.170    -7906450.064 6  -6046665.18321        16.250           0.781
  20060354.201    -4060939.199 7  -3104548.45722        21.000           1.813
  23146891.037    -6231164.436 5  -4428775.75221         9.750           0.375
  23777187.881     -857877.902 4   -389534.95921         7.000           0.188
 91  5 29 17 47 29.9980000  0  6G18G 2G11G19G16G 6
  20559455.920    -1136243.886 7   -872821.72123        25.000           2.563
  22563746.451    -9694901.310 6  -7487930.16421        15.500           0.969
  22910404.107    -7968217.501 6  -6094795.59821        16.000           0.813
  20054395.756    -4092241.039 7  -3128939.50222        21.750           1.719
  23136156.350    -6287577.932 5  -4472734.29321         9.750           0.438
  23763617.756     -929183.656 4   -445097.81121         7.000           0.156
 91  5 29 17 47 44.9980000  0  6G18G 2G11G19G16G 6
  20558877.459    -1139293.865 7   -875198.36223        25.250           2.531
  22548607.068    -9774471.604 6  -7549932.92021        15.750           0.969
  22898677.389    -8029862.867 6  -6142830.90021        16.500           0.719
  20048452.482    -4123481.418 7  -3153282.65622        20.500           1.688
  23125448.607    -6343856.319 5  -4516587.58821        10.000           0.406
  23750056.404    -1000461.566 4   -500638.99421         7.000           0.250
 91  5 29 17 47 59.9980000  0  6G18G 2G11G19G16G 6
  20558318.662    -1142233.437 7   -877488.97523        25.000           2.625
  22533476.459    -9853977.712 6  -7611885.68621        15.500           0.969
  22886968.865    -8091383.349 6  -6190768.89021        16.250           0.750
  20042517.420    -4154657.778 7  -3177575.92922        21.750           1.813
  23114767.834    -6399996.992 5  -4560333.55821        10.750           0.406
  23736498.615    -1071709.212 4   -556156.57621         7.000           0.188
 91  5 29 17 48 14.9980000  0  6G18G 2G11G19G16G 6
  20557776.701    -1145067.116 7   -879697.07722        24.750           2.469
  22518362.443    -9933423.839 6  -7673791.69521        16.250           0.938
  22875282.178    -8152782.961 6  -6238612.70421        15.750           0.719
  20036600.178    -4185774.414 7  -3201822.65522        21.250           1.781
  23104110.545    -6456003.948 5  -4603975.35221        10.500           0.313
  23722950.428    -1142930.863 4   -611653.87921         7.000           0.156
 91  5 29 17 48 29.9980000  0  6G18G 2G11G19G16G 6
  20557259.365    -1147793.355 7   -881821.44923        25.000           2.563
  22503249.998   -10012808.457 6  -7735649.77821        15.500           0.906
  22863623.576    -8214059.754 6  -6286360.81621        16.750           0.781
  20030689.967    -4216829.806 7  -3226021.66422        20.250           1.844
  23093480.482    -6511875.714 5  -4647511.78921        11.000           0.344
  23709397.873    -1214124.887 4   -667129.75121         6.750           0.094
 91  5 29 17 48 44.9980000  0  6G18G 2G11G19G16G 6
  20556759.365    -1150412.621 7   -883862.46622        24.500           2.469
  22488155.912   -10092131.401 6  -7797459.80821        16.000           0.938
  22851988.795    -8275213.458 6  -6334013.01321        17.000           0.750
  20024791.061    -4247823.979 7  -3250172.96622        21.250           1.875
  23082871.811    -6567611.980 5  -4690942.65721        10.000           0.438
  23695852.225    -1285291.427 4   -722584.14221         6.750           0.219
 91  5 29 17 48 59.9980000  0  6G18G 2G11G19G16G 6
  20556281.318    -1152923.147 7   -885818.75523        24.250           2.531
  22473075.615   -10171390.555 6  -7859220.12021        16.000           1.063
  22840373.162    -8336241.848 6  -6381567.56321        16.500           0.719
  20018906.256    -4278755.058 7  -3274275.11022        21.000           1.813
  23072291.990    -6623210.764 5  -4734266.35221        11.000           0.344
  23682318.990    -1356428.695 4   -778015.72221         7.250           0.188
 91  5 29 17 49 14.9980000  0  6G18G 2G11G19G16G 6
  20555825.350    -1155324.674 7   -887690.11123        24.500           2.531
  22458002.279   -10250585.518 6  -7920930.41521        15.750           1.031
  22828786.022    -8397144.332 6  -6429023.99421        17.250           0.688
  20013030.279    -4309622.795 7  -3298327.89622        21.000           1.750
  23061732.756    -6678671.830 5  -4777482.80221        10.000           0.375
  23668786.779    -1427536.339 4   -833424.22021         6.750           0.156
 91  5 29 17 49 29.9980000  0  6G18G 2G11G19G16G 6
  20555387.693    -1157621.651 7   -889479.99722        24.750           2.469
  22442949.248   -10329720.563 6  -7982594.04021        16.250           0.938
  22817216.357    -8457925.104 6  -6476385.60021        17.000           0.719
  20007165.428    -4340431.657 7  -3322334.80622        21.250           1.813
  23051208.287    -6733999.016 5  -4820594.87421        10.000           0.438
  23655257.186    -1498618.891 4   -888813.16721         6.250           0.219
 91  5 29 17 49 44.9980000  0  6G18G 2G11G19G16G 6
  20554972.389    -1159807.480 7   -891183.27423        24.750           2.531
  22427895.662   -10408788.477 6  -8044205.33421        15.750           0.906
  22805674.061    -8518576.875 6  -6523646.69121        16.750           0.813
  20001318.147    -4371174.727 7  -3346290.44522        21.250           1.781
  23040715.045    -6789185.618 5  -4863597.41121        10.500           0.438
  23641740.178    -1569669.310 3   -944177.09821         6.000           0.250
 91  5 29 17 49 59.9980000  0  6G18G 2G11G19G16G 6
  20554575.920    -1161887.565 7   -892804.15022        24.500           2.438
  22412865.592   -10487794.772 6  -8105768.62721        16.250           1.031
  22794157.123    -8579104.725 6  -6570811.20821        16.500           0.813
  19995477.717    -4401857.510 7  -3370199.11122        21.750           1.844
  23030232.389    -6844236.825 5  -4906494.46521        10.250           0.375
  23628227.561    -1640693.293 4   -999520.39321         7.250           0.250
 91  5 29 17 50 14.9980000  0  6G18G 2G11G19G16G 6
  20554200.272    -1163862.597 7   -894343.17522        24.750           2.438
  22397840.022   -10566739.393 6  -8167283.83721        16.500           1.031
  22782664.834    -8639508.706 6  -6617879.21521        16.000           0.750
  19989655.154    -4432480.226 7  -3394060.96922        21.500           1.813
  23019783.029    -6899152.844 5  -4949286.14721        10.750           0.438
  23614715.295    -1711691.077 4  -1054843.34021         6.750           0.188
 91  5 29 17 50 29.9980000  0  6G18G 2G11G19G16G 6
  20553843.318    -1165733.399 7   -895800.98622        24.500           2.438
  22382828.600   -10645622.956 6  -8228751.50621        16.000           1.063
  22771193.936    -8699789.294 6  -6664851.04921        16.250           0.844
  19983834.459    -4463043.560 7  -3417876.55622        22.000           1.781
  23009354.397    -6953934.250 5  -4991972.97021        10.750           0.313
  23601207.584    -1782663.377 3  -1110146.35521         6.000           0.156
 91  5 29 17 50 44.9980000  0  6G18G 2G11G19G16G 6
  20553511.545    -1167495.758 7   -897174.28222        25.500           2.438
  22367834.990   -10724440.880 6  -8290168.01421        16.750           0.969
  22759743.779    -8759941.692 6  -6711723.01621        16.000           0.781
  19978032.217    -4493543.181 7  -3441642.49822        20.750           1.750
  22998956.662    -7008576.507 5  -5034551.36321        10.750           0.375
  23587703.639    -1853605.828 3  -1165426.17221         5.750           0.156
 91  5 29 17 50 59.9980000  0  6G18G 2G11G19G16G 6
  20553194.756    -1169155.259 7   -898467.42523        24.750           2.500
  22352845.686   -10803198.892 6  -8351537.83521        16.750           1.000
  22748322.209    -8819971.368 6  -6758499.34521        16.250           0.719
  19972236.873    -4523984.902 7  -3465363.32622        21.500           1.844
  22988588.381    -7063085.350 5  -5077025.76021        10.750           0.469
  23574211.381    -1924524.235 4  -1220687.22421         6.250           0.219
 91  5 29 17 51 14.9980000  0  6G18G 2G11G19G16G 6
  20552896.920    -1170711.083 7   -899679.79022        24.750           2.469
  22337871.162   -10881895.845 6  -8412860.08121        17.000           1.125
  22736921.897    -8879877.020 6  -6805179.04421        16.500           0.656
  19966456.772    -4554367.755 7  -3489038.27922        20.750           1.781
  22978235.147    -7117459.643 5  -5119395.33721        10.250           0.438
  23560722.256    -1995417.605 4  -1275928.75921         6.250           0.156
 91  5 29 17 51 29.9970000  0  6G18G 2G11G19G16G 6
  20552621.946    -1172165.844 7   -900813.39822        25.250           2.406
  22322906.438   -10960528.672 6  -8474132.36121        16.500           1.031
  22725546.688    -8939656.770 6  -6851760.62321        16.250           0.688
  19960684.728    -4584692.102 7  -3512667.65122        21.250           1.750
  22967914.540    -7171697.793 5  -5161658.84521        10.250           0.469
  23547236.392    -2066283.624 4  -1331148.98221         6.250           0.250
 91  5 29 17 51 44.9970000  0  6G18G 2G11G19G16G 6
  20552364.392    -1173516.551 7   -901865.93322        25.250           2.438
  22307952.892   -11039104.331 6  -8535360.08421        16.750           0.969
  22714192.540    -8999314.891 6  -6898247.43821        16.000           0.750
  19954928.712    -4614958.596 7  -3536251.92722        20.750           1.750
  22957622.329    -7225803.636 5  -5203819.23921        10.500           0.438
  23533758.274    -2137128.423 4  -1386352.65221         6.750           0.219
 91  5 29 17 51 59.9970000  0  6G18G 2G11G19G16G 6
  20552129.978    -1174755.172 7   -902831.13322        25.750           2.375
  22293013.759   -11117609.392 6  -8596532.82321        16.500           1.031
  22702865.353    -9058839.292 6  -6944630.06021        16.000           0.781
  19949178.298    -4645157.408 7  -3559783.47122        21.250           1.781
  22947356.235    -7279765.464 5  -5245867.38821        10.500           0.406
  23520275.782    -2207939.455 4  -1441530.07521         6.250           0.219
 91  5 29 17 52 14.9970000  0  6G18G 2G11G19G16G 6
  20551913.845    -1175885.357 7   -903711.83522        25.750           2.469
  22278086.399   -11196047.229 6  -8657653.14821        16.500           1.031
  22691563.485    -9118232.856 6  -6990910.73121        16.000           0.688
  19943447.728    -4675291.829 7  -3583264.84222        20.750           1.781
  22937111.884    -7333586.639 5  -5287805.98921        10.750           0.500
  23506812.251    -2278720.037 4  -1496683.69921         7.250           0.250
 91  5 29 17 52 29.9970000  0  6G18G 2G11G19G16G 6
  20551717.618    -1176914.927 7   -904514.14022        25.000           2.469
  22263178.321   -11274425.493 6  -8718727.07721        17.000           1.063
  22680286.228    -9177503.072 6  -7037095.28521        16.250           0.625
  19937720.634    -4705369.622 7  -3606702.08522        21.500           1.844
  22926893.235    -7387274.954 5  -5329641.02521        10.250           0.406
  23493347.595    -2349478.006 5  -1551819.75421         7.750           0.313
 91  5 29 17 52 44.9970000  0  6G18G 2G11G19G16G 6
  20551543.524    -1177837.181 7   -905232.81722        25.750           2.438
  22248269.556   -11352737.179 6  -8779749.12021        16.250           1.063
  22669033.454    -9236642.772 6  -7083178.13421        16.500           0.750
  19932010.798    -4735383.785 7  -3630089.74622        20.250           1.781
  22916704.751    -7440822.973 5  -5371366.75621        11.000           0.406
  23479883.321    -2420206.582 4  -1606932.87021         6.750           0.406
 91  5 29 17 52 59.9970000  0  6G18G 2G11G19G16G 6
  20551389.485    -1178657.560 7   -905872.10522        25.500           2.406
  22233379.696   -11430987.354 6  -8840723.24121        16.250           1.000
  22657805.157    -9295657.016 6  -7129163.22221        17.000           0.719
  19926310.118    -4765339.712 7  -3653432.03222        21.500           1.813
  22906540.345    -7494236.011 5  -5412987.32421        10.500           0.375
  23466428.079    -2490910.936 4  -1662027.13721         7.000           0.344
 91  5 29 17 53 14.9970000  0  6G18G 2G11G19G16G 6
  20551250.103    -1179376.679 7   -906432.49022        25.250           2.344
  22218500.931   -11509176.380 6  -8901649.69521        16.500           1.063
  22646595.095    -9354545.969 6  -7175050.67921        16.750           0.750
  19920622.720    -4795238.032 7  -3676729.42522        20.750           1.813
  22896402.399    -7547514.670 5  -5454503.14421        10.500           0.438
  23452981.993    -2561591.738 4  -1717103.04421         7.000           0.375
 91  5 29 17 53 29.9970000  0  6G18G 2G11G19G16G 6
  20551132.509    -1179989.593 7   -906910.12522        25.000           2.375
  22203637.938   -11587299.046 6  -8962524.45021        17.250           1.031
  22635414.251    -9413304.308 6  -7220836.37121        16.500           0.750
  19914944.860    -4825073.661 7  -3699977.96922        20.750           1.688
  22886290.384    -7600653.575 5  -5495910.07721        11.250           0.469
  23439538.423    -2632243.875 4  -1772156.58321         7.250           0.313
 91  5 29 17 53 44.9970000  0  6G18G 2G11G19G16G 6
  20551034.985    -1180498.576 7   -907306.76522        25.250           2.406
  22188783.735   -11665357.033 6  -9023348.80421        17.000           1.125
  22624256.649    -9471933.627 6  -7266521.52221        16.250           0.875
  19909280.267    -4854848.516 7  -3723179.15622        21.000           1.750
  22876204.860    -7653654.391 5  -5537209.41221        11.000           0.438
  23426096.524    -2702869.339 5  -1827189.38321         7.750           0.281
 91  5 29 17 53 59.9970000  0  6G18G 2G11G19G16G 6
  20550958.235    -1180904.174 7   -907622.85422        24.750           2.438
  22173940.579   -11743350.704 6  -9084123.04321        16.750           1.125
  22613126.423    -9530434.074 6  -7312106.26221        17.250           0.844
  19903623.063    -4884562.974 7  -3746333.28422        21.500           1.844
  22866140.610    -7706517.609 5  -5578401.54121        10.250           0.469
  23412658.431    -2773468.530 4  -1882201.69321         7.250           0.250
 91  5 29 17 54 14.9970000  0  6G18G 2G11G19G16G 6
  20550902.431    -1181206.640 7   -907858.58223        25.250           2.500
  22159110.142   -11821280.189 6  -9144847.26621        16.500           1.156
  22602018.017    -9588805.604 6  -7357590.54821        16.750           0.719
  19897981.454    -4914217.416 7  -3769440.63922        21.000           1.813
  22856110.485    -7759243.430 5  -5619486.59421        10.000           0.344
  23399236.868    -2844041.812 5  -1937193.82221         8.250           0.375
 91  5 29 17 54 29.9970000  0  6G18G 2G11G19G16G 6
  20550862.376    -1181406.052 7   -908014.01122        25.000           2.344
  22144294.868   -11899145.220 6  -9205521.27021        16.750           1.125
  22590931.970    -9647047.813 6  -7402974.06621        16.750           0.781
  19892349.735    -4943811.721 7  -3792501.13822        20.750           1.781
  22846105.813    -7811831.384 5  -5660464.22221        10.750           0.406
  23385814.821    -2914588.981 5  -1992165.58421         8.500           0.469
 91  5 29 17 54 44.9970000  0  6G18G 2G11G19G16G 6
  20550846.438    -1181505.239 7                        25.750
  22129486.438   -11976948.125 6  -9266146.85121        16.750           1.125
  22579875.970    -9705162.997 6  -7448258.58021        17.000           0.750
  19886728.071    -4973348.378 7  -3815516.71222        20.500           1.906
  22836120.087    -7864284.002 5  -5701336.38421        10.000           0.531
  23372387.360    -2985112.725 5  -2047119.11321         8.000           0.313
 91  5 29 17 54 59.9970000  0  6G18G 2G11G19G16G 6
  20550845.892    -1181505.641 7                        25.250
  22114695.571   -12054690.254 6  -9326725.08721        17.000           1.156
  22568841.392    -9763152.354 6  -7493445.07021        17.250           0.813
  19881116.196    -5002828.901 7  -3838488.54922        21.500           1.813
  22826167.384    -7916602.617 5  -5742104.13021        10.500           0.438
  23358973.188    -3055614.552 5  -2102055.55321         9.000           0.375
 91  5 29 17 55 14.9970000  0  6G18G 2G11G19G16G 6
  20550866.696    -1181402.736 7                        25.500
  22099912.571   -12132367.083 6  -9387252.43421        16.750           1.188
  22557831.368    -9821010.952 6  -7538529.66621        16.750           0.781
  19875520.446    -5032248.713 7  -3861413.08122        20.750           1.813
  22816235.774    -7968782.961 5  -5782764.15921        10.500           0.469
  23345561.040    -3126089.852 5  -2156971.34721         8.000           0.250
 91  5 29 17 55 29.9970000  0  6G18G 2G11G19G16G 6
  20550904.556    -1181196.402 7                        25.250
  22085143.056   -12209977.915 6  -9447728.36221        17.500           1.125
  22546844.235    -9878737.846 6  -7583511.63921        17.000           0.813
  19869932.126    -5061607.372 7  -3884289.95822        21.000           1.719
  22806331.915    -8020824.269 5  -5823315.81221        10.000           0.406
  23332152.790    -3196538.192 5  -2211866.11021         7.500           0.313
 91  5 29 17 55 44.9970000  0  6G18G 2G11G19G16G 6
  20550959.056    -1180889.972 7                        25.000
  22070389.517   -12287525.560 6  -9508155.04621        17.500           1.156
  22535884.806    -9936335.930 6  -7628393.24421        17.000           0.781
  19864358.298    -5090907.907 7  -3907121.54722        20.750           1.875
  22796461.282    -8072729.232 5  -5863761.23621        10.750           0.531
  23318751.071    -3266962.636 5  -2266742.26121         8.000           0.344
 91  5 29 17 55 59.9970000  0  6G18G 2G11G19G16G 6
  20551036.978    -1180484.306 7   -907296.00622        25.000           2.438
  22055642.032   -12365010.810 6  -9568533.10521        17.250           1.156
  22524950.462    -9993806.097 6  -7673175.16721        17.000           0.875
  19858792.415    -5120151.278 7  -3929908.58822        21.750           1.750
  22786603.142    -8124498.610 5  -5904101.01721         9.750           0.438
  23305357.884    -3337364.295 5  -2321600.64321         8.250           0.313
 91  5 29 17 56 14.9970000  0  6G18G 2G11G19G16G 6
  20551135.806    -1179978.281 7   -906901.73822        25.250           2.375
  22040905.688   -12442432.123 6  -9628861.35421        16.750           1.188
  22514037.126   -10051146.481 6  -7717855.95221        16.250           0.719
  19853240.259    -5149336.133 7  -3952650.04122        21.000           1.781
  22776778.384    -8176131.194 5  -5944334.19721        10.500           0.531
  23291963.017    -3407741.737 5  -2376440.15121         7.500           0.250
 91  5 29 17 56 29.9970000  0  6G18G 2G11G19G16G 6
  20551252.095    -1179368.034 7   -906426.26122        25.250           2.375
  22026188.907   -12519785.437 6  -9689136.62021        17.250           1.281
  22503153.587   -10108352.959 6  -7762432.41221        17.750           0.844
  19847693.353    -5178458.630 7  -3975342.89922        21.500           1.719
  22766981.368    -8227622.841 5  -5984457.54121        10.250           0.406
  23278579.345    -3478091.022 5  -2431257.75721         8.250           0.313
 91  5 29 17 56 44.9970000  0  6G18G 2G11G19G16G 6
  20551387.228    -1178659.703 7   -905874.35923        25.000           2.563
  22011481.235   -12597076.556 6  -9749363.41321        17.250           1.125
  22492290.485   -10165431.051 6  -7806908.83021        17.000           0.844
  19842166.337    -5207524.528 7  -3997991.65622        20.750           1.719
  22757205.774    -8278979.327 5  -6024475.61221        11.000           0.344
  23265196.821    -3548418.116 5  -2486058.04921         8.750           0.406
 91  5 29 17 56 59.9970000  0  6G18G 2G11G19G16G 6
  20551542.126    -1177851.683 7   -905244.77922        25.500           2.469
  21996786.423   -12674303.393 6  -9809540.12321        17.500           1.250
  22481453.759   -10222378.618 6  -7851283.53821        17.000           0.781
  19836646.392    -5236531.904 7  -4020594.80622        20.250           1.719
  22747459.563    -8330198.694 5  -6064386.80621        11.250           0.531
  23251811.798    -3618721.163 5  -2540839.57421         8.000           0.438
 91  5 29 17 57 14.9970000  0  6G18G 2G11G19G16G 6
  20551714.923    -1176940.456 7   -904534.77222        25.250           2.469
  21982102.876   -12751462.330 6  -9869663.92321        17.000           1.125
  22470642.681   -10279191.766 6  -7895553.50121        17.500           0.938
  19831137.579    -5265477.221 7  -4043149.60522        20.000           1.719
  22737741.938    -8381277.094 5  -6104188.15121        11.250           0.469
  23238439.735    -3688996.492 5  -2595599.52321         8.000           0.313
 91  5 29 17 57 29.9970000  0  6G18G 2G11G19G16G 6
  20551905.704    -1175925.992 7   -903744.32523        24.750           2.500
  21967431.985   -12828552.836 6  -9929734.40321        17.500           1.219
  22459855.556   -10335870.012 6  -7939718.34121        17.500           0.875
  19825640.407    -5294360.305 7  -4065655.90422        21.000           1.813
  22728049.438    -8432214.383 5  -6143879.56021        10.250           0.438
  23225077.384    -3759244.064 5  -2650337.83821         8.000           0.250
 91  5 29 17 57 44.9970000  0  6G18G 2G11G19G16G 6
  20552120.142    -1174813.138 7   -902877.21422        25.250           2.469
  21952774.532   -12905579.463 6  -9989755.10121        17.250           1.156
  22449096.978   -10392417.771 6  -7983781.51621        17.750           0.875
  19820157.782    -5323185.769 7  -4088117.31422        20.500           1.844
  22718381.353    -8483015.151 5  -6183464.56821        10.250           0.375
  23211712.642    -3829468.483 5  -2705058.12421         8.250           0.313
 91  5 29 17 57 59.9970000  0  6G18G 2G11G19G16G 6
  20552349.759    -1173599.674 7   -901931.70523        25.000           2.500
  21938131.423   -12982540.026 6 -10049724.33521        17.750           1.250
  22438359.298   -10448832.569 6  -8027741.07021        17.250           0.844
  19814685.735    -5351951.435 7  -4110532.11722        20.500           1.844
  22708741.313    -8533676.901 5  -6222941.27121        10.750           0.500
  23198357.548    -3899667.621 5  -2759758.70921         8.000           0.313
 91  5 29 17 58 14.9970000  0  6G18G 2G11G19G16G 6
  20552597.907    -1172291.236 7   -900912.19122        24.500           2.469
  21923496.517   -13059439.756 6 -10109646.15321        17.750           1.281
  22427648.743   -10505119.512 6  -8071601.00321        17.500           0.906
  19809219.657    -5380662.769 7  -4132904.58522        20.000           1.719
  22699128.360    -8584205.028 5  -6262313.82821        11.250           0.469
  23185002.540    -3969846.917 5  -2814443.83621         7.750           0.344
 91  5 29 17 58 29.9970000  0  6G18G 2G11G19G16G 6
  20552863.634    -1170884.362 7   -899815.96722        23.750           2.438
  21908873.610   -13136275.058 6 -10169517.77421        17.250           1.250
  22416962.767   -10561274.876 6  -8115358.40421        17.750           0.938
  19803763.876    -5409316.384 7  -4155232.08822        21.000           1.750
  22689540.681    -8634596.072 5  -6301579.57521        11.500           0.406
  23171649.806    -4040003.028 5  -2869110.88921         7.500           0.281
 91  5 29 17 58 44.9970000  0  6G18G 2G11G19G16G 6
  20553151.337    -1169378.779 7   -898642.83122        23.750           2.438
  21894266.493   -13213045.086 6 -10229338.52821        18.250           1.375
  22406299.493   -10617297.741 6  -8159012.56121        17.250           0.875
  19798324.548    -5437911.462 7  -4177513.96822        20.000           1.750
  22679970.993    -8684849.302 5  -6340737.93821        11.250           0.469
  23158302.774    -4110135.068 5  -2923759.18221         7.500           0.250
 91  5 29 17 58 59.9970000  0  6G18G 2G11G19G16G 6
  20553459.798    -1167774.706 7   -897392.93922        24.250           2.438
  21879672.962   -13289749.780 6 -10289108.37621        18.250           1.281
  22395667.337   -10673187.889 6  -8202563.30121        17.000           0.875
  19792894.899    -5466448.164 7  -4199750.36222        20.000           1.750
  22670439.462    -8734964.562 6  -6379788.76921        12.000           0.500
  23144962.235    -4180243.344 5  -2978388.95921         7.750           0.313
 91  5 29 17 59 14.9970000  0  6G18G 2G11G19G16G 6
  20553781.720    -1166070.265 7   -896064.85323        24.250           2.531
  21865084.681   -13366386.948 6 -10348825.60221        17.500           1.313
  22385055.923   -10728943.117 6  -8246008.91121        17.000           0.781
  19787477.251    -5494924.552 7  -4221939.76322        20.750           1.750
  22660924.907    -8784939.750 5  -6418730.49521        11.250           0.469
  23131626.712    -4250325.831 5  -3032998.66521         8.250           0.344
 91  5 29 17 59 29.9970000  0  6G18G 2G11G19G16G 6
  20554126.735    -1164270.516 7   -894662.49922        24.750           2.406
  21850512.298   -13442961.356 6 -10408493.92621        17.500           1.188
  22374473.696   -10784567.978 6  -8289352.94321        17.750           0.875
  19782064.071    -5523345.534 7  -4244085.99022        20.500           1.844
  22651441.438    -8834779.855 5  -6457566.93721        11.000           0.438
  23118293.759    -4320387.505 5  -3087592.10821         7.500           0.344
 91  5 29 17 59 44.9970000  0  6G18G 2G11G19G16G 6
  20554486.157    -1162369.641 7   -893181.34822        24.250           2.438
  21835953.493   -13519466.958 6 -10468108.64121        17.500           1.250
  22363913.446   -10840056.210 6  -8332590.50021        17.500           0.875
  19776670.399    -5551704.994 7  -4266184.27522        20.500           1.813
  22641987.056    -8884478.461 5  -6496293.11521        11.750           0.531
  23104963.126    -4390422.232 5  -3142164.56221         7.750           0.344
 91  5 29 17 59 59.9970000  0  6G18G 2G11G19G16G 6
  20554866.853    -1160373.912 7   -891626.28222        24.250           2.438
  21821410.493   -13595909.562 6 -10527674.26221        18.000           1.250
  22353377.532   -10895413.704 6  -8375726.18921        17.250           0.938
  19771284.173    -5580009.152 7  -4288239.46822        20.500           1.750
  22632552.853    -8934041.875 5  -6534913.97121        11.000           0.375
  23091649.321    -4460436.252 5  -3196720.90521         8.000           0.406
 91  5 29 18  0 14.9970000  0  6G18G 2G11G19G16G 6
  20555264.478    -1158278.382 7   -889993.45622        23.750           2.469
  21806874.993   -13672283.916 6 -10587186.70021        17.750           1.313
  22342869.017   -10950634.918 6  -8418755.67421        17.250           0.781
  19765908.157    -5608252.750 7  -4310247.47122        21.500           1.906
  22623149.524    -8983464.741 5  -6573425.29621        11.000           0.375
  23078329.423    -4530424.424 5  -3251257.09121         8.500           0.281
 91  5 29 18  0 29.9970000  0  6G18G 2G11G19G16G 6
  20555683.079    -1156085.089 7   -888284.44322        23.750           2.375
  21792356.313   -13748591.927 6 -10646647.44921        18.000           1.313
  22332388.548   -11005721.527 6  -8461680.28821        17.750           0.844
  19760544.603    -5636437.766 7  -4332209.82722        20.750           1.844
  22613773.954    -9032749.028 5  -6611828.64021        11.500           0.406
  23065007.235    -4600388.777 5  -3305774.74021         7.750           0.313
 91  5 29 18  0 44.9970000  0  6G18G 2G11G19G16G 6
  20556120.962    -1153790.374 7   -886496.40622        24.000           2.469
  21777849.868   -13824829.565 6 -10706053.36021        18.000           1.250
  22321930.993   -11060669.367 6  -8504496.76821        17.250           0.813
  19755191.595    -5664560.122 7  -4354123.35522        21.000           1.813
  22604419.095    -9081890.373 5  -6650120.61921        11.250           0.438
  23051700.360    -4670325.298 5  -3360270.67421         8.250           0.344
 91  5 29 18  0 59.9970000  0  6G18G 2G11G19G16G 6
  20556576.095    -1151396.820 7   -884631.34422        23.750           2.250
  21763354.993   -13900999.080 6 -10765406.18621        18.000           1.219
  22311503.298   -11115480.701 6  -8547206.88321        18.250           0.938
  19749857.251    -5692622.371 6  -4375990.04722        19.750           1.844
  22595096.845    -9130891.269 6  -6688303.13821        12.000           0.438
  23038400.071    -4740236.542 5  -3414746.91121         7.750           0.313
 91  5 29 18  1 14.9970000  0  6G18G 2G11G19G16G 6
  20557049.712    -1148908.805 7   -882692.67422        23.500           2.344
  21748869.001   -13977104.602 6 -10824709.15421        17.250           1.219
  22301096.384   -11170159.595 6  -8589813.79021        18.250           0.906
  19744521.837    -5720628.941 7  -4397813.35322        21.500           1.813
  22585798.173    -9179756.024 5  -6726379.58421        11.500           0.469
  23025098.806    -4810126.792 5  -3469206.81821         8.250           0.281
 91  5 29 18  1 29.9970000  0  6G18G 2G11G19G16G 6
  20557539.118    -1146325.121 7   -880679.45822        22.750           2.313
  21734402.946   -14053144.396 6 -10883960.90021        18.500           1.375
  22290716.673   -11224704.239 6  -8632316.08521        18.250           0.906
  19739207.970    -5748578.279 7  -4419592.06622        20.250           1.813
  22576527.478    -9228483.082 5  -6764348.73121        11.750           0.375
  23011800.884    -4879994.639 5  -3523649.24321         7.750           0.219
 91  5 29 18  1 44.9970000  0  6G18G 2G11G19G16G 6
  20558048.907    -1143645.942 7   -878591.83222        23.000           2.281
  21719943.095   -14129118.567 6 -10943161.51521        17.750           1.250
  22280362.454   -11279114.500 6  -8674713.66721        18.000           0.875
  19733896.392    -5776470.473 7  -4441326.24522        21.500           1.938
  22567276.774    -9277072.542 5  -6802210.64621        11.500           0.375
  22998511.563    -4949840.165 5  -3578074.26421         8.000           0.281
 91  5 29 18  1 59.9970000  0  6G18G 2G11G19G16G 6
  20558578.876    -1140866.902 7   -876426.38922        23.500           2.250
  21705499.774   -14205022.374 6 -11002307.30721        18.000           1.375
  22270033.392   -11333385.559 6  -8717002.78621        17.500           0.813
  19728601.743    -5804300.880 7  -4463012.28422        20.750           1.906
  22558058.228    -9325519.670 6  -6839961.66721        12.000           0.469
  22985223.454    -5019658.868 5  -3632478.43821         7.750           0.313
 91  5 29 18  2 14.9970000  0  6G18G 2G11G19G16G 6
  20559124.759    -1137986.667 7   -874182.10622        23.000           2.313
  21691068.087   -14280854.060 6 -11061396.88421        17.750           1.375
  22259735.579   -11387515.548 6  -8759181.97221        18.000           1.000
  19723315.587    -5832068.021 7  -4484649.02122        21.250           1.813
  22548865.626    -9373822.735 5  -6877600.42321        11.500           0.406
  22971946.353    -5089449.156 5  -3686860.40721         8.250           0.250
 91  5 29 18  2 29.9970000  0  6G18G 2G11G19G16G 6
  20559695.032    -1135011.676 7   -871863.98022        23.500           2.281
  21676650.095   -14356619.535 6 -11120434.88421        17.750           1.281
  22249457.813   -11441510.243 6  -8801255.73521        17.250           0.906
  19718045.767    -5859777.859 7  -4506241.10922        20.750           1.906
  22539702.103    -9421987.893 5  -6915131.73121        11.750           0.406
  22958667.798    -5159217.086 5  -3741224.97321         8.500           0.281
 91  5 29 18  2 44.9960000  0  6G18G 2G11G19G16G 6
  20560281.496    -1131914.101 7   -869450.34422        23.250           2.219
  21662251.543   -14432285.888 6 -11179395.63721        18.000           1.250
  22239215.871   -11495337.967 6  -8843199.39221        17.750           0.844
  19712787.543    -5887400.627 7  -4527765.35322        21.500           1.844
  22530568.090    -9469983.759 5  -6952531.09821        11.250           0.375
  22945402.559    -5228930.204 5  -3795546.86321         8.750           0.281
 91  5 29 18  2 59.9960000  0  6G18G 2G11G19G16G 6
  20560894.988    -1128706.317 7   -866950.81822        24.000           2.188
  21647867.574   -14507875.619 6 -11238296.68721        18.000           1.344
  22228999.621   -11549018.155 6  -8885028.10121        17.250           0.938
  19707545.691    -5914952.569 7  -4549234.40122        20.750           1.969
  22521461.926    -9517829.449 5  -6989813.48021        11.000           0.375
  22932144.981    -5298610.410 5  -3849843.07921         8.250           0.219
 91  5 29 18  3 14.9960000  0  6G18G 2G11G19G16G 6
  20561525.113    -1125387.552 7   -864364.81922        23.250           2.219
  21633500.559   -14583382.291 6 -11297133.01821        18.250           1.344
  22218815.309   -11602545.842 6  -8926737.96421        17.750           0.875
  19702315.340    -5942430.668 7  -4570645.92022        21.000           1.844
  22512387.707    -9565520.510 5  -7026975.33021        10.500           0.438
  22918889.160    -5368251.758 5  -3904109.02121         8.750           0.375
 91  5 29 18  3 29.9960000  0  6G18G 2G11G19G16G 6
  20562172.652    -1121983.294 7   -861712.19722        23.250           2.219
  21619139.277   -14658831.236 6 -11355924.36421        17.750           1.281
  22208653.199   -11655946.113 6  -8968348.54221        18.250           0.969
  19697096.512    -5969860.396 7  -4592019.73522        20.500           1.906
  22503337.684    -9613082.063 5  -7064036.29521        11.250           0.406
  22905641.066    -5437879.709 5  -3958364.52321         8.750           0.250
 91  5 29 18  3 44.9960000  0  6G18G 2G11G19G16G 6
  20562838.863    -1118484.700 7   -858986.07422        23.000           2.188
  21604798.629   -14734213.187 6 -11414663.51321        18.250           1.281
  22198519.746   -11709209.620 6  -9009852.54821        17.750           0.938
  19691887.371    -5997232.777 7  -4613348.87022        21.250           1.844
  22494315.270    -9660505.119 5  -7100989.33121        11.500           0.469
  22892397.762    -5507485.422 5  -4012602.71721         8.750           0.344
 91  5 29 18  3 59.9960000  0  6G18G 2G11G19G16G 6
  20563526.309    -1114885.178 7   -856181.30222        24.000           2.156
  21590464.184   -14809521.155 6 -11473344.99821        18.000           1.406
  22188410.535   -11762329.384 6  -9051244.54921        17.750           1.000
  19686692.856    -6024540.916 7  -4634627.94822        20.500           1.938
  22485319.410    -9707783.020 6  -7137829.25121        12.000           0.469
  22879155.606    -5577061.957 5  -4066818.14121         8.500           0.313
 91  5 29 18  4 14.9960000  0  6G18G 2G11G19G16G 6
  20564230.129    -1111181.614 7   -853295.46822        23.750           2.125
  21576150.223   -14884751.829 6 -11531966.26221        18.500           1.406
  22178331.582   -11815301.983 6  -9092521.87921        18.000           0.844
  19681505.270    -6051781.542 7  -4655854.40822        20.500           1.938
  22476350.746    -9754912.118 5  -7174553.23821        11.500           0.469
  22865920.629    -5646606.155 5  -4121008.39621         8.250           0.375
 91  5 29 18  4 29.9960000  0  6G18G 2G11G19G16G 6
  20564949.418    -1107382.215 7   -850334.95522        23.250           2.000
  21561845.410   -14959913.116 6 -11590533.45321        18.000           1.313
  22168273.996   -11868135.116 6  -9133690.52721        17.500           0.813
  19676335.082    -6078962.745 7  -4677034.57622        20.500           1.906
  22467407.645    -9801900.280 5  -7211167.38321        11.250           0.469
  22852690.629    -5716125.988 5  -4175179.68021         8.250           0.438
 91  5 29 18  4 44.9960000  0  6G18G 2G11G19G16G 6
  20565691.121    -1103489.648 7   -847301.83122        23.250           2.031
  21547557.145   -15035007.253 6 -11649048.33021        18.500           1.406
  22158247.231   -11920830.952 6  -9174752.20121        18.500           0.938
  19671172.793    -6106086.755 7  -4698170.17422        20.750           1.969
  22458488.527    -9848749.906 5  -7247673.60921        10.750           0.469
  22839472.535    -5785623.912 5  -4229333.85921         9.250           0.375
 91  5 29 18  4 59.9960000  0  6G18G 2G11G19G16G 6
  20566449.723    -1099501.722 7   -844194.40922        23.250           2.125
  21533279.785   -15110031.927 6 -11707509.07321        18.250           1.438
  22148244.871   -11973387.036 6  -9215704.96421        18.500           0.875
  19666024.512    -6133151.361 7  -4719259.48322        20.250           2.000
  22449603.481    -9895459.004 5  -7284070.30621        10.500           0.375
  22826244.824    -5855097.685 5  -4283469.21021         8.500           0.375
 91  5 29 18  5 14.9960000  0  6G18G 2G11G19G16G 6
  20567229.332    -1095414.460 7   -841009.57422        23.750           2.063
  21519017.066   -15184982.789 6 -11765912.29921        18.000           1.344
  22138272.629   -12025798.942 6  -9256545.38821        18.500           0.938
  19660883.668    -6160152.520 7  -4740299.35122        20.500           2.031
  22440747.520    -9942023.171 5  -7320354.07121        11.000           0.500
  22813032.699    -5924543.230 5  -4337582.57021         8.250           0.375
 91  5 29 18  5 29.9960000  0  6G18G 2G11G19G16G 6
  20568023.434    -1091234.457 7   -837752.48022        23.250           2.063
  21504769.043   -15259866.105 6 -11824262.89521        18.250           1.438
  22128325.918   -12078072.800 6  -9297278.24821        18.500           0.875
  19655758.652    -6187096.547 7  -4761294.70022        20.500           1.938
  22431907.871    -9988448.795 5  -7356529.88121        11.250           0.375
  22799823.426    -5993966.972 5  -4391678.95921         8.000           0.375
 91  5 29 18  5 44.9960000  0  6G18G 2G11G19G16G 6
  20568835.395    -1086961.314 7   -834422.80422        23.000           2.000
  21490533.832   -15334681.181 6 -11882560.31221        18.750           1.375
  22118403.582   -12130207.699 6  -9337902.81321        17.750           0.875
  19650639.871    -6213982.925 7  -4782245.13122        20.500           1.875
  22423103.129   -10034734.847 6  -7392596.94521        12.750           0.438
  22786612.199    -6063368.231 5  -4445757.83021         8.500           0.406
 91  5 29 18  5 59.9960000  0  6G18G 2G11G19G16G 6
  20569668.309    -1082596.517 7   -831021.72022        23.500           2.063
  21476302.973   -15409429.266 6 -11940805.53021        18.000           1.438
  22108509.441   -12182204.895 6  -9378420.09821        18.250           0.813
  19645538.410    -6240812.987 6  -4803151.67522        19.500           1.906
  22414315.746   -10080883.019 5  -7428556.59221        11.500           0.406
  22773407.941    -6132748.465 5  -4499820.32221         8.500           0.469
 91  5 29 18  6 14.9960000  0  6G18G 2G11G19G16G 6
  20570516.566    -1078139.021 7   -827548.40822        23.750           1.969
  21462093.668   -15484108.900 6 -11998997.41321        18.250           1.375
  22098641.871   -12234062.893 6  -9418828.90421        17.750           0.906
  19640440.621    -6267585.380 7  -4824013.29022        20.750           2.031
  22405562.918   -10126891.910 5  -7464407.67521        11.000           0.406
  22760210.434    -6202106.392 5  -4553865.38221         8.500           0.406
 91  5 29 18  6 29.9960000  0  6G18G 2G11G19G16G 6
  20571382.746    -1073591.078 7   -824004.60922        24.000           1.969
  21447895.762   -15558721.780 6 -12057137.27921        18.250           1.375
  22088799.402   -12285783.318 6  -9459130.50121        18.250           0.875
  19635358.637    -6294301.964 7  -4844831.41122        20.250           1.875
  22396829.301   -10172763.452 5  -7500151.74921        10.500           0.438
  22747021.543    -6271443.989 5  -4607894.63521         8.500           0.438
 91  5 29 18  6 44.9960000  0  6G18G 2G11G19G16G 6
  20572262.731    -1068952.607 7   -820390.26822        23.250           2.031
  21433713.090   -15633267.770 6 -12115225.02521        18.750           1.469
  22078983.504   -12337365.811 6  -9499324.63421        17.500           0.938
  19630282.590    -6320962.571 7  -4865605.91222        20.750           1.906
  22388128.074   -10218497.314 5  -7535788.52121        10.500           0.469
  22733826.223    -6340761.097 5  -4661907.91821         8.250           0.344
 91  5 29 18  6 59.9960000  0  6G18G 2G11G19G16G 6
  20573166.051    -1064215.212 7   -816698.84022        24.000           1.969
  21419539.176   -15707738.171 6 -12173253.86021        18.500           1.375
  22069195.356   -12388801.653 6  -9539404.48321        18.000           0.906
  19625226.184    -6347558.863 6  -4886330.29622        19.500           1.938
  22379452.098   -10264084.869 5  -7571311.30021         9.750           0.406
  22720642.098    -6410049.211 5  -4715898.61221         8.500           0.344
 91  5 29 18  7 14.9960000  0  6G18G 2G11G19G16G 6
  20574085.598    -1059380.335 7   -812931.45022        23.000           1.938
  21405384.731   -15782134.178 6 -12231224.73721        18.750           1.406
  22059434.871   -12440091.957 6  -9579370.94321        17.500           0.813
  19620173.512    -6374092.201 7  -4907005.63522        21.000           1.906
  22370809.231   -10309527.424 5  -7606721.07521        11.500           0.531
  22707463.520    -6479309.749 5  -4769867.83021         8.500           0.406
 91  5 29 18  7 29.9960000  0  6G18G 2G11G19G16G 6
  20575024.137    -1054449.251 7   -809089.09322        23.000           1.969
  21391240.316   -15856456.669 6 -12289138.32021        19.000           1.406
  22049702.731   -12491237.510 6  -9619224.59921        17.750           0.875
  19615135.660    -6400563.497 7  -4927632.62222        20.500           1.813
  22362190.652   -10354826.088 5  -7642018.75621        10.750           0.438
  22694287.848    -6548543.706 5  -4823816.30221         8.500           0.281
 91  5 29 18  7 44.9960000  0  6G18G 2G11G19G16G 6
  20575981.324    -1049427.844 7   -805176.36422        23.250           2.000
  21377111.520   -15930711.088 6 -12346998.86422        19.250           1.500
  22039994.426   -12542243.525 6  -9658969.52421        17.250           0.938
  19610107.520    -6426978.197 7  -4948215.51122        20.500           1.938
  22353597.449   -10399986.256 5  -7677208.51421        10.500           0.500
  22681121.051    -6617756.655 5  -4877748.43721         8.750           0.344
 91  5 29 18  7 59.9960000  0  6G18G 2G11G19G16G 6
  20576951.856    -1044313.802 7   -801191.45322        23.000           1.938
  21362995.457   -16004895.078 6 -12404804.53421        19.000           1.438
  22030317.762   -12593107.450 6  -9698603.72621        17.750           0.938
  19605095.043    -6453333.959 7  -4968752.47022        20.250           1.844
  22345028.871   -10445005.565 5  -7712288.47621        11.000           0.531
  22667950.777    -6686946.317 5  -4931662.40521         8.750           0.406
 91  5 29 18  8 14.9960000  0  6G18G 2G11G19G16G 6
  20577945.270    -1039096.918 7   -797126.40522        23.250           1.969
  21348893.738   -16078997.907 6 -12462546.95821        19.250           1.469
  22020667.074   -12643818.842 6  -9738119.07921        17.250           0.969
  19600092.496    -6479620.465 7  -4989235.47222        21.000           1.844
  22336490.910   -10489873.491 5  -7747250.53021        10.750           0.438
  22654791.137    -6756102.337 5  -4985550.15921         8.250           0.438
 91  5 29 18  8 29.9960000  0  6G18G 2G11G19G16G 6
  20578955.184    -1033789.516 7   -792990.82322        23.000           1.906
  21334804.059   -16153031.533 6 -12520235.45821        19.250           1.438
  22011042.957   -12694389.305 6  -9777524.61521        17.500           0.969
  19595099.785    -6505849.624 7  -5009673.78122        20.500           1.906
  22327978.512   -10534602.129 5  -7782104.01221        10.750           0.438
  22641632.356    -6825236.664 5  -5039421.00221         8.000           0.344
 91  5 29 18  8 44.9960000  0  6G18G 2G11G19G16G 6
  20579985.621    -1028381.789 7   -788777.07122        24.000           1.906
  21320733.137   -16226985.776 6 -12577862.09621        19.250           1.469
  22001448.856   -12744808.589 6  -9816812.36021        17.250           0.969
  19590121.996    -6532011.399 7  -5030059.58922        20.750           1.844
  22319500.066   -10579181.515 5  -7816841.22321        11.000           0.375
  22628485.707    -6894339.284 5  -5093267.16621         8.000           0.438
 91  5 29 18  8 59.9960000  0  6G18G 2G11G19G16G 6
  20581031.215    -1022884.312 7   -784493.37422        23.750           1.906
  21306668.074   -16300871.294 6 -12635435.18522        18.750           1.531
  21991881.691   -12795087.187 6  -9855990.46321        17.000           0.938
  19585154.270    -6558116.465 7  -5050401.21122        21.000           1.781
  22311040.160   -10623622.044 5  -7851470.20921        10.750           0.438
  22615338.090    -6963420.835 5  -5147096.89921         8.500           0.375
 91  5 29 18  9 14.9960000  0  6G18G 2G11G19G16G 6
  20582095.363    -1017295.340 7   -780138.38322        23.500           1.813
  21292623.051   -16374685.813 6 -12692952.95621        18.750           1.438
  21982343.254   -12845222.734 6  -9895057.09921        17.750           1.031
  19580199.684    -6584162.638 7  -5070696.92922        21.000           1.875
  22302609.637   -10667921.417 5  -7885989.21121        11.000           0.344
  22602198.277    -7032479.272 5  -5200908.61321         8.750           0.406
 91  5 29 18  9 29.9960000  0  6G18G 2G11G19G16G 6
  20583177.926    -1011617.385 7   -775714.05322        23.500           1.938
  21278587.481   -16448431.441 6 -12750417.03921        18.750           1.469
  21972830.856   -12895217.347 6  -9934013.93421        18.250           1.031
  19575255.941    -6610152.205 6  -5090948.55622        19.500           1.875
  22294204.387   -10712082.135 5  -7920400.15221        11.250           0.438
  22589063.910    -7101516.869 5  -5254704.11021         8.750           0.344
 91  5 29 18  9 44.9960000  0  6G18G 2G11G19G16G 6
  20584275.387    -1005844.871 7   -771216.05722        23.250           1.844
  21264572.098   -16522102.598 6 -12807823.09622        19.250           1.594
  21963342.090   -12945065.241 6  -9972856.43621        17.500           0.938
  19570318.481    -6636079.740 7  -5111151.83722        20.750           1.813
  22285829.113   -10756098.660 5  -7954698.77921        11.000           0.281
  22575928.652    -7170528.204 5  -5308479.12521         8.500           0.375
 91  5 29 18  9 59.9960000  0  6G18G 2G11G19G16G 6
  20585389.574     -999980.045 7   -766646.12122        23.000           1.875
  21250567.348   -16595701.245 6 -12865172.65122        19.250           1.531
  21953883.371   -12994768.348 6 -10011586.11921        17.750           1.031
  19565398.895    -6661947.357 7  -5131308.43522        20.750           1.844
  22277478.746   -10799973.118 5  -7988886.66321        11.000           0.531
  22562796.934    -7239515.394 5  -5362235.32121         8.000           0.406
 91  5 29 18 10 14.9960000  0  6G18G 2G11G19G16G 6
  20586523.066     -994020.231 7   -762002.16622        22.750           1.906
  21236576.473   -16669223.968 6 -12922463.04222        19.250           1.563
  21944453.348   -13044323.077 6 -10050200.17721        17.750           1.063
  19560486.668    -6687751.562 7  -5151415.61322        21.000           1.875
  22269158.879   -10843701.978 5  -8022961.10321        11.250           0.469
  22549673.481    -7308475.156 5  -5415970.17721         8.500           0.500
 91  5 29 18 10 29.9960000  0  6G18G 2G11G19G16G 6
  20587675.285     -987968.893 7   -757286.89022        22.750           1.813
  21222598.590   -16742673.891 6 -12979696.71122        19.250           1.531
  21935051.082   -13093732.633 6 -10088701.10421        17.750           1.063
  19555593.027    -6713495.696 7  -5171475.98022        20.000           1.875
  22260862.613   -10887288.613 5  -8056924.70821        11.250           0.375
  22536564.098    -7377410.837 5  -5469686.24721         9.250           0.313
 91  5 29 18 10 44.9960000  0  6G18G 2G11G19G16G 6
  20588843.332     -981833.473 7   -752506.10222        22.750           1.844
  21208636.051   -16816058.432 6 -13036879.42421        19.250           1.469
  21925676.934   -13143004.180 6 -10127094.50021        18.250           1.000
  19550699.988    -6739187.242 7  -5191495.37322        21.250           1.813
  22252595.113   -10930740.497 5  -8090783.34321        10.750           0.469
  22523439.731    -7446329.794 5  -5523389.30121         8.500           0.344
 91  5 29 18 10 59.9960000  0  6G18G 2G11G19G16G 6
  20590030.004     -975603.475 7   -747651.60822        23.250           1.969
  21194683.613   -16889366.598 6 -13094002.63322        19.500           1.625
  21916326.504   -13192126.796 6 -10165371.84221        17.500           1.000
  19545822.645    -6764815.464 7  -5211465.42222        20.250           1.813
  22244353.348   -10974046.704 5  -8124528.43721        10.500           0.406
  22510336.246    -7515221.351 5  -5577070.99821         9.500           0.469
 91  5 29 18 11 14.9960000  0  6G18G 2G11G19G16G 6
  20591230.848     -969286.666 7   -742729.48222        22.000           1.875
  21180745.231   -16962605.959 6 -13151072.22222        19.250           1.625
  21907007.176   -13241107.821 6 -10203538.87321        18.500           1.000
  19540955.379    -6790388.068 7  -5231392.13422        20.500           1.844
  22236144.777   -11017214.982 5  -8158166.07521        11.000           0.531
  22497227.910    -7584093.255 5  -5630737.37821         9.000           0.375
 91  5 29 18 11 29.9960000  0  6G18G 2G11G19G16G 6
  20592447.473     -962880.536 7   -737737.75622        21.750           1.750
  21166823.590   -17035773.706 6 -13208086.01522        19.500           1.563
  21897713.707   -13289944.381 6 -10241593.31421        18.250           1.000
  19536103.223    -6815902.158 6  -5251273.25722        19.500           1.906
  22227953.777   -11060242.707 5  -8191694.18921        10.750           0.469
  22484129.043    -7652942.658 5  -5684386.25021         9.750           0.344
 91  5 29 18 11 44.9960000  0  6G18G 2G11G19G16G 6
  20593688.262     -956384.310 7   -732675.82222        22.750           1.781
  21152914.637   -17108868.561 6 -13265043.00122        19.750           1.594
  21888447.910   -13338634.974 6 -10279534.02121        17.750           1.031
  19531255.402    -6841356.720 7  -5271107.98222        20.500           1.906
  22219792.348   -11103128.265 5  -8225111.52121        11.000           0.500
  22471026.559    -7721768.359 5  -5738016.62721         9.250           0.375
 91  5 29 18 11 59.9960000  0  6G18G 2G11G19G16G 6
  20594938.762     -949797.933 7   -727543.64522        22.000           1.813
  21139018.481   -17181890.546 6 -13321943.20922        19.250           1.625
  21879211.660   -13387179.807 6 -10317361.14321        18.500           0.969
  19526423.887    -6866751.844 7  -5290896.39622        20.000           1.906
  22211659.520   -11145871.839 5  -8258418.20321        11.250           0.469
  22457936.348    -7790570.713 5  -5791628.82921         9.250           0.344
 91  5 29 18 12 14.9960000  0  6G18G 2G11G19G16G 6
  20596212.137     -943122.297 7   -722341.90822        22.250           1.875
  21125137.535   -17254839.979 6 -13378786.88122        19.750           1.625
  21869999.832   -13435579.202 6 -10355074.93521        18.250           1.125
  19521600.918    -6892088.045 7  -5310638.89522        20.500           1.813
  22203548.965   -11188474.319 5  -8291614.96621        11.000           0.375
  22444846.715    -7859350.238 5  -5845223.21521         9.250           0.344
 91  5 29 18 12 29.9960000  0  6G18G 2G11G19G16G 6
  20597500.231     -936357.596 7   -717070.77622        22.750           1.781
  21111268.191   -17327716.720 6 -13435573.91622        19.750           1.656
  21860819.152   -13483832.803 6 -10392675.13121        18.250           1.000
  19516794.590    -6917365.210 6  -5330335.39822        19.500           2.031
  22195469.941   -11230935.288 5  -8324701.44621        10.500           0.406
  22431761.082    -7928106.864 5  -5898799.76221         8.750           0.313
 91  5 29 18 12 44.9960000  0  6G18G 2G11G19G16G 6
  20598801.160     -929508.877 7   -711734.17822        22.250           1.813
  21097412.254   -17400525.591 6 -13492308.05622        19.250           1.656
  21851662.402   -13531945.213 6 -10430165.29121        18.000           0.969
  19511993.246    -6942588.197 7  -5349989.67522        20.500           1.969
  22187418.496   -11273259.502 5  -8357681.36221        11.250           0.438
  22418684.301    -7996845.389 5  -5952362.24321         9.250           0.469
 91  5 29 18 12 59.9960000  0  6G18G 2G11G19G16G 6
  20600122.520     -922569.637 7   -706327.04922        22.000           1.719
  21083574.098   -17473259.642 7 -13548983.90122        20.250           1.625
  21842534.465   -13579909.421 6 -10467539.97421        18.250           0.938
  19507204.684    -6967750.097 6  -5369596.36522        19.500           1.969
  22179389.965   -11315440.343 5  -8390549.58321        10.750           0.406
  22405612.684    -8065559.132 5  -6005905.36621         9.500           0.313
 91  5 29 18 13 14.9960000  0  6G18G 2G11G19G16G 6
  20601458.887     -915543.025 7   -700851.83122        22.250           1.781
  21069747.590   -17545921.850 7 -13605603.77222        20.250           1.719
  21833436.902   -13627728.335 6 -10504801.45221        18.500           1.094
  19502426.121    -6992854.042 7  -5389157.88122        20.000           1.875
  22171390.926   -11357480.893 5  -8423308.42621        10.500           0.500
  22392538.387    -8134251.131 5  -6059431.56721         9.250           0.281
 91  5 29 18 13 29.9960000  0  6G18G 2G11G19G16G 6
  20602814.262     -908427.548 7   -695307.36322        22.500           1.875
  21055932.176   -17618510.484 7 -13662166.30222        20.000           1.719
  21824364.215   -13675400.318 6 -10541948.42821        18.000           1.156
  19497667.684    -7017898.306 6  -5408672.90222        19.000           1.969
  22163415.848   -11399379.673 5  -8455956.83521        11.500           0.531
  22379474.043    -8202919.898 5  -6112939.66221        10.000           0.344
 91  5 29 18 13 44.9960000  0  6G18G 2G11G19G16G 6
  20604183.176     -901229.673 7   -689698.68122        22.250           1.844
  21042131.285   -17691031.562 6 -13718676.19822        19.750           1.656
  21815318.488   -13722931.184 6 -10578985.45221        18.000           0.969
  19492905.231    -7042889.261 7  -5428146.38622        20.000           1.938
  22155468.129   -11441142.452 5  -8488499.27721        11.750           0.438
  22366404.348    -8271571.396 5  -6166434.29721         9.500           0.406
 91  5 29 18 13 59.9950000  0  6G18G 2G11G19G16G 6
  20605569.874     -893944.582 7   -684022.04922        22.500           1.813
  21028346.913   -17763474.434 6 -13775125.16022        19.750           1.625
  21806300.960   -13770312.195 6 -10615905.70221        18.250           1.031
  19488164.913    -7067819.749 6  -5447572.74222        19.000           2.031
  22147550.444   -11482761.211 5  -8520929.49521        11.750           0.500
  22353345.280    -8340195.709 5  -6219907.77021         9.250           0.406
 91  5 29 18 14 14.9950000  0  6G18G 2G11G19G16G 6
  20606971.507     -886572.369 7   -678277.53222        22.000           1.844
  21014572.241   -17835849.888 6 -13831521.57622        19.250           1.813
  21797314.937   -13817550.455 6 -10652714.72121        18.750           1.094
  19483427.749    -7092693.937 7  -5466955.23422        20.000           2.000
  22139660.944   -11524242.482 5  -8553252.57821        11.250           0.531
  22340288.968    -8408802.977 5  -6273367.95121         9.500           0.500
 91  5 29 18 14 29.9950000  0  6G18G 2G11G19G16G 6
  20608391.241     -879114.613 7   -672466.36122        22.500           1.938
  21000815.194   -17908153.599 7 -13887862.09622        20.250           1.719
  21788351.085   -13864643.236 6 -10689410.36621        17.750           0.969
  19478707.554    -7117510.738 6  -5486293.00422        19.500           1.969
  22131788.905   -11565584.165 5  -8585466.88521        11.250           0.469
  22327243.116    -8477389.349 5  -6326811.83921         9.250           0.406
 91  5 29 18 14 44.9950000  0  6G18G 2G11G19G16G 6
  20609829.218     -871571.154 7   -666588.40622        22.750           1.844
  20987071.038   -17980384.912 7 -13944146.20722        20.500           1.781
  21779419.312   -13911589.780 6 -10725992.07321        18.250           1.031
  19473993.624    -7142269.622 7  -5505585.65222        20.000           1.906
  22123947.952   -11606785.738 5  -8617572.02921        10.750           0.375
  22314191.905    -8545954.274 5  -6380239.02521         9.250           0.406
 91  5 29 18 14 59.9950000  0  6G18G 2G11G19G16G 6
  20611278.882     -863943.599 7   -660644.92722        22.500           1.813
  20973338.108   -18052545.591 7 -14000375.27422        20.250           1.719
  21770510.773   -13958391.734 6 -10762461.09821        17.750           1.000
  19469293.655    -7166972.442 6  -5524834.60722        19.500           2.000
  22116132.093   -11647848.715 5  -8649569.15721        10.250           0.500
  22301145.726    -8614499.508 5  -6433650.85721         9.500           0.438
 91  5 29 18 15 14.9950000  0  6G18G 2G11G19G16G 6
  20612746.546     -856230.075 7   -654634.45522        22.250           1.813
  20959618.233   -18124633.483 7 -14056547.62122        20.000           1.719
  21761633.976   -14005046.911 6 -10798815.77021        18.000           1.031
  19464602.905    -7191617.222 7  -5544038.34022        20.000           2.000
  22108349.093   -11688771.288 6  -8681456.89521        12.000           0.469
  22288109.733    -8683023.165 5  -6487045.86621         9.250           0.469
 91  5 29 18 15 29.9950000  0  6G18G 2G11G19G16G 6
  20614229.507     -848435.003 7   -648560.44222        21.750           1.688
  20945918.749   -18196652.508 7 -14112666.30822        21.000           1.688
  21752783.843   -14051559.262 6 -10835059.15021        18.500           0.938
  19459925.819    -7216208.067 7  -5563200.04722        20.000           1.875
  22100585.429   -11729557.859 5  -8713238.64421        11.000           0.344
  22275066.507    -8751529.377 5  -6540427.30521         8.250           0.344
 91  5 29 18 15 44.9950000  0  6G18G 2G11G19G16G 6
  20615729.030     -840552.771 7   -642418.50622        21.750           1.781
  20932223.483   -18268596.805 7 -14168726.76222        20.250           1.719
  21743959.687   -14097922.907 6 -10871186.63921        18.250           1.094
  19455256.312    -7240739.128 7  -5582315.17522        20.500           2.063
  22092850.632   -11770202.264 5  -8744909.64421        11.000           0.438
  22262040.983    -8820012.291 5  -6593790.58521         9.000           0.469
 91  5 29 18 15 59.9950000  0  6G18G 2G11G19G16G 6
  20617244.999     -832584.710 7   -636209.69522        22.000           1.688
  20918548.187   -18340467.023 7 -14224729.49622        20.250           1.656
  21735166.007   -14144138.230 6 -10907198.56321        18.000           1.031
  19450601.062    -7265210.926 6  -5601384.10622        19.500           2.031
  22085142.601   -11810705.178 5  -8776470.35021        10.750           0.438
  22249012.538    -8888472.708 5  -6647136.31621         9.250           0.375
 91  5 29 18 16 14.9950000  0  6G18G 2G11G19G16G 6
  20618777.257     -824535.107 7   -629937.33922        21.750           1.719
  20904888.538   -18412267.473 7 -14280677.87322        21.250           1.750
  21726400.187   -14190209.349 6 -10943098.11821        17.500           1.063
  19445952.382    -7289627.764 7  -5620410.23722        20.250           2.000
  22077465.312   -11851071.041 5  -8807924.28821        11.000           0.344
  22235996.702    -8956914.927 5  -6700467.90421         9.500           0.375
 91  5 29 18 16 29.9950000  0  6G18G 2G11G19G16G 6
  20620327.960     -816398.855 7   -623597.47722        22.500           1.688
  20891235.554   -18483992.728 7 -14336567.64622        20.500           1.844
  21717660.507   -14236131.084 6 -10978881.27221        17.250           1.063
  19441318.468    -7313984.567 6  -5639389.56022        19.250           2.094
  22069805.773   -11891294.629 5  -8839267.35421        10.750           0.375
  22222973.038    -9025333.766 5  -6753781.23521         9.750           0.313
 91  5 29 18 16 44.9950000  0  6G18G 2G11G19G16G 6
  20621890.733     -808181.059 7   -617194.05722        21.750           1.688
  20877600.273   -18555647.172 7 -14392402.24522        20.250           1.844
  21708948.679   -14281907.902 6 -11014551.50421        17.500           1.031
  19436694.273    -7338286.079 7  -5658325.81122        20.250           2.000
  22062181.757   -11931380.844 5  -8870503.37921        11.750           0.406
  22209953.194    -9093733.950 5  -6807080.06321         9.500           0.469
 91  5 29 18 16 59.9950000  0  6G18G 2G11G19G16G 6
  20623472.007     -799876.359 7   -610722.93622        22.250           1.688
  20863977.648   -18627225.556 7 -14448177.57822        20.000           1.781
  21700266.335   -14327534.294 6 -11050104.52421        18.250           1.094
  19432082.437    -7362527.097 6  -5677214.92222        19.750           2.063
  22054580.288   -11971324.043 5  -8901627.96321        10.750           0.375
  22196946.726    -9162110.196 5  -6860360.22521        10.250           0.469
 91  5 29 18 17 14.9950000  0  6G18G 2G11G19G16G 6
  20625068.413     -791489.938 7   -604188.12922        22.000           1.813
  20850373.288   -18698732.701 7 -14503897.40222        20.750           1.813
  21691611.507   -14373014.937 6 -11085543.96521        18.250           1.094
  19427479.390    -7386712.489 7  -5696060.69822        20.250           1.969
  22047001.819   -12011129.386 5  -8932645.12521        10.750           0.406
  22183934.491    -9230467.408 5  -6913625.52521         9.750           0.406
 91  5 29 18 17 29.9950000  0  6G18G 2G11G19G16G 6
  20626677.069     -783019.091 7   -597587.53922        21.250           1.688
  20836779.593   -18770165.932 7 -14559559.62522        20.500           1.813
  21682987.241   -14418347.030 6 -11120867.67121        19.000           1.063
  19422888.898    -7410839.453 6  -5714860.92622        19.750           2.031
  22039458.218   -12050794.241 5  -8963552.81221        10.500           0.438
  22170929.296    -9298802.840 5  -6966873.89621         9.500           0.438
 91  5 29 18 17 44.9950000  0  6G18G 2G11G19G16G 6
  20628306.194     -774466.400 7   -590923.16922        21.250           1.688
  20823199.390   -18841527.158 7 -14615165.74422        20.500           1.813
  21674385.804   -14463532.569 6 -11156077.16421        18.000           1.125
  19418306.390    -7434910.050 7  -5733617.25022        20.000           1.938
  22031937.249   -12090320.798 5  -8994352.73821        11.000           0.375
  22157931.499    -9367118.748 5  -7020107.02421         9.500           0.500
 91  5 29 18 17 59.9950000  0  6G18G 2G11G19G16G 6
  20629949.155     -765829.192 7   -584192.93822        21.000           1.625
  20809636.241   -18912813.047 7 -14670713.15622        20.500           1.813
  21665816.093   -14508568.298 6 -11191169.92921        18.500           1.156
  19413738.905    -7458921.148 7  -5752327.20222        20.250           2.063
  22024444.804   -12129705.951 5  -9025042.48821        11.250           0.469
  22144934.171    -9435411.972 5  -7073322.50421         9.500           0.531
 91  5 29 18 18 14.9950000  0  6G18G 2G11G19G16G 6
  20631609.062     -757109.830 7   -577398.70522        21.500           1.719
  20796084.038   -18984025.929 7 -14726203.67622        20.750           1.781
  21657272.765   -14553456.324 6 -11226147.59421        18.000           1.063
  19409180.765    -7482875.047 7  -5770992.59422        20.500           2.000
  22016972.687   -12168951.834 5  -9055623.70121        11.750           0.469
  22131945.632    -9503684.971 5  -7126522.19821         9.250           0.500
 91  5 29 18 18 29.9950000  0  6G18G 2G11G19G16G 6
  20633285.710     -748307.932 7   -570540.14022        22.500           1.750
  20782544.819   -19055165.165 7 -14781636.81722        20.250           1.781
  21648762.108   -14598195.952 6 -11261009.63021        18.250           1.125
  19404633.069    -7506771.197 6  -5789612.98122        19.250           2.094
  22009530.038   -12208057.650 5  -9086095.78621        10.750           0.438
  22118957.835    -9571937.100 5  -7179705.64721         9.500           0.469
 91  5 29 18 18 44.9950000  0  6G18G 2G11G19G16G 6
  20634977.413     -739424.167 7   -563617.79522        22.250           1.625
  20769020.655   -19126231.057 7 -14837012.80322        20.250           1.844
  21640278.733   -14642787.326 6 -11295756.14221        18.500           1.063
  19400095.273    -7530609.997 7  -5808188.66122        20.000           1.938
  22002118.030   -12247024.157 5  -9116459.30221        11.250           0.406
  22105969.523    -9640168.705 5  -7232873.08321         9.250           0.563
 91  5 29 18 18 59.9950000  0  6G18G 2G11G19G16G 6
  20636678.265     -730458.517 7   -556631.65522        21.500           1.594
  20755513.757   -19197223.354 7 -14892331.44422        21.000           1.813
  21631818.601   -14687230.209 6 -11330386.94821        17.500           1.094
  19395570.726    -7554391.287 7  -5826719.54522        20.000           2.031
  21994726.218   -12285851.138 5  -9146714.11121        11.250           0.438
  22092984.062    -9708379.667 5  -7286024.45121         9.250           0.469
 91  5 29 18 19 14.9950000  0  6G18G 2G11G19G16G 6
  20638403.616     -721414.689 7   -549584.57722        21.250           1.656
  20742021.038   -19268145.353 7 -14947595.30322        21.250           1.844
  21623388.233   -14731528.063 6 -11364904.74821        18.250           1.031
  19391054.562    -7578118.728 7  -5845208.47722        20.250           2.000
  21987362.851   -12324542.407 5  -9176863.15821        10.750           0.406
  22080012.046    -9776573.717 5  -7339162.64521         9.500           0.531
 91  5 29 18 19 29.9950000  0  6G18G 2G11G19G16G 6
  20640139.015     -712288.386 7   -542473.23722        21.000           1.656
  20728533.679   -19338992.318 7 -15002800.69822        20.750           1.781
  21614987.905   -14775675.978 6 -11399305.70621        18.000           1.000
  19386555.663    -7601787.458 6  -5863651.65622        19.500           2.031
  21980028.944   -12363093.128 5  -9206902.69521        11.000           0.500
  22067041.194    -9844746.017 5  -7392283.88021        10.000           0.469
 91  5 29 18 19 44.9950000  0  6G18G 2G11G19G16G 6
  20641887.460     -703080.442 7   -535298.29422        20.250           1.563
  20715065.202   -19409764.901 7 -15057948.13622        20.500           1.875
  21606615.140   -14819674.352 6 -11433590.14821        18.250           0.906
  19382057.905    -7625398.258 7  -5882049.68422        20.500           1.969
  21972721.976   -12401503.922 6  -9236833.20721        12.000           0.406
  22054072.687    -9912897.337 5  -7445388.77121        10.250           0.406
 91  5 29 18 19 59.9950000  0  6G18G 2G11G19G16G 6
  20643656.491     -693798.331 7   -528065.54522        20.250           1.625
  20701610.499   -19480470.407 7 -15113043.30522        20.750           1.875
  21598270.093   -14863530.536 6 -11467763.78421        18.750           1.188
  19377573.280    -7648958.379 6  -5900408.23322        19.750           2.063
  21965437.991   -12439782.082 5  -9266660.36621        11.250           0.438
  22041104.968    -9981034.981 5  -7498482.99821        11.000           0.406
 91  5 29 18 20 14.9950000  0  6G18G 2G11G19G16G 6
  20645440.296     -684434.366 7   -520769.01421        20.750           1.469
  20688174.327   -19551100.670 7 -15168079.84022        21.000           1.781
  21589952.608   -14907236.394 6 -11501820.28321        18.500           1.125
  19373103.062    -7672459.752 7  -5918720.98522        20.250           2.000
  21958176.132   -12477919.941 5  -9296378.20421        11.000           0.406
  22028140.835   -10049151.006 5  -7551560.37621        10.250           0.469
 91  5 29 18 20 29.9950000  0  6G18G 2G11G19G16G 6
  20647235.499     -674988.694 7   -513408.81822        20.750           1.625
  20674744.312   -19621655.585 7 -15223057.66122        20.750           1.781
  21581664.616   -14950791.638 6 -11535759.42521        18.750           1.063
  19368641.616    -7695902.354 6  -5936987.96022        19.750           1.938
  21950946.194   -12515917.314 5  -9325986.55221        10.750           0.406
  22015186.343   -10117245.379 5  -7604620.92821        10.250           0.406
 91  5 29 18 20 44.9950000  0  6G18G 2G11G19G16G 6
  20649050.405     -665463.124 7   -505986.37022        20.750           1.656
  20661332.476   -19692136.568 7 -15277977.88122        20.750           2.000
  21573405.132   -14994197.743 6 -11569582.34521        18.500           1.000
  19364189.663    -7719287.624 7  -5955210.25922        20.250           1.875
  21943741.054   -12553775.833 5  -9355486.72221        11.250           0.531
  22002234.273   -10185319.708 5  -7657665.83221        10.500           0.469
 91  5 29 18 20 59.9950000  0  6G18G 2G11G19G16G 6
  20650875.015     -655857.767 7   -498501.76122        20.750           1.563
  20647935.523   -19762543.597 7 -15332840.46522        21.250           1.938
  21565173.812   -15037454.674 6 -11603289.03521        18.500           1.031
  19359752.437    -7742615.643 7  -5973387.94822        20.000           1.938
  21936564.632   -12591495.529 5  -9384878.71121        10.750           0.531
  21989284.296   -10253373.981 5  -7710695.11521        10.000           0.406
 91  5 29 18 21 14.9950000  0  6G18G 2G11G19G16G 6
  20652723.046     -646169.767 7   -490952.75721        20.750           1.375
  20634552.405   -19832873.334 7 -15387642.82422        21.000           1.938
  21556970.483   -15080558.869 6 -11636876.72221        18.250           0.969
  19355324.343    -7765883.208 7  -5991518.52522        20.500           1.906
  21929414.952   -12629073.216 5  -9414160.04121        11.250           0.406
  21976334.616   -10321404.961 5  -7763706.23821        10.000           0.406
 91  5 29 18 21 29.9950000  0  6G18G 2G11G19G16G 6
  20654577.624     -636405.807 6   -483344.53421        19.750           1.469
  20621182.851   -19903132.202 7 -15442389.96422        21.500           1.906
  21548795.085   -15123516.837 6 -11670350.44521        18.000           1.000
  19350906.148    -7789096.671 7  -6009606.95422        20.250           1.906
  21922290.460   -12666515.473 5  -9443335.85421        11.500           0.438
  21963392.054   -10389419.291 5  -7816704.37721        10.000           0.500
 91  5 29 18 21 44.9950000  0  6G18G 2G11G19G16G 6
  20656450.944     -626560.410 6   -475672.85221        19.500           1.406
  20607829.366   -19973314.475 7 -15497077.42822        21.750           1.969
  21540650.780   -15166322.781 6 -11703705.72121        18.750           1.063
  19346498.991    -7812250.464 7  -6027648.88322        20.250           1.969
  21915192.749   -12703816.519 5  -9472401.63021        11.250           0.406
  21950453.054   -10457411.230 5  -7869685.07021        10.000           0.531
 91  5 29 18 21 59.9950000  0  6G18G 2G11G19G16G 6
  20658341.562     -616630.481 6   -467935.33021        19.750           1.469
  20594488.155   -20043416.670 7 -15551702.47822        21.750           1.906
  21532532.249   -15208973.307 6 -11736939.88521        18.000           1.125
  19342110.187    -7835341.342 6  -6045641.79222        19.500           1.969
  21908116.460   -12740973.050 5  -9501354.79421        10.750           0.500
  21937524.983   -10525377.487 5  -7922645.76521        11.250           0.406
 91  5 29 18 22 14.9950000  0  6G18G 2G11G19G16G 6
  20660248.476     -606625.653 7   -460139.44021        20.500           1.438
  20581159.343   -20113447.951 7 -15606272.27522        21.000           1.906
  21524445.694   -15251477.543 6 -11770060.06621        19.000           1.156
  19337722.882    -7858378.453 7  -6063592.79122        20.250           1.906
  21901072.491   -12777994.638 5  -9530202.79921        11.000           0.406
  21924590.085   -10593327.433 5  -7975593.74521        10.000           0.469
 91  5 29 18 22 29.9950000  0  6G18G 2G11G19G16G 6
  20662167.358     -596540.421 7   -452280.88621        20.750           1.406
  20567848.148   -20183402.521 7 -15660782.29722        21.250           1.844
  21516385.312   -15293829.866 6 -11803061.86521        18.250           1.125
  19333351.671    -7881356.288 6  -6081497.61122        19.750           1.938
  21894056.429   -12814876.007 5  -9558941.53421        11.250           0.500
  21911667.640   -10661255.396 5  -8028524.61521        10.500           0.469
 91  5 29 18 22 44.9950000  0  6G18G 2G11G19G16G 6
  20664098.171     -586374.597 7   -444359.54321        20.000           1.469
  20554554.593   -20253279.930 7 -15715232.19722        22.000           2.031
  21508356.437   -15336029.599 6 -11835944.76921        18.750           1.094
  19328990.023    -7904274.308 7  -6099355.82922        20.500           1.938
  21887064.312   -12851616.520 5  -9587570.52921        11.000           0.438
  21898738.648   -10729161.043 5  -8081438.08621        10.250           0.406
 91  5 29 18 22 59.9950000  0  6G18G 2G11G19G16G 6
  20666049.507     -576133.518 6   -436379.54621        19.750           1.313
  20541269.358   -20323085.221 7 -15769625.89622        21.750           1.969
  21500353.327   -15378081.436 6 -11868712.43021        18.000           1.125
  19324643.757    -7927137.474 6  -6117171.28722        19.250           1.938
  21880100.648   -12888220.994 5  -9616093.51721        11.500           0.406
  21885825.366   -10797049.212 5  -8134337.93221        11.000           0.469
 91  5 29 18 23 14.9950000  0  6G18G 2G11G19G16G 6
  20668012.257     -565816.511 6   -428340.40421        19.750           1.344
  20527997.905   -20392817.563 7 -15823962.75822        21.500           1.938
  21492379.296   -15419984.800 6 -11901364.39621        18.250           1.063
  19320297.523    -7949945.194 7  -6134943.55922        20.000           2.000
  21873163.523   -12924688.877 5  -9644510.06821        11.750           0.500
  21872911.273   -10864919.426 5  -8187223.77821        11.000           0.563
 91  5 29 18 23 29.9950000  0  6G18G 2G11G19G16G 6
  20669988.171     -555426.538 7   -420244.40921        20.250           1.281
  20514738.030   -20462479.568 7 -15878244.81022        21.000           1.969
  21484434.288   -15461742.261 6 -11933902.65921        18.750           1.063
  19315972.280    -7972700.017 7  -6152674.60422        20.000           1.938
  21866243.210   -12961022.831 5  -9672822.26721        11.000           0.500
  21859996.194   -10932774.241 5  -8240097.63621        10.500           0.438
 91  5 29 18 23 44.9950000  0  6G18G 2G11G19G16G 6
  20671980.835     -544963.184 7   -412091.22721        20.000           1.375
  20501503.616   -20532070.528 7 -15932471.51222        22.250           2.000
  21476514.296   -15503352.961 6 -11966326.58521        18.000           1.156
  19311649.468    -7995401.367 7  -6170363.97922        20.250           2.094
  21859359.780   -12997222.167 5  -9701029.56721        11.250           0.469
  21847090.585   -11000613.072 5  -8292959.02621        10.500           0.531
 91  5 29 18 23 59.9950000  0  6G18G 2G11G19G16G 6
  20673985.858     -534422.347 6   -403877.65021        19.250           1.344
  20488273.937   -20601585.815 7 -15986639.22922        22.000           2.000
  21468628.249   -15544812.306 6 -11998632.55721        18.500           1.188
  19307343.999    -8018044.826 6  -6188008.24322        19.000           1.906
  21852498.226   -13033282.719 5  -9729128.72621        11.750           0.469
  21834183.226   -11068431.409 5  -8345804.45921        10.750           0.500
 91  5 29 18 24 14.9950000  0  6G18G 2G11G19G16G 6
  20676007.398     -523803.752 6   -395603.49721        19.000           1.344
  20475058.812   -20671024.873 7 -16040747.55622        22.000           1.938
  21460766.460   -15586119.807 6 -12030820.21021        18.500           1.063
  19303041.898    -8040629.990 7  -6205607.08922        20.500           1.875
  21845662.046   -13069204.245 5  -9757119.54721        11.250           0.500
  21821277.249   -11136228.970 5  -8398633.69321        10.750           0.531
 91  5 29 18 24 29.9950000  0  6G18G 2G11G19G16G 6
  20678043.452     -513108.562 6   -387269.65821        19.750           1.344
  20461859.991   -20740388.829 7 -16094797.36122        22.000           2.000
  21452933.093   -15627276.421 6 -12062890.29621        18.250           1.063
  19298757.241    -8063157.835 7  -6223161.25922        20.000           1.906
  21838853.046   -13104987.689 5  -9785002.76621        11.250           0.563
  21808379.327   -11204006.856 5  -8451447.61821        11.000           0.563
 91  5 29 18 24 44.9950000  0  6G18G 2G11G19G16G 6
  20680094.991     -502337.401 7   -378876.63121        20.000           1.313
  20448671.148   -20809677.590 7 -16148788.57822        21.500           1.969
  21445130.265   -15668282.267 6 -12094842.90521        19.000           1.031
  19294479.132    -8085628.450 7  -6240670.84322        20.500           1.938
  21832071.429   -13140633.173 5  -9812778.49221        11.250           0.531
  21795488.882   -11271765.190 5  -8504246.29421        11.250           0.438
 91  5 29 18 24 59.9950000  0  6G18G 2G11G19G16G 6
  20682158.351     -491487.393 6   -370422.15721        19.750           1.281
  20435501.515   -20878888.076 7 -16202718.79822        21.500           2.125
  21437357.304   -15709134.143 6 -12126675.52921        18.500           1.000
  19290216.858    -8108038.684 6  -6258133.37822        19.750           2.031
  21825309.929   -13176137.991 5  -9840444.62521        11.250           0.438
  21782598.804   -11339500.998 5  -8557027.43121        10.750           0.469
 91  5 29 18 25 14.9950000  0  6G18G 2G11G19G16G 6
  20684232.202     -480563.502 6   -361910.10221        18.500           1.344
  20422346.569   -20948025.040 7 -16256591.73022        21.750           2.094
  21429610.671   -15749836.590 6 -12158391.71721        19.000           1.063
  19285961.905    -8130393.271 7  -6275552.55622        20.750           2.000
  21818581.421   -13211506.682 5  -9868004.66221        11.500           0.500
  21769713.608   -11407218.895 5  -8609794.59621        10.750           0.563
 91  5 29 18 25 29.9940000  0  6G18G 2G11G19G16G 6
  20686331.455     -469565.206 7   -353340.07421        20.000           1.406
  20409206.494   -21017082.291 7 -16310402.53822        22.250           2.031
  21421895.385   -15790385.378 6 -12189988.17221        19.000           1.156
  19281719.018    -8152689.304 6  -6292926.10322        19.500           2.000
  21811877.135   -13246735.622 5  -9895455.83221        11.250           0.531
  21756826.752   -11474912.995 5  -8662543.22121        10.250           0.500
 91  5 29 18 25 44.9940000  0  6G18G 2G11G19G16G 6
  20688436.182     -458489.416 6   -344709.67421        19.250           1.344
  20396077.377   -21086067.065 7 -16364156.88022        21.750           2.156
  21414207.611   -15830783.929 6 -12221467.57621        18.750           1.094
  19277486.697    -8174927.993 7  -6310254.96522        20.750           1.938
  21805207.385   -13281827.636 5  -9922800.27221        11.250           0.469
  21743952.174   -11542590.491 5  -8715278.88421        10.750           0.563
 91  5 29 18 25 59.9940000  0  6G18G 2G11G19G16G 6
  20690559.783     -447343.926 6   -336024.95321        19.500           1.406
  20382964.135   -21154981.347 7 -16417856.29422        22.250           2.125
  21406548.619   -15871036.321 6 -12252833.07421        18.500           0.969
  19273269.994    -8197114.633 6  -6327543.29122        19.500           2.000
  21798547.893   -13316787.344 5  -9950041.62321        10.750           0.500
  21731073.158   -11610253.653 5  -8768003.40821        10.500           0.594
 91  5 29 18 26 14.9940000  0  6G18G 2G11G19G16G 6
  20692693.135     -436123.947 6   -327282.20221        19.250           1.250
  20369864.877   -21223820.217 7 -16471496.94922        21.750           2.219
  21398917.369   -15911137.486 6 -12284080.72721        18.750           1.125
  19269053.846    -8219244.251 7  -6344787.16422        20.750           2.031
  21791927.510   -13351610.123 5  -9977176.27621        11.500           0.438
  21718205.283   -11677897.597 5  -8820712.95621        11.250           0.594
 91  5 29 18 26 29.9940000  0  6G18G 2G11G19G16G 6
  20694841.572     -424831.303 6   -318482.81521        18.750           1.344
  20356778.408   -21292585.341 7 -16525080.12722        22.000           2.125
  21391313.533   -15951088.927 6 -12315211.71021        18.500           1.125
  19264856.283    -8241318.444 6  -6361987.86222        19.250           1.938
  21785322.143   -13386297.298 6 -10004205.27121        12.250           0.469
  21705332.533   -11745523.983 5  -8873408.80321        10.750           0.594
 91  5 29 18 26 44.9940000  0  6G18G 2G11G19G16G 6
  20697004.252     -413461.364 6   -309623.20321        18.750           1.156
  20343708.729   -21361271.726 7 -16578601.96522        21.750           2.219
  21383740.791   -15990885.608 6 -12346222.10621        18.250           1.000
  19260664.479    -8263332.115 7  -6379141.37222        21.000           2.031
  21778748.018   -13420844.027 5 -10031124.82921        11.250           0.500
  21692469.518   -11813127.864 5  -8926087.13621        11.000           0.656
 91  5 29 18 26 59.9940000  0  6G18G 2G11G19G16G 6
  20699183.377     -402015.813 6   -300704.67621        19.000           1.281
  20330655.705   -21429880.655 7 -16632063.43722        22.500           2.219
  21376196.947   -16030528.851 6 -12377112.94521        18.500           1.125
  19256486.916    -8285286.700 6  -6396248.83022        19.750           1.969
  21772200.143   -13455251.938 5 -10057936.19621        11.500           0.469
  21679604.143   -11880710.645 5  -8978749.01921        10.250           0.500
 91  5 29 18 27 14.9940000  0  6G18G 2G11G19G16G 6
  20701377.033     -390494.347 6   -291726.98821        18.750           1.281
  20317611.174   -21498411.587 7 -16685464.13422        22.000           2.156
  21368682.916   -16070018.062 6 -12407883.75421        18.250           1.063
  19252318.291    -8307181.707 7  -6413309.89322        20.500           2.000
  21765679.229   -13489520.423 5 -10084638.93621        11.500           0.406
  21666753.244   -11948271.832 5  -9031394.07921        11.750           0.500
 91  5 29 18 27 29.9940000  0  6G18G 2G11G19G16G 6
  20703581.604     -378899.683 6   -282692.28121        19.000           1.281
  20304582.658   -21566866.547 7 -16738805.63622        21.500           2.188
  21361197.494   -16109355.352 6 -12438536.18521        18.500           1.125
  19248164.932    -8329019.460 7  -6430326.33922        20.500           1.969
  21759181.486   -13523651.913 5 -10111234.92021        11.500           0.469
  21653902.424   -12015813.664 5  -9084024.04721        11.250           0.656
 91  5 29 18 27 44.9940000  0  6G18G 2G11G19G16G 6
  20705803.768     -367232.175 6   -273600.78621        19.000           1.313
  20291573.572   -21635245.372 7 -16792087.80922        22.000           2.250
  21353741.729   -16148540.659 6 -12469070.18721        18.750           1.125
  19244019.494    -8350800.048 7  -6447298.23122        20.750           2.031
  21752714.994   -13557646.335 5 -10137724.10921        11.500           0.469
  21641053.385   -12083336.231 5  -9136639.00521        11.500           0.656
 91  5 29 18 27 59.9940000  0  6G18G 2G11G19G16G 6
  20708032.721     -355494.017 6   -264454.25321        18.000           1.281
  20278574.885   -21703550.643 7 -16845312.66522        22.250           2.219
  21346312.768   -16187576.475 6 -12499487.70921        19.000           1.031
  19239886.268    -8372525.865 7  -6464227.45522        20.000           1.938
  21746270.557   -13591506.493 5 -10164108.68221        11.500           0.531
  21628204.088   -12150842.019 5  -9189240.88521        11.250           0.594
 91  5 29 18 28 14.9940000  0  6G18G 2G11G19G16G 6
  20710282.893     -343683.437 6   -255251.28621        18.750           1.281
  20265590.463   -21771780.152 7 -16898478.48522        22.000           2.156
  21338914.268   -16226460.544 6 -12529786.97821        19.250           1.125
  19235761.846    -8394194.726 7  -6481112.30022        20.250           2.000
  21739853.596   -13625230.534 5 -10190387.16921        10.750           0.438
  21615360.963   -12218328.959 5  -9241828.08521        11.500           0.594
 91  5 29 18 28 29.9940000  0  6G18G 2G11G19G16G 6
  20712547.697     -331801.231 6   -245992.52021        18.750           1.219
  20252621.088   -21839934.347 7 -16951585.62522        22.250           2.188
  21331542.416   -16265193.217 6 -12559968.27721        19.000           1.188
  19231648.768    -8415807.151 7  -6497953.16122        20.000           2.031
  21733458.190   -13658818.678 5 -10216559.78221        10.750           0.594
  21602526.236   -12285797.517 5  -9294400.94321        11.500           0.563
 91  5 29 18 28 44.9940000  0  6G18G 2G11G19G16G 6
  20714818.682     -319847.377 6   -236677.90221        18.250           1.281
  20239665.682   -21908012.845 7 -17004633.77922        21.750           2.344
  21324202.002   -16303774.067 6 -12590031.27821        19.500           1.094
  19227547.447    -8437362.702 7  -6514749.70922        20.500           2.000
  21727095.502   -13692270.861 5 -10242626.43721        11.500           0.500
  21589689.705   -12353247.295 5  -9346959.18021        11.250           0.656
 91  5 29 18 28 59.9940000  0  6G18G 2G11G19G16G 6
  20717107.252     -307826.878 6   -227311.35621        18.500           1.281
  20226725.221   -21976020.135 7 -17057626.44522        22.500           2.219
  21316886.205   -16342207.813 6 -12619979.64921        19.000           1.156
  19223455.908    -8458866.176 6  -6531505.67522        19.750           2.094
  21720755.072   -13725591.860 5 -10268590.86521        10.750           0.531
  21576852.260   -12420683.201 5  -9399506.61621        10.750           0.625
 91  5 29 18 29 14.9940000  0  6G18G 2G11G19G16G 6
  20719408.268     -295733.068 6   -217887.69521        18.500           1.250
  20213797.658   -22043949.516 7 -17110558.40122        22.000           2.344
  21309602.096   -16380487.514 6 -12649807.97821        19.250           1.063
  19219373.432    -8480310.685 7  -6548215.69522        20.750           2.031
  21714442.330   -13758775.130 5 -10294447.99021        10.750           0.625
  21564026.135   -12488098.369 5  -9452037.88921        11.000           0.563
 91  5 29 18 29 29.9940000  0  6G18G 2G11G19G16G 6
  20721725.744     -283565.370 6   -208406.47521        18.750           1.281
  20200885.627   -22111799.783 7 -17163428.71022        22.250           2.188
  21302348.229   -16418612.019 6 -12679515.39021        19.000           1.094
  19215304.893    -8501695.222 6  -6564878.98722        19.750           2.000
  21708150.565   -13791819.422 5 -10320196.79621        10.500           0.563
  21551197.650   -12555491.685 5  -9504552.13921        11.000           0.438
 91  5 29 18 29 44.9940000  0  6G18G 2G11G19G16G 6
  20724051.518     -271326.546 6   -198869.80621        18.000           1.250
  20187988.502   -22179573.739 7 -17216239.55722        22.000           2.281
  21295121.307   -16456584.143 6 -12709104.05321        18.500           1.063
  19211245.041    -8523022.475 7  -6581497.62822        20.500           2.063
  21701893.072   -13824727.762 5 -10345839.67821        11.500           0.531
  21538382.650   -12622866.068 5  -9557051.63521        11.750           0.438
 91  5 29 18 29 59.9940000  0  6G18G 2G11G19G16G 6
  20726396.049     -259019.235 6   -189279.77721        18.750           1.250
  20175108.697   -22247273.560 7 -17268992.63722        22.500           2.250
  21287924.815   -16494405.941 6 -12738575.58021        18.500           1.094
  19207198.533    -8544294.644 7  -6598073.36122        20.000           2.063
  21695653.729   -13857502.267 5 -10371378.29521        11.250           0.469
  21525564.361   -12690223.706 5  -9609538.07521        11.750           0.531
 91  5 29 18 30 14.9940000  0  6G18G 2G11G19G16G 6
  20728752.596     -246641.474 6   -179634.87021        18.750           1.156
  20162238.268   -22314897.093 7 -17321686.27022        22.500           2.344
  21280755.604   -16532075.422 6 -12767928.41921        17.750           1.188
  19203159.065    -8565509.838 7  -6614604.68922        20.000           2.063
  21689445.650   -13890141.177 5 -10396811.24321        11.250           0.438
  21512749.104   -12757562.554 6  -9662009.86821        12.000           0.563
 91  5 29 18 30 29.9940000  0  6G18G 2G11G19G16G 6
  20731119.236     -234194.393 6   -169935.92421        18.250           1.219
  20149385.408   -22382444.870 7 -17374320.87522        22.250           2.188
  21273617.658   -16569593.206 6 -12797163.04621        18.250           1.188
  19199137.018    -8586668.628 7  -6631092.07122        20.750           2.031
  21683259.611   -13922645.246 5 -10422139.10721        10.750           0.625
  21499936.166   -12824883.247 5  -9714467.51521        11.750           0.531
 91  5 29 18 30 44.9940000  0  6G18G 2G11G19G16G 6
  20733502.072     -221672.509 6   -160178.71221        18.000           1.125
  20136545.682   -22449911.218 7 -17426892.03122        22.000           2.281
  21266505.315   -16606953.648 6 -12826275.07521        18.250           1.063
  19195120.619    -8607765.470 7  -6647531.18022        20.750           2.063
  21677103.611   -13955008.999 5 -10447357.63521        11.000           0.469
  21487127.783   -12892180.354 5  -9766906.80121        11.500           0.656
 91  5 29 18 30 59.9940000  0  6G18G 2G11G19G16G 6
  20735897.807     -209082.353 6   -150368.27421        17.000           1.094
  20123723.986   -22517302.316 7                        23.000
  21259425.900   -16644162.798 6 -12855269.21521        18.000           1.094
  19191119.900    -8628806.533 6  -6663926.83022        19.500           1.969
  21670966.932   -13987238.565 5 -10472471.59121        11.750           0.469
  21474331.572   -12959459.908 6                        12.250
 91  5 29 18 31 14.9940000  0  6G18G 2G11G19G16G 6
  20738309.627     -196424.435 6   -140505.06321        17.750           1.094
  20110908.908   -22584618.579 7                        22.250
  21252375.861   -16681221.019 6 -12884145.74821        18.750           1.125
  19187123.565    -8649792.215 7  -6680279.31922        20.750           2.063
  21664857.846   -14019334.873 5 -10497481.74621        11.250           0.531
  21461527.143   -13026722.512 5                        11.500
 91  5 29 18 31 29.9940000  0  6G18G 2G11G19G16G 6
  20740727.799     -183700.588 6   -130590.48121        17.500           1.063
  20098115.752   -22651861.222 7                        22.500
  21245350.807   -16718129.594 6 -12912905.66921        18.500           1.094
  19183139.963    -8670723.868 6  -6696589.71522        19.750           2.031
  21658776.541   -14051299.219 5 -10522389.06521        11.000           0.406
  21448734.385   -13093969.494 6                        12.250
 91  5 29 18 31 44.9940000  0  6G18G 2G11G19G16G 6
  20743161.494     -170906.379 6   -120621.05121        16.750           1.094
  20085339.533   -22719025.778 7                        23.000
  21238357.057   -16754884.263 6 -12941545.66621        19.000           1.094
  19179167.549    -8691597.125 7  -6712854.60222        20.500           2.000
  21652717.025   -14083127.173 5 -10547190.09321        10.750           0.594
  21435936.268   -13161196.508 6                        12.000
 91  5 29 18 31 59.9940000  0  6G18G 2G11G19G16G 6
  20745607.955     -158047.340 6   -110601.11921        17.000           1.156
  20072567.221   -22786117.223 7 -17688870.59722        22.500           2.281
  21231391.447   -16791489.796 6 -12970069.44721        19.000           1.156
  19175209.752    -8712417.073 6  -6729077.94522        19.500           2.063
  21646685.674   -14114823.779 5 -10571888.77421        11.000           0.531
  21423150.400   -13228408.508 6 -10028902.62321        12.250           0.563
 91  5 29 18 32 14.9940000  0  6G18G 2G11G19G16G 6
  20748071.307     -145119.533 6   -100527.60821        17.750           1.125
  20059815.713   -22853131.562 7 -17741089.54922        22.000           2.219
  21224455.877   -16827942.074 6 -12998473.82521        19.750           1.125
  19171255.611    -8733179.477 7  -6745256.45622        20.250           2.063
  21640682.096   -14146385.194 5 -10596482.10621        11.250           0.688
  21410363.486   -13295601.498 6 -10081260.76721        12.000           0.625
 91  5 29 18 32 29.9940000  0  6G18G 2G11G19G16G 6
  20750542.213     -132121.876 6    -90399.65321        17.250           1.000
  20047076.971   -22920067.300 7 -17793247.24122        22.250           2.344
  21217547.424   -16864239.923 6 -13026757.86121        19.250           1.125
  19167315.799    -8753883.042 7  -6761389.12222        20.000           2.125
  21634702.315   -14177810.536 6 -10620969.39021        12.000           0.531
  21397582.065   -13362774.217 5 -10133603.11921        11.750           0.656
 91  5 29 18 32 44.9940000  0  6G18G 2G11G19G16G 6
  20753031.275     -119061.467 6    -80222.80721        17.000           1.094
  20034352.846   -22986931.063 7 -17845348.84222        22.000           2.313
  21210668.635   -16900389.989 6 -13054926.73621        19.000           1.094
  19163385.197    -8774534.470 7  -6777481.15422        20.250           2.156
  21628747.588   -14209106.489 6 -10645355.88321        12.000           0.531
  21384801.440   -13429933.392 6 -10185934.91021        12.250           0.469
 91  5 29 18 32 59.9940000  0  6G18G 2G11G19G16G 6
  20755528.377     -105932.090 6    -69992.23221        17.000           1.000
  20021644.119   -23053716.445 7 -17897389.38122        22.000           2.313
  21203818.986   -16936385.762 6 -13082975.38021        18.750           1.094
  19159467.916    -8795127.365 7  -6793527.58322        20.000           2.094
  21622818.057   -14240266.793 5 -10669636.66821        11.750           0.531
  21372027.424   -13497072.645 6 -10238251.18321        12.250           0.594
 91  5 29 18 33 14.9940000  0  6G18G 2G11G19G16G 6
  20758037.494      -92738.329 6    -59711.48421        17.000           1.094
  20008952.619   -23120427.694 7 -17949372.13822        22.500           2.281
  21196998.104   -16972231.356 6 -13110907.00521        19.000           1.125
  19155557.947    -8815665.962 7  -6809531.70222        20.250           2.156
  21616911.463   -14271295.833 5 -10693815.15821        11.250           0.594
  21359250.361   -13564196.139 6 -10290555.17521        12.250           0.563
 91  5 29 18 33 29.9940000  0  6G18G 2G11G19G16G 6
  20760562.729      -79474.718 6    -49376.28521        17.000           1.094
  19996272.830   -23187059.012 7 -18001292.62722        22.500           2.219
  21190205.893   -17007921.195 6 -13138717.26421        19.000           1.094
  19151662.080    -8836144.567 7  -6825489.06322        20.000           2.063
  21611032.674   -14302187.933 5 -10717886.93621        11.250           0.406
  21346481.322   -13631298.364 6 -10342842.60721        12.500           0.625
 91  5 29 18 33 44.9940000  0  6G18G 2G11G19G16G 6
  20763096.104      -66147.150 6    -38991.27821        16.250           0.875
  19983605.463   -23253616.101 7 -18053155.25922        22.500           2.313
  21183441.854   -17043460.898 6 -13166410.53521        19.000           1.250
  19147772.838    -8856568.837 7  -6841404.09322        20.000           2.250
  21605179.354   -14332948.949 5 -10741856.58621        11.750           0.594
  21333719.244   -13698384.977 6 -10395117.85421        12.750           0.625
 91  5 29 18 33 59.9940000  0  6G18G 2G11G19G16G 6
  20765648.518      -52754.354 6    -28555.41121        16.500           1.156
  19970956.260   -23320097.263 7 -18104958.73922        22.500           2.406
  21176708.830   -17078848.755 6 -13193985.49021        19.500           1.188
  19143899.408    -8876937.139 7  -6857275.51022        20.750           2.063
  21599350.416   -14363577.144 5 -10765722.73621        11.500           0.500
  21320952.385   -13765454.267 6 -10447379.62121        12.250           0.750
 91  5 29 18 34 14.9940000  0  6G18G 2G11G19G16G 6
  20768209.604      -39297.114 6    -18069.36521        17.500           1.000
  19958318.525   -23386503.014 7 -18156703.45622        22.500           2.406
  21170002.635   -17114085.376 6 -13221442.58421        18.500           1.188
  19140032.854    -8897250.052 7  -6873103.76922        20.250           2.063
  21593544.283   -14394073.637 5 -10789486.26521        10.250           0.688
  21308196.229   -13832506.918 6 -10499628.41121        12.500           0.563
 91  5 29 18 34 29.9940000  0  6G18G 2G11G19G16G 6
  20770780.432      -25770.939 6     -7529.58721        16.500           1.156
  19945695.502   -23452828.505 7 -18208385.63422        22.250           2.375
  21163328.096   -17149165.875 6 -13248778.02621        19.000           1.250
  19136184.322    -8917502.693 6  -6888885.05622        19.500           2.156
  21587770.221   -14424433.707 5 -10813143.47621        10.750           0.500
  21295436.861   -13899538.105 6 -10551860.47721        12.500           0.563
 91  5 29 18 34 44.9940000  0  6G18G 2G11G19G16G 6
  20773366.565      -12180.023 6      3060.64821        16.250           1.000
  19933090.799   -23519077.684 7 -18260008.34222        23.000           2.313
  21156683.510   -17184094.142 6 -13275994.85821        19.250           1.063
  19132336.338    -8937699.343 7  -6904622.72122        20.250           2.000
  21582019.635   -14454661.082 5 -10836697.30621        11.000           0.438
  21282685.565   -13966551.847 6 -10604078.95121        12.000           0.625
 91  5 29 18 34 59.9940000  0  6G18G 2G11G19G16G 6
  20775970.877        1476.483 6     13701.97121        17.750           1.063
  19920501.963   -23585249.500 7 -18311570.77722        23.000           2.406
  21150063.697   -17218869.166 6 -13303092.26521        18.750           1.219
  19128507.002    -8957838.824 7  -6920315.84422        20.000           2.125
  21576293.885   -14484754.920 5 -10860147.08721        10.750           0.531
  21269934.986   -14033547.136 6 -10656283.06521        12.250           0.625
 91  5 29 18 35 14.9940000  0  6G18G 2G11G19G16G 6
  20778579.494       15196.546 6     24392.83121        17.250           1.063
  19907921.900   -23651345.499 7 -18363074.13022        22.750           2.375
  21143475.158   -17253492.591 6 -13330071.56021        19.250           1.281
  19124679.065    -8977922.677 6  -6935965.60522        19.750           2.063
  21570593.440   -14514717.237 5 -10883494.37121        10.750           0.531
  21257190.705   -14100525.697 5 -10708474.11621        11.750           0.594
 91  5 29 18 35 29.9940000  0  6G18G 2G11G19G16G 6
  20781200.744       28982.303 6     35134.87821        16.250           0.969
  19895357.244   -23717363.234 7 -18414516.48922        23.000           2.469
  21136915.205   -17287962.013 6 -13356930.84321        19.250           1.125
  19120875.283    -8997948.503 6  -6951570.15622        19.500           2.031
  21564914.330   -14544545.990 5 -10906737.59721        10.250           0.531
  21244449.424   -14167485.002 6 -10760650.20621        12.750           0.563
 91  5 29 18 35 44.9940000  0  6G18G 2G11G19G16G 6
  20783834.963       42829.535 6     45924.81521        16.750           1.031
  19882806.565   -23783306.705 7 -18465900.99422        22.750           2.469
  21130384.822   -17322281.468 6 -13383673.26321        19.000           1.188
  19117069.611    -9017920.452 7  -6967132.73422        20.000           2.156
  21559259.932   -14574245.242 5 -10929879.87821        10.250           0.469
  21231712.752   -14234429.250 6 -10812814.51521        12.500           0.594
 91  5 29 18 35 59.9940000  0  6G18G 2G11G19G16G 6
  20786486.916       56744.169 6     56767.26721        17.750           0.938
  19870278.002   -23849169.666 7 -18517222.76223        23.250           2.500
  21123884.627   -17356444.717 6 -13410293.98121        19.000           1.156
  19113283.307    -9037832.318 6  -6982648.48722        19.750           2.031
  21553633.322   -14603808.633 5 -10952916.31921        10.750           0.500
  21218975.846   -14301352.202 6 -10864962.25121        12.250           0.656
 91  5 29 18 36 14.9940000  0  6G18G 2G11G19G16G 6
  20789144.229       70720.203 6     67657.60121        15.750           1.188
  19857757.385   -23914957.598 7 -18568486.05723        23.000           2.531
  21117410.502   -17390457.277 6 -13436797.26221        18.750           1.125
  19109503.338    -9057689.594 7  -6998121.70322        20.750           2.188
  21548037.666   -14633241.976 5 -10975851.42721        11.500           0.594
  21206244.815   -14368259.459 6 -10917097.73821        12.500           0.594
 91  5 29 18 36 29.9940000  0  6G18G 2G11G19G16G 6
  20791814.041       84754.463 6     78593.26021        16.750           0.969
  19845252.900   -23980673.583 7 -18619693.30123        23.000           2.500
  21110969.908   -17424322.141 6 -13463185.47121        18.750           1.156
  19105737.713    -9077495.397 6  -7013554.81122        19.250           2.094
  21542457.611   -14662548.676 5 -10998687.85321        11.250           0.656
  21193513.674   -14435154.059 6 -10969223.38021        12.500           0.656
 91  5 29 18 36 44.9930000  0  6G18G 2G11G19G16G 6
  20794497.005       98854.034 6     89579.83621        17.250           1.031
  19832762.724   -24046304.872 7 -18670834.54022        23.500           2.438
  21104553.638   -17458028.861 6 -13489450.43621        18.500           1.188
  19101977.677    -9097240.148 7  -7028940.34622        20.500           2.094
  21536906.638   -14691718.776 5 -11021417.82921        10.750           0.469
  21180788.747   -14502023.325 6 -11021329.27521        12.000           0.531
 91  5 29 18 36 59.9930000  0  6G18G 2G11G19G16G 6
  20797196.685      113018.455 6    100616.94821        16.750           1.000
  19820286.302   -24111862.152 7 -18721918.11023        23.250           2.656
  21098165.896   -17491583.952 6 -13515597.24621        18.250           1.094
  19098230.560    -9116928.271 7  -7044281.76222        20.250           2.094
  21531379.114   -14720758.087 5 -11044045.89021        10.750           0.469
  21168065.013   -14568878.115 5 -11073423.89321        11.750           0.688
 91  5 29 18 37 14.9930000  0  6G18G 2G11G19G16G 6
  20799899.224      127243.853 6    111701.56521        16.000           1.063
  19807827.630   -24177343.343 7 -18772942.39123        23.250           2.594
  21091813.224   -17524987.460 6 -13541625.95721        19.500           1.125
  19094493.114    -9136560.926 7  -7059579.94222        20.000           2.063
  21525879.044   -14749667.002 5 -11066572.35221        11.500           0.469
  21155351.286   -14635716.432 6 -11125505.69021        12.000           0.656
 91  5 29 18 37 29.9930000  0  6G18G 2G11G19G16G 6
  20802620.982      141528.723 6    122832.52121        17.250           1.125
  19795381.310   -24242750.035 7 -18823908.62223        23.500           2.563
  21085482.974   -17558240.949 6 -13567537.76221        18.750           1.125
  19090770.677    -9156139.657 6  -7074836.10922        19.500           2.125
  21520406.958   -14778447.375 5 -11088998.65921        11.500           0.594
  21142635.372   -14702539.905 6 -11177575.90021        12.250           0.594
 91  5 29 18 37 44.9930000  0  6G18G 2G11G19G16G 6
  20805349.232      155875.376 6    134011.61621        17.000           1.000
  19782946.982   -24308079.862 7 -18874814.95623        23.000           2.594
  21079182.911   -17591342.019 6 -13593330.80021        19.250           1.063
  19087053.763    -9175662.131 7  -7090048.43722        20.500           2.063
  21514949.989   -14807096.951 5 -11111323.02621        10.750           0.563
  21129923.622   -14769346.125 6 -11229632.66721        12.250           0.719
 91  5 29 18 37 59.9930000  0  6G18G 2G11G19G16G 6
  20808092.903      170282.974 6    145238.20421        16.750           1.031
  19770531.435   -24373333.235 7 -18925661.71623        23.500           2.563
  21072913.685   -17624291.246 6 -13619005.51721        18.500           1.000
  19083349.021    -9195128.935 6  -7105217.39422        19.750           2.125
  21509523.732   -14835616.508 5 -11133546.09321        11.000           0.500
  21117214.669   -14836135.623 6 -11281676.40421        12.250           0.656
 91  5 29 18 38 14.9930000  0  6G18G 2G11G19G16G 6
  20810841.396      184753.963 6    156514.18021        16.250           0.969
  19758127.153   -24438507.129 7 -18976446.54623        23.000           2.500
  21066673.403   -17657085.614 6 -13644559.57021        19.250           1.125
  19079655.302    -9214537.039 7  -7120340.60222        20.250           2.094
  21504123.575   -14864003.230 5 -11155665.63621        11.500           0.594
  21104507.450   -14902905.409 6 -11333704.78721        12.500           0.719
 91  5 29 18 38 29.9930000  0  6G18G 2G11G19G16G 6
  20813614.130      199288.662 6    167839.81221        17.250           1.094
  19745742.732   -24503601.149 7 -19027169.14123        23.250           2.625
  21060462.692   -17689724.613 6 -13669992.54821        18.750           1.094
  19075978.317    -9233885.908 6  -7135417.65922        19.000           2.063
  21498745.997   -14892256.785 5 -11177681.44421        11.000           0.406
  21091808.138   -14969655.072 6 -11385717.48121        13.000           0.719
 91  5 29 18 38 44.9930000  0  6G18G 2G11G19G16G 6
  20816387.763      213883.587 6    179212.36521        16.500           0.813
  19733370.028   -24568618.235 7 -19077831.78123        23.000           2.656
  21054281.044   -17722211.458 6 -13695306.97321        19.000           1.031
  19072302.552    -9253178.599 7  -7150450.93922        20.250           2.063
  21493395.169   -14920380.429 5 -11199595.99821        11.250           0.500
  21079105.685   -15036387.669 6 -11437716.88821        12.500           0.656
 91  5 29 18 38 59.9930000  0  6G18G 2G11G19G16G 6
  20819177.083      228536.738 6    190630.31821        16.500           1.031
  19721011.396   -24633560.205 7 -19128435.89523        23.250           2.656
  21048127.528   -17754547.972 6 -13720504.24121        19.000           1.125
  19068644.966    -9272417.149 6  -7165442.02622        19.000           2.063
  21488069.403   -14948375.935 5 -11221410.71021        11.250           0.438
  21066409.903   -15103105.116 6 -11489704.46721        12.750           0.656
 91  5 29 18 39 14.9930000  0  6G18G 2G11G19G16G 6
  20821978.067      243251.890 6    202096.53521        17.000           0.875
  19708668.661   -24698423.316 7 -19178978.55323        22.250           2.625
  21042003.708   -17786730.307 6 -13745581.39521        19.250           1.156
  19064992.685    -9291597.539 7  -7180387.79722        20.250           2.125
  21482766.997   -14976239.861 5 -11243122.88721        11.250           0.500
  21053715.841   -15169803.630 6 -11541677.32821        13.000           0.594
 91  5 29 18 39 29.9930000  0  6G18G 2G11G19G16G 6
  20824791.278      258027.466 6    213609.88421        16.500           1.031
  19696340.732   -24763208.435 7 -19229460.44323        23.000           2.625
  21035905.411   -17818759.541 6 -13770539.21421        18.500           1.094
  19061355.435    -9310720.942 7  -7195289.16622        20.000           2.125
  21477486.966   -15003973.599 5 -11264733.64421        11.750           0.406
  21041027.216   -15236484.152 6 -11593636.14421        12.500           0.688
 91  5 29 18 39 44.9930000  0  6G18G 2G11G19G16G 6
  20827612.052      272864.301 6    225170.91821        16.250           0.906
  19684026.052   -24827914.471 7 -19279880.71423        22.750           2.719
  21029842.958   -17850634.387 6 -13795376.76021        19.250           1.125
  19057725.505    -9329786.075 7  -7210145.12922        20.500           2.125
  21472234.591   -15031575.790 5 -11286241.88621        11.000           0.438
  21028340.310   -15303145.557 5 -11645580.06821        11.750           0.656
 91  5 29 18 39 59.9930000  0  6G18G 2G11G19G16G 6
  20830449.708      287761.141 6    236778.74621        16.750           0.938
  19671726.263   -24892542.556 7 -19330240.23423        22.750           2.594
  21023806.310   -17882356.116 6 -13820094.98221        19.250           1.031
  19054110.286    -9348794.266 6  -7224956.72222        19.750           2.031
  21467003.771   -15059047.823 5 -11307648.69121        11.000           0.469
  21015657.982   -15369789.222 6 -11697510.17321        12.250           0.688
 91  5 29 18 40 14.9930000  0  6G18G 2G11G19G16G 6
  20833289.419      302714.610 6    248430.66721        15.750           0.875
  19659445.872   -24957095.489 7 -19380541.20423        23.250           2.688
  21017799.466   -17913927.623 6 -13844696.16521        19.500           1.094
  19050501.349    -9367748.278 7  -7239726.09522        20.250           2.219
  21461805.817   -15086393.059 5 -11328956.70021        11.500           0.563
  21002979.794   -15436417.788 6 -11749428.52421        12.500           0.719
 91  5 29 18 40 29.9930000  0  6G18G 2G11G19G16G 6
  20836153.747      317729.057 6    260130.13121        16.250           0.875
  19647175.099   -25021568.814 7 -19430780.13323        23.000           2.656
  21011819.942   -17945344.507 6 -13869176.84521        19.250           1.156
  19046906.692    -9386643.698 6  -7254449.81522        19.750           2.094
  21456624.872   -15113606.759 5 -11350162.20821        11.250           0.469
  20990307.732   -15503026.900 6 -11801331.67921        12.500           0.781
 91  5 29 18 40 44.9930000  0  6G18G 2G11G19G16G 6
  20839016.130      332802.251 6    271875.35321        14.750           0.875
  19634921.685   -25085964.234 7 -19480958.36023        23.250           2.625
  21005870.075   -17976608.588 6 -13893538.48121        19.250           1.063
  19043320.841    -9405482.269 7  -7269129.23022        20.500           2.125
  21451472.083   -15140691.477 5 -11371267.21821        11.250           0.438
  20977632.403   -15569618.460 6 -11853221.17821        12.500           0.688
 91  5 29 18 40 59.9930000  0  6G18G 2G11G19G16G 6
  20841900.263      347933.096 6    283665.50221        16.000           0.781
  19622681.692   -25150282.722 7 -19531076.64723        23.000           2.594
  20999949.278   -18007720.788 6 -13917781.74221        19.000           1.031
  19039747.216    -9424264.905 6  -7283765.07322        19.750           2.219
  21446343.896   -15167647.909 5 -11392272.27321        11.250           0.375
  20964965.552   -15636193.372 6 -11905097.71821        12.750           0.750
 91  5 29 18 41 14.9930000  0  6G18G 2G11G19G16G 6
  20844787.513      363120.559 6    295499.78721        15.250           0.875
  19610458.528   -25214524.994 7 -19581135.53623        23.500           2.625
  20994060.513   -18038681.831 6 -13941907.23521        19.250           1.000
  19036183.794    -9442992.419 7  -7298357.95022        20.750           2.219
  21441232.349   -15194477.097 5 -11413178.16921        10.750           0.500
  20952294.974   -15702752.367 6 -11956961.82521        12.250           0.813
 91  5 29 18 41 29.9930000  0  6G18G 2G11G19G16G 6
  20847687.747      378364.112 6    307377.74421        15.000           0.844
  19598247.341   -25278691.119 7 -19631135.09723        23.250           2.563
  20988197.716   -18069491.946 6 -13965915.12821        19.750           1.125
  19032630.005    -9461664.873 6  -7312907.92822        19.500           2.250
  21436153.036   -15221179.328 5 -11433985.13521        11.000           0.469
  20939638.989   -15769295.652 6 -12008813.72521        12.750           0.750
 91  5 29 18 41 44.9930000  0  6G18G 2G11G19G16G 6
  20850605.989      393667.581 6    319302.41521        16.250           0.813
  19586051.739   -25342777.043 7 -19681072.15923        23.000           2.625
  20982363.833   -18100147.110 6 -13989802.25321        19.500           1.063
  19029086.302    -9480278.439 7  -7327412.02222        20.000           2.313
  21431102.013   -15247750.945 5 -11454690.32421        11.500           0.438
  20926976.442   -15835819.234 6 -12060650.26621        12.750           0.656
 91  5 29 18 41 59.9930000  0  6G18G 2G11G19G16G 6
  20853525.271      409026.849 6    331270.55421        15.250           0.844
  19573869.692   -25406786.527 7 -19730949.66323        23.250           2.500
  20976559.888   -18130651.225 6 -14013571.71221        19.750           1.219
  19025558.567    -9498836.833 7  -7341873.12722        20.000           2.188
  21426071.747   -15274195.965 5 -11475296.86321        11.500           0.406
  20914320.786   -15902326.937 6 -12112474.41121        12.500           0.781
 91  5 29 18 42 14.9930000  0  6G18G 2G11G19G16G 6
  20856454.989      424444.124 6    343283.89621        14.750           0.875
  19561703.614   -25470717.335 7 -19780765.85623        23.250           2.500
  20970783.450   -18161002.017 6 -14037221.67921        19.500           1.094
  19022034.200    -9517337.587 7  -7356289.31622        20.000           2.156
  21421057.458   -15300511.922 5 -11495802.83621        11.250           0.500
  20901665.497   -15968816.359 6 -12164284.32921        12.750           0.813
 91  5 29 18 42 29.9930000  0  6G18G 2G11G19G16G 6
  20859404.466      439912.775 6    355337.26221        16.000           0.750
  19549551.075   -25534575.492 7 -19830525.43423        22.750           2.625
  20965033.888   -18191205.524 6 -14060756.88621        19.000           1.031
  19018525.192    -9535786.770 6  -7370665.31322        19.750           2.219
  21416073.700   -15326705.148 5 -11516213.19121        10.750           0.469
  20889017.091   -16035293.643 6 -12216084.78921        13.000           0.813
 91  5 29 18 42 44.9930000  0  6G18G 2G11G19G16G 6
  20862350.067      455432.912 6    367430.76921        13.750           0.813
  19537414.974   -25598361.011 7 -19880228.41823        23.250           2.625
  20959312.411   -18221261.872 6 -14084177.41821        18.500           1.063
  19015024.411    -9554184.574 7  -7385001.28322        20.750           2.219
  21411115.974   -15352775.928 5 -11536528.12221        11.500           0.469
  20876370.052   -16101758.773 6 -12267875.76521        12.750           0.719
 91  5 29 18 42 59.9930000  0  6G18G 2G11G19G16G 6
  20865321.677      471010.110 6    379568.70821        15.500           0.781
  19525293.458   -25662067.869 7 -19929870.10523        23.500           2.531
  20953625.685   -18251164.897 6 -14107478.48421        19.500           1.031
  19011534.239    -9572524.826 7  -7399292.40122        20.000           2.156
  21406177.286   -15378718.414 5 -11556743.09121        11.250           0.469
  20863725.903   -16168205.783 6 -12319652.62721        12.500           0.719
 91  5 29 18 43 14.9930000  0  6G18G 2G11G19G16G 6
  20868294.653      486644.989 6    391751.62121        14.750           0.844
  19513184.521   -25725694.784 7 -19979449.49823        23.500           2.500
  20947964.935   -18280913.546 6 -14130659.25821        19.000           1.031
  19008053.083    -9590806.400 7  -7413537.80022        20.250           2.219
  21401264.630   -15404531.757 5 -11576857.42321        11.250           0.438
  20851085.192   -16234633.493 6 -12371414.46721        13.000           0.625
 91  5 29 18 43 29.9930000  0  6G18G 2G11G19G16G 6
  20871281.732      502330.803 6    403974.20921        15.000           0.781
  19501090.185   -25789248.172 7 -20028971.59223        23.750           2.594
  20942330.677   -18310514.450 6 -14153724.90021        18.500           1.156
  19004589.685    -9609035.928 6  -7427742.63922        19.500           2.250
  21396377.755   -15430222.343 5 -11596876.09421        11.250           0.469
  20838444.099   -16301048.539 6 -12423166.41921        13.250           0.688
 91  5 29 18 43 44.9930000  0  6G18G 2G11G19G16G 6
  20874270.950      518070.562 6    416238.84321        14.250           0.813
  19489010.747   -25852724.694 7 -20078433.79923        23.500           2.594
  20936727.591   -18339964.327 6 -14176672.87321        18.500           1.125
  19001127.513    -9627210.031 7  -7441904.29422        20.500           2.125
  21391513.067   -15455787.327 5 -11616796.88321        11.750           0.406
  20825811.575   -16367447.604 6 -12474905.93521        13.750           0.625
 91  5 29 18 43 59.9930000  0  6G18G 2G11G19G16G 6
  20877282.442      533865.961 6    428546.81821        15.000           0.688
  19476946.810   -25916122.437 7 -20127834.62523        23.500           2.563
  20931150.857   -18369261.344 6 -14199501.72221        18.750           1.125
  18997681.521    -9645326.653 6  -7456021.15722        19.750           2.344
  21386670.294   -15481224.791 5 -11636618.34221        11.000           0.406
  20813179.646   -16433828.593 6 -12526631.35921        13.500           0.688
 91  5 29 18 44 14.9930000  0  6G18G 2G11G19G16G 6
  20880296.107      549713.170 6    440895.17021        14.750           0.813
  19464898.489   -25979445.337 7 -20177177.12223        24.000           2.594
  20925606.028   -18398409.270 6 -14222214.40721        19.000           1.094
  18994242.286    -9663389.742 7  -7470096.30522        20.000           2.281
  21381853.200   -15506538.978 5 -11656343.71521        11.000           0.406
  20800549.583   -16500195.514 6 -12578345.81921        13.000           0.688
 91  5 29 18 44 29.9930000  0  6G18G 2G11G19G16G 6
  20883324.747      565619.148 6    453289.29521        14.750           0.719
  19452864.013   -26042685.807 7 -20226455.38723        23.750           2.656
  20920086.700   -18427400.753 6 -14244805.18221        18.750           1.156
  18990820.153    -9681391.815 6  -7484123.91222        19.250           2.250
  21377059.466   -15531722.400 5 -11675967.20721        10.750           0.594
  20787923.013   -16566540.901 6 -12630043.49821        13.000           0.719
 91  5 29 18 44 44.9930000  0  6G18G 2G11G19G16G 6
  20886360.755      581573.693 6    465721.31321        14.500           0.625
  19440842.075   -26105853.822 7 -20275677.19823        23.750           2.563
  20914597.872   -18456245.760 6 -14267281.81421        18.250           1.125
  18987401.302    -9699342.795 7  -7498111.70522        20.250           2.375
  21372289.341   -15556785.453 5 -11695496.87621        11.000           0.531
  20775301.927   -16632874.566 6 -12681732.04021        13.750           0.625
 91  5 29 18 44 59.9930000  0  6G18G 2G11G19G16G 6
  20889405.747      597581.930 6    478195.11321        15.000           0.844
  19428835.958   -26168943.957 7 -20324838.31823        23.750           2.656
  20909139.724   -18484938.955 6 -14289640.16421        19.250           1.156
  18983994.810    -9717237.275 6  -7512055.47022        19.500           2.156
  21367549.692   -15581722.870 5 -11714928.68721        11.250           0.500
  20762681.982   -16699191.259 6 -12733407.37121        13.250           0.625
 91  5 29 18 45 14.9930000  0  6G18G 2G11G19G16G 6
  20892460.474      613640.745 6    490708.37621        14.500           0.688
  19416846.724   -26231958.778 7 -20373940.75423        24.000           2.656
  20903707.185   -18513483.097 6 -14311882.36121        18.750           1.063
  18980601.458    -9735077.838 7  -7525957.21822        20.250           2.250
  21362823.677   -15606537.571 5 -11734264.86621        10.500           0.469
  20750064.966   -16765493.597 6 -12785071.50821        13.250           0.688
 91  5 29 18 45 29.9930000  0  6G18G 2G11G19G16G 6
  20895530.763      629755.539 6    503265.21721        15.250           0.813
  19404871.021   -26294892.937 7 -20422980.34523        24.000           2.625
  20898305.825   -18541872.772 6 -14334004.19121        18.750           1.125
  18977218.872    -9752859.220 7  -7539812.86222        20.000           2.156
  21358130.989   -15631224.402 5 -11753501.39321        11.000           0.438
  20737451.614   -16831776.291 6 -12836720.35221        13.250           0.781
 91  5 29 18 45 44.9930000  0  6G18G 2G11G19G16G 6
  20898605.036      645925.518 6    515865.07221        14.000           0.656
  19392910.474   -26357746.940 7 -20471957.46723        24.250           2.594
  20892930.825   -18570108.467 6 -14356006.04721        18.500           1.125
  18973845.091    -9770581.793 7  -7553622.67522        20.000           2.281
  21353457.817   -15655783.585 5 -11772638.44821        11.250           0.469
  20724843.286   -16898039.752 6 -12888354.18721        14.000           0.875
 91  5 29 18 45 59.9930000  0  6G18G 2G11G19G16G 6
  20901693.505      662149.685 6    528507.16821        15.250           0.906
  19380962.232   -26420521.159 7 -20520872.41923        23.750           2.781
  20887587.919   -18598190.963 6 -14377888.51021        18.000           1.094
  18970483.739    -9788246.221 7  -7567387.18522        20.000           2.250
  21348806.724   -15680216.350 5 -11791677.02021        11.500           0.469
  20712233.216   -16964284.484 6 -12939973.43021        13.500           0.750
 91  5 29 18 46 14.9930000  0  6G18G 2G11G19G16G 6
  20904792.263      678425.254 6    541189.28321        14.750           0.781
  19369036.028   -26483218.321 7 -20569727.34123        24.000           2.719
  20882273.208   -18626122.798 6 -14399653.57621        19.000           1.000
  18967131.122    -9805855.081 7  -7581108.39422        20.000           2.156
  21344179.653   -15704525.218 5 -11810619.04521        10.750           0.438
  20699636.403   -17030513.179 6 -12991580.17221        14.250           0.688
 91  5 29 18 46 29.9930000  0  6G18G 2G11G19G16G 6
  20907899.091      694752.830 6    553911.94921        15.250           0.719
  19357117.310   -26545837.281 7 -20618521.31723        24.500           2.688
  20876985.005   -18653903.053 6 -14421300.55121        18.500           1.094
  18963791.653    -9823407.296 6  -7594785.46622        19.750           2.188
  21339579.857   -15728709.461 5 -11829463.95721        10.750           0.438
  20687033.974   -17096724.785 6 -13043173.61921        13.750           0.750
 91  5 29 18 46 44.9930000  0  6G18G 2G11G19G16G 6
  20911015.216      711132.379 6    566675.10621        14.750           0.813
  19345216.153   -26608377.935 7 -20667254.27323        24.250           2.625
  20871730.692   -18681531.711 6 -14442829.37921        18.750           1.031
  18960462.052    -9840902.793 7  -7608418.33522        20.000           2.281
  21334999.302   -15752769.228 5 -11848211.87721        11.500           0.531
  20674436.208   -17162919.207 6 -13094753.67121        14.000           0.781
 91  5 29 18 46 59.9930000  0  6G18G 2G11G19G16G 6
  20914140.403      727562.581 6    579477.72621        15.250           0.625
  19333330.810   -26670841.370 7 -20715927.06723        24.750           2.719
  20866501.060   -18709009.861 6 -14464240.93821        19.000           1.156
  18957148.278    -9858342.671 6  -7622007.87022        18.500           2.125
  21330444.599   -15776705.593 5 -11866863.64321        11.250           0.375
  20661843.255   -17229097.501 6 -13146321.14121        13.500           0.750
 91  5 29 18 47 14.9930000  0  6G18G 2G11G19G16G 6
  20917278.286      744043.567 6    592319.92321        14.250           0.719
  19321456.911   -26733227.051 7 -20764539.26423        24.250           2.750
  20861298.646   -18736337.090 6 -14485534.88821        18.500           1.000
  18953837.052    -9875726.469 7  -7635553.70422        20.000           2.063
  21325912.403   -15800518.637 5 -11885419.31021        11.000           0.406
  20649253.380   -17295259.207 6 -13197875.71421        14.000           0.719
 91  5 29 18 47 29.9930000  0  6G18G 2G11G19G16G 6
  20920424.911      760575.010 6    605201.42621        15.000           0.656
  19309602.474   -26795535.138 7 -20813091.00323        24.500           2.688
  20856126.013   -18763513.496 6 -14506711.32021        18.250           1.250
  18950540.989    -9893054.214 6  -7649055.85922        19.500           2.156
  21321400.888   -15824208.329 5 -11903878.86421        10.750           0.438
  20636665.911   -17361404.376 6 -13249417.38321        14.000           0.813
 91  5 29 18 47 44.9930000  0  6G18G 2G11G19G16G 6
  20923580.450      777158.826 6    618123.78221        14.250           0.844
  19297759.591   -26857763.193 7 -20861580.38123        24.500           2.688
  20850985.896   -18790536.812 6 -14527768.46121        18.750           1.125
  18947252.716    -9910323.519 7  -7662512.47322        20.500           2.156
  21316917.974   -15847772.577 5 -11922240.65221        11.000           0.344
  20624081.732   -17427530.685 6 -13300944.35221        13.750           0.719
 91  5 29 18 47 59.9920000  0  6G18G 2G11G19G16G 6
  20926747.789      793793.503 6    631085.70121        14.750           0.625
  19285934.109   -26919907.266 7 -20910004.31323        24.750           2.750
  20845870.805   -18817405.546 6 -14548705.14421        18.000           1.125
  18943981.789    -9927533.478 6  -7675922.85122        19.500           2.156
  21312458.625   -15871210.184 5 -11940503.77121        11.250           0.469
  20611506.149   -17493633.938 6 -13352453.35921        13.750           0.781
 91  5 29 18 48 14.9920000  0  6G18G 2G11G19G16G 6
  20929923.258      810478.347 6    644086.78121        14.500           0.656
  19274119.859   -26981978.282 7 -20958371.32223        24.000           2.719
  20840789.125   -18844125.931 6 -14569526.22921        18.750           1.031
  18940713.055    -9944688.938 7  -7689290.76622        20.000           2.156
  21308022.867   -15894527.182 5 -11958672.93421        11.500           0.438
  20598927.461   -17559725.588 6 -13403953.32421        14.000           0.781
 91  5 29 18 48 29.9920000  0  6G18G 2G11G19G16G 6
  20933104.078      827214.116 6    657127.48321        14.250           0.750
  19262324.524   -27043969.993 7 -21006676.53423        24.250           2.844
  20835733.399   -18870694.209 6 -14590228.78621        18.500           1.125
  18937461.563    -9961786.730 6  -7702613.73522        19.750           2.156
  21303608.352   -15917720.139 5 -11976745.41221        11.250           0.375
  20586356.938   -17625799.236 6 -13455439.27721        14.250           0.750
 91  5 29 18 48 44.9920000  0  6G18G 2G11G19G16G 6
  20936298.984      844001.076 6    670208.09921        13.750           0.625
  19250543.406   -27105881.805 7 -21054919.49023        24.500           2.781
  20830706.445   -18897109.938 6 -14610812.48721        19.000           1.125
  18934217.117    -9978826.298 7  -7715891.33722        20.000           2.188
  21299217.469   -15940788.854 5 -11994721.06721        11.250           0.438
  20573784.953   -17691854.334 6 -13506910.75421        13.750           0.750
 91  5 29 18 48 59.9920000  0  6G18G 2G11G19G16G 6
  20939502.109      860837.448 6    683327.23821        13.500           0.781
  19238777.109   -27167715.305 7 -21103101.42323        24.750           2.844
  20825709.289   -18923374.724 6 -14631278.56121        19.000           1.063
  18930989.836    -9995809.118 6  -7729124.72422        18.750           2.156
  21294855.070   -15963735.197 5 -12012601.37721        11.500           0.500
  20561214.930   -17757892.263 6 -13558368.85621        13.500           0.906
 91  5 29 18 49 14.9920000  0  6G18G 2G11G19G16G 6
  20942717.680      877723.741 6    696485.24021        13.750           0.719
  19227024.172   -27229469.309 7 -21151221.41323        24.250           2.906
  20820739.867   -18949487.668 6 -14651626.31421        19.250           1.000
  18927767.164   -10012734.194 7  -7742313.11722        20.500           2.063
  21290507.445   -15986558.261 5 -12030385.62221        11.500           0.469
  20548652.234   -17823912.172 6 -13609812.91321        13.000           0.750
 91  5 29 18 49 29.9920000  0  6G18G 2G11G19G16G 6
  20945940.258      894659.532 6    709681.83421        14.000           0.594
  19215288.945   -27291144.194 7 -21199279.74223        24.500           2.906
  20815796.750   -18975449.133 6 -14671856.04021        19.500           0.969
  18924554.336   -10029601.956 6  -7755456.85122        19.000           2.125
  21286188.703   -16009258.702 5 -12048074.32121        11.750           0.469
  20536095.891   -17889914.334 6 -13661243.15121        13.500           0.625
 91  5 29 18 49 44.9920000  0  6G18G 2G11G19G16G 6
  20949171.117      911642.597 6    722915.26421        13.250           0.781
  19203568.734   -27352741.899 7 -21247277.93823        25.000           2.906
  20810885.758   -19001261.058 6 -14691969.21721        18.750           1.031
  18921356.586   -10046414.162 7  -7768557.28622        20.250           2.094
  21281896.930   -16031838.644 5 -12065669.14021        11.500           0.313
  20523538.547   -17955900.438 6 -13712660.87721        13.750           0.750
 91  5 29 18 49 59.9920000  0  6G18G 2G11G19G16G 6
  20952410.828      928672.524 6    736185.20321        13.250           0.656
  19191858.805   -27414262.330 7 -21295215.91723        24.250           2.906
  20806001.836   -19026923.632 6 -14711966.04821        19.000           1.031
  18918169.914   -10063170.988 6  -7781614.57822        19.750           2.031
  21277624.125   -16054298.038 5 -12083170.00921        11.750           0.469
  20510985.836   -18021870.736 6 -13764066.29621        13.750           0.719
 91  5 29 18 50 14.9920000  0  6G18G 2G11G19G16G 6
  20955662.734      945747.542 6    749490.26221        14.000           0.688
  19180170.320   -27475707.327 7 -21343095.11723        24.500           2.844
  20801147.149   -19052438.530 6 -14731847.78021        19.000           1.000
  18914988.242   -10079874.093 7  -7794629.99922        20.000           2.125
  21273372.524   -16076638.780 5 -12100578.42821        11.750           0.500
  20498433.641   -18087826.762 6 -13815460.56821        13.500           0.688
 91  5 29 18 50 29.9920000  0  6G18G 2G11G19G16G 6
  20958920.625      962871.275 6    762833.30621        13.250           0.625
  19168492.563   -27537072.951 7 -21390912.46723        24.750           2.906
  20796321.047   -19077801.856 6 -14751611.41121        19.250           1.031
  18911822.156   -10096519.455 6  -7807600.44222        19.500           2.031
  21269138.172   -16098857.119 5 -12117891.46221        11.000           0.500
  20485887.367   -18153764.715 6 -13866840.76721        13.750           0.656
 91  5 29 18 50 44.9920000  0  6G18G 2G11G19G16G 6
  20962188.117      980040.614 6    776211.86821        13.750           0.688
  19156829.000   -27598361.810 7 -21438669.99623        24.250           2.750
  20791525.352   -19103016.484 6 -14771259.19321        19.500           1.094
  18908664.133   -10113109.825 7  -7820528.02322        20.500           2.063
  21264931.117   -16120956.169 5 -12135111.54321        11.250           0.563
  20473340.695   -18219687.285 6 -13918208.97821        13.750           0.813
 91  5 29 18 50 59.9920000  0  6G18G 2G11G19G16G 6
  20965466.516      997253.740 6    789624.56021        13.000           0.656
  19145180.758   -27659575.269 7 -21486368.77823        24.250           2.813
  20786752.383   -19128083.981 6 -14790792.31121        18.750           1.031
  18905522.789   -10129646.588 6  -7833413.83222        18.750           2.031
  21260747.430   -16142937.542 5 -12152239.93221        10.500           0.438
  20460803.500   -18285595.993 6 -13969566.39621        14.500           0.813
 91  5 29 18 51 14.9920000  0  6G18G 2G11G19G16G 6
  20968746.438     1014511.928 6    803072.35021        12.750           0.656
  19133546.250   -27720711.949 7 -21534007.73123        24.750           2.875
  20782009.070   -19153003.057 6 -14810209.77621        18.500           1.125
  18902381.281   -10146128.271 7  -7846256.72622        20.250           2.156
  21256594.234   -16164800.321 5 -12169275.90621        11.250           0.344
  20448261.234   -18351489.404 6 -14020911.89221        13.500           0.813
 91  5 29 18 51 29.9920000  0  6G18G 2G11G19G16G 6
  20972040.563     1031812.861 6    816553.46521        13.750           0.656
  19121926.391   -27781773.845 7 -21581588.41023        24.500           2.906
  20777294.844   -19177775.524 6 -14829513.01421        18.500           1.063
  18899260.539   -10162556.617 6  -7859058.06022        19.250           2.094
  21252455.586   -16186546.326 5 -12186220.89221        11.000           0.406
  20435725.031   -18417369.175 6 -14072246.75221        14.000           0.813
 91  5 29 18 51 44.9920000  0  6G18G 2G11G19G16G 6
  20975341.156     1049156.726 6    830068.02621        12.750           0.656
  19110317.750   -27842760.487 7 -21629110.44323        24.250           2.781
  20772609.617   -19202401.079 6 -14848701.75821        18.500           1.094
  18896138.789   -10178931.355 7  -7871817.61722        20.750           2.000
  21248337.930   -16208175.321 5 -12203074.70421        10.750           0.563
  20423186.906   -18483235.023 6 -14123570.76421        13.500           0.875
 91  5 29 18 51 59.9920000  0  6G18G 2G11G19G16G 6
  20978649.102     1066545.047 6    843617.23821        13.000           0.594
  19098729.844   -27903669.890 7 -21676572.29723        24.250           2.813
  20767953.641   -19226878.084 6 -14867774.75021        19.500           1.188
  18893035.836   -10195250.739 6  -7884534.04122        19.750           2.156
  21244247.117   -16229685.843 5 -12219836.18121        10.250           0.531
  20410657.938   -18549085.054 6 -14174882.45521        14.500           0.938
 91  5 29 18 52 14.9920000  0  6G18G 2G11G19G16G 6
  20981967.070     1083979.637 6    857202.49921        12.750           0.688
  19087156.047   -27964500.388 7 -21723972.66023        24.750           2.781
  20763323.461   -19251204.889 6 -14886730.70421        19.000           1.125
  18889938.313   -10211513.021 7  -7897205.97822        20.000           2.125
  21240178.406   -16251076.507 5 -12236504.28721        10.750           0.313
  20398131.828   -18614917.546 6 -14226180.48621        14.500           0.781
 91  5 29 18 52 29.9920000  0  6G18G 2G11G19G16G 6
  20985294.555     1101460.241 6    870823.58521        13.000           0.594
  19075591.539   -28025251.907 7 -21771311.48823        24.250           2.813
  20758724.899   -19275381.540 6 -14905569.67721        19.500           1.125
  18886856.492   -10227718.021 6  -7909833.26922        19.500           2.031
  21236129.836   -16272347.280 5 -12253078.95421        11.000           0.406
  20385607.125   -18680732.465 6 -14277464.81021        13.750           1.031
 91  5 29 18 52 44.9920000  0  6G18G 2G11G19G16G 6
  20988625.500     1118979.574 6    884474.89121        12.250           0.625
  19064045.703   -28085931.238 7 -21818594.06523        24.500           2.813
  20754149.664   -19299414.866 6 -14924296.93921        18.750           1.125
  18883780.805   -10243872.647 7  -7922421.30822        20.000           1.969
  21232098.313   -16293505.202 5 -12269565.69421        10.250           0.406
  20373082.352   -18746536.611 6 -14328740.74321        13.750           0.906
 91  5 29 18 52 59.9920000  0  6G18G 2G11G19G16G 6
  20991970.969     1136542.278 6    898159.97021        13.250           0.719
  19052515.242   -28146533.340 7 -21865816.46523        25.250           2.750
  20749605.508   -19323299.979 6 -14942908.72621        18.500           1.188
  18880717.570   -10259971.814 6  -7934966.14422        19.500           2.156
  21228095.859   -16314545.548 5 -12285960.81521         9.750           0.406
  20360566.328   -18812324.924 6 -14380004.32921        14.250           0.938
 91  5 29 18 53 14.9920000  0  6G18G 2G11G19G16G 6
  20995321.555     1154146.327 6    911877.26721        12.250           0.594
  19040998.117   -28207059.912 7 -21912979.99823        25.000           2.844
  20745086.102   -19347038.729 6 -14961406.46221        18.750           1.125
  18877664.328   -10276017.151 7  -7947469.02922        20.000           2.094
  21224113.984   -16335470.557 5 -12302266.04921        10.500           0.469
  20348049.899   -18878099.126 6 -14431256.92821        14.250           0.906
 91  5 29 18 53 29.9920000  0  6G18G 2G11G19G16G 6
  20998682.984     1171795.563 6    925629.77621        13.500           0.500
  19029491.570   -28267506.930 7 -21960081.55223        24.250           2.813
  20740598.852   -19370627.062 6 -14979786.98421        19.000           1.188
  18874622.492   -10292004.659 6  -7959926.84722        19.500           2.188
  21220154.508   -16356276.018 5 -12318478.13421        10.250           0.375
  20335534.250   -18943855.202 6 -14482495.41621        14.250           0.906
 91  5 29 18 53 44.9920000  0  6G18G 2G11G19G16G 6
  21002043.836     1189484.419 6    939413.17021        12.250           0.656
  19018005.336   -28327879.562 7 -22007125.14523        25.250           2.844
  20736135.922   -19394070.286 6 -14998054.45021        18.250           1.000
  18871587.953   -10307939.323 6  -7972343.49522        19.750           2.094
  21216218.477   -16376967.239 5 -12334601.21821        10.250           0.438
  20323024.008   -19009598.198 6 -14533723.70021        14.500           0.906
 91  5 29 18 53 59.9920000  0  6G18G 2G11G19G16G 6
  21005420.774     1207218.432 6    953231.73621        12.500           0.563
  19006530.320   -28388172.090 7 -22054106.31623        24.500           2.750
  20731702.672   -19417362.891 6 -15016204.54421        18.750           1.125
  18868568.492   -10323815.589 6  -7984714.63822        19.750           2.094
  21212301.422   -16397539.181 5 -12350631.36421         9.750           0.438
  20310518.820   -19075322.382 6 -14584937.33421        14.500           0.906
 91  5 29 18 54 14.9920000  0  6G18G 2G11G19G16G 6
  21008803.727     1224994.022 6    967082.70921        12.750           0.500
  18995071.641   -28448388.022 7 -22101027.80423        24.500           2.719
  20727300.844   -19440508.290 6 -15034239.93621        18.500           1.063
  18865559.047   -10339636.902 7  -7997042.95222        20.500           2.156
  21208411.438   -16417994.989 5 -12366570.98621        10.000           0.406
  20298014.328   -19141031.314 6 -14636139.07521        14.500           0.813
 91  5 29 18 54 29.9920000  0  6G18G 2G11G19G16G 6
  21012189.320     1242809.959 5    980965.12721        11.750           0.625
  18983629.234   -28508528.096 7 -22147890.17623        25.000           2.938
  20722925.070   -19463507.469 6 -15052161.36521        18.750           1.094
  18862558.992   -10355404.134 6  -8009329.13322        19.500           2.156
  21204544.953   -16438335.938 5 -12382421.12821        10.500           0.375
  20285517.211   -19206725.722 6 -14687329.50021        15.000           0.844
 91  5 29 18 54 44.9920000  0  6G18G 2G11G19G16G 6
  21015589.899     1260664.554 6    994877.64421        12.250           0.625
  18972199.008   -28568593.807 7 -22194694.61223        25.000           2.844
  20718573.656   -19486362.144 6 -15069970.21321        18.500           1.188
  18859568.516   -10371118.968 7  -8021574.48022        20.250           2.094
  21200694.984   -16458563.985 5 -12398183.29321        10.500           0.469
  20273014.500   -19272407.229 6 -14738509.86621        14.750           0.844
 91  5 29 18 54 59.9920000  0  6G18G 2G11G19G16G 6
  21018999.469     1278559.180 6   1008821.38521        13.000           0.500
  18960784.828   -28628583.372 7 -22241439.70223        25.500           2.813
  20714251.555   -19509070.594 6 -15087665.11721        17.750           1.156
  18856589.649   -10386779.497 6  -8033777.52222        19.750           2.156
  21196861.070   -16478677.486 5 -12413856.19421         9.750           0.375
  20260521.774   -19338073.959 6 -14789678.73721        14.750           0.781
 91  5 29 18 55 14.9920000  0  6G18G 2G11G19G16G 6
  21022407.484     1296496.958 6   1022798.74121        12.000           0.563
  18949381.406   -28688493.083 7 -22288122.57623        25.250           2.938
  20709962.125   -19531629.287 6 -15105243.32521        17.750           0.969
  18853617.172   -10402381.976 7  -8045935.31822        20.250           2.156
  21193058.961   -16498673.133 5 -12429437.26021        10.250           0.438
  20248026.813   -19403722.187 6 -14840833.18521        14.500           0.813
 91  5 29 18 55 29.9920000  0  6G18G 2G11G19G16G 6
  21025829.594     1314473.158 6   1036806.01521        13.250           0.531
  18937996.149   -28748327.598 7 -22334746.86023        24.750           2.813
  20705696.508   -19554043.037 6 -15122708.59721        18.500           1.156
  18850662.391   -10417930.977 7  -8058051.44822        20.500           2.094
  21189274.813   -16518556.084 5 -12444930.51121         9.500           0.375
  20235534.633   -19469356.743 6 -14891976.97521        14.250           0.969
 91  5 29 18 55 44.9920000  0  6G18G 2G11G19G16G 6
  21029264.758     1332487.687 6   1050843.18521        13.000           0.531
  18926624.727   -28808086.942 7 -22381312.56423        24.750           2.844
  20701456.906   -19576311.886 6 -15140060.92721        17.750           1.000
  18847712.031   -10433426.511 7  -8070125.91922        20.750           2.094
  21185510.641   -16538326.306 5 -12460335.93321         9.750           0.313
  20223047.602   -19534977.414 6 -14943109.93821        14.750           0.969
 91  5 29 18 55 59.9920000  0  6G18G 2G11G19G16G 6
  21032696.711     1350540.745 6   1064910.34721        13.000           0.469
  18915267.617   -28867770.608 7 -22427819.30123        25.250           2.781
  20697247.727   -19598435.402 6 -15157300.05421        18.750           1.000
  18844774.906   -10448868.098 6  -8082158.34322        19.250           2.188
  21181772.922   -16557983.194 5 -12475653.02521         9.500           0.406
  20210566.781   -19600583.693 6 -14994231.69321        15.250           0.906
 91  5 29 18 56 14.9920000  0  6G18G 2G11G19G16G 6
  21036138.789     1368631.779 6   1079007.13521        12.750           0.594
  18903925.055   -28927378.605 7 -22474267.06823        25.250           2.781
  20693064.039   -19620413.655 6 -15174425.97521        17.750           1.094
  18841842.789   -10464255.729 7  -8094148.72522        20.250           2.156
  21178057.914   -16577526.992 5 -12490882.00121         9.250           0.438
  20198084.524   -19666175.535 6 -15045342.20121        15.250           0.969
 91  5 29 18 56 29.9920000  0  6G18G 2G11G19G16G 6
  21039585.977     1386765.420 6   1093137.08321        12.250           0.594
  18892596.086   -28986906.029 7 -22520652.05423        25.250           2.813
  20688912.445   -19642242.011 6 -15191435.09721        19.000           1.125
  18838931.250   -10479584.694 6  -8106093.39622        19.750           2.219
  21174358.797   -16596953.199 5 -12506019.36621         8.750           0.313
  20185605.141   -19731748.110 6 -15096437.69321        14.500           0.906
 91  5 29 18 56 44.9920000  0  6G18G 2G11G19G16G 6
  21043048.617     1404934.978 6   1107295.03521        13.000           0.406
  18881282.852   -29046359.433 7 -22566979.36223        25.750           2.875
  20684783.195   -19663927.144 6 -15208332.61821        18.500           1.031
  18836020.430   -10494861.371 6  -8117997.32922        19.750           2.063
  21170682.586   -16616268.636 5 -12521070.39821         9.250           0.281
  20173130.609   -19797307.953 6 -15147523.27621        14.250           0.875
 91  5 29 18 56 59.9920000  0  6G18G 2G11G19G16G 6
  21046510.805     1423143.576 6   1121483.43821        12.500           0.500
  18869984.141   -29105735.335 7 -22613246.28423        25.500           2.781
  20680688.445   -19685465.718 6 -15225115.91121        19.000           1.094
  18833126.266   -10510082.257 6  -8129857.78122        18.750           2.063
  21167030.719   -16635470.522 5 -12536032.95821         9.250           0.250
  20160656.484   -19862851.581 6 -15198596.20621        14.750           0.813
 91  5 29 18 57 14.9920000  0  6G18G 2G11G19G16G 6
  21049987.063     1441390.457 6   1135701.60721        13.000           0.469
  18858698.477   -29165034.208 7 -22659453.18123        25.250           2.844
  20676613.570   -19706858.355 6 -15241785.51021        18.500           1.156
  18830237.914   -10525247.918 7  -8141675.19822        20.000           2.094
  21163395.883   -16654559.387 5 -12550907.47521         9.500           0.313
  20148187.203   -19928379.528 6 -15249656.92021        15.000           0.875
 91  5 29 18 57 29.9920000  0  6G18G 2G11G19G16G 6
  21053461.547     1459677.948 6   1149951.45021        12.250           0.406
  18847429.156   -29224253.567 7 -22705598.12123        25.250           2.813
  20672572.141   -19728102.472 6 -15258339.37921        18.500           1.063
  18827365.469   -10540355.688 7  -8153447.50622        20.250           2.156
  21159785.250   -16673532.887 5 -12565692.05921         9.000           0.375
  20135722.024   -19993889.114 6 -15300703.32921        15.250           0.781
 91  5 29 18 57 44.9920000  0  6G18G 2G11G19G16G 6
  21056949.703     1478006.156 6   1164233.05621        12.000           0.469
  18836176.555   -29283392.783 7 -22751680.60823        25.500           2.813
  20668558.320   -19749197.727 6 -15274777.24821        18.500           1.031
  18824497.211   -10555405.038 7  -8165174.29822        20.000           2.094
  21156201.625   -16692390.993 5 -12580386.72821         9.500           0.375
  20123256.844   -20059379.871 6 -15351735.06421        14.500           0.938
 91  5 29 18 57 59.9920000  0  6G18G 2G11G19G16G 6
  21060444.953     1496373.465 6   1178545.06021        12.500           0.469
  18824939.750   -29342453.308 7 -22797701.78023        25.500           2.875
  20664572.859   -19770145.675 6 -15291100.33521        19.000           1.219
  18821648.524   -10570397.351 6  -8176856.63922        19.500           2.156
  21152631.781   -16711134.863 5 -12594992.38821         9.750           0.313
  20110798.320   -20124853.136 6 -15402753.17921        14.750           0.719
 91  5 29 18 58 14.9920000  0  6G18G 2G11G19G16G 6
  21063949.555     1514773.979 5   1192882.99521        11.500           0.438
  18813714.375   -29401440.722 7 -22843665.98223        25.500           2.844
  20660612.297   -19790952.086 6 -15307313.13521        18.500           1.063
  18818802.945   -10585338.151 6  -8188498.84722        19.750           2.219
  21149082.274   -16729770.391 5 -12609513.62121         9.750           0.406
  20098342.149   -20190314.449 6 -15453761.96521        15.250           0.781
 91  5 29 18 58 29.9920000  0  6G18G 2G11G19G16G 6
  21067459.305     1533211.148 6   1207249.44721        13.250           0.438
  18802503.266   -29460351.340 7 -22889570.34723        25.500           2.875
  20656680.539   -19811613.491 6 -15323412.93421        17.500           1.000
  18815970.133   -10600224.008 6  -8200098.23422        19.750           2.156
  21145561.055   -16748294.108 5 -12623947.77721         9.750           0.313
  20085891.383   -20255760.274 6 -15504758.69821        15.500           0.844
 91  5 29 18 58 44.9920000  0  6G18G 2G11G19G16G 6
  21070972.633     1551685.482 6   1221644.89721        12.000           0.469
  18791307.734   -29519184.199 7 -22935414.11223        25.750           3.000
  20652778.680   -19832128.888 6 -15339398.96821        18.500           1.031
  18813147.633   -10615053.678 7  -8211653.85022        20.000           2.094
  21142050.641   -16766705.554 5 -12638294.39121         9.250           0.313
  20073439.172   -20321189.463 6 -15555742.46021        14.500           0.813
 91  5 29 18 58 59.9920000  0  6G18G 2G11G19G16G 6
  21074493.984     1570195.750 5   1236068.30321        11.750           0.406
  18780127.992   -29577940.721 7 -22981198.39923        25.750           2.875
  20648901.203   -19852499.863 6 -15355272.46321        17.500           1.000
  18810337.164   -10629828.380 7  -8223166.62722        20.250           2.094
  21138566.164   -16785006.368 5 -12652554.81521        10.000           0.375
  20060987.141   -20386603.156 6 -15606714.15521        15.000           0.781
 91  5 29 18 59 14.9910000  0  6G18G 2G11G19G16G 6
  21078025.550     1588739.107 6   1250517.54521        12.250           0.313
  18768960.808   -29636618.028 7 -23026920.94823        25.250           2.906
  20645052.355   -19872726.385 6 -15371033.40721        18.750           0.938
  18807532.292   -10644548.541 6  -8234636.90522        19.750           2.156
  21135110.558   -16803196.617 5 -12666729.11221         9.250           0.406
  20048544.245   -20451998.414 6 -15657671.47221        14.500           0.813
 91  5 29 18 59 29.9910000  0  6G18G 2G11G19G16G 6
  21081559.198     1607319.676 5   1264995.77021        11.750           0.438
  18757807.136   -29695221.774 7 -23072586.19023        25.000           3.031
  20641230.691   -19892809.083 6 -15386682.27121        18.250           0.969
  18804749.253   -10659213.890 6  -8246064.47022        19.500           2.125
  21131669.808   -16821276.827 5 -12680817.63221         9.750           0.281
  20036104.245   -20517381.661 6 -15708619.42521        16.000           0.813
 91  5 29 18 59 44.9910000  0  6G18G 2G11G19G16G 6
  21085101.253     1625937.135 5   1279502.72021        11.250           0.344
  18746670.909   -29753747.051 7 -23118190.28723        25.000           2.906
  20637436.386   -19912745.626 6 -15402217.25621        18.250           1.031
  18801963.394   -10673822.223 7  -8257447.62022        20.250           2.125
  21128252.081   -16839245.215 5 -12694819.02321         9.750           0.313
  20023664.441   -20582747.405 6 -15759553.75521        15.250           0.813
 91  5 29 18 59 59.9910000  0  6G18G 2G11G19G16G 6
  21088652.995     1644590.983 6   1294038.01121        12.000           0.344
  18735550.495   -29812194.133 7 -23163733.44723        25.250           2.906
  20633670.995   -19932536.468 6 -15417638.68621        18.250           1.094
  18799198.261   -10688373.835 6  -8268786.56322        19.750           2.125
  21124854.456   -16857102.143 5 -12708733.56321        10.250           0.438
  20011229.487   -20648095.968 6 -15810474.70021        15.000           0.844
 91  5 29 19  0 14.9910000  0  6G18G 2G11G19G16G 6
  21092205.558     1663276.926 5   1308598.37921        10.500           0.375
  18724442.261   -29870566.956 7 -23209218.75123        25.500           2.969
  20629929.644   -19952185.625 6 -15432949.74721        17.500           0.938
  18796436.745   -10702872.808 7  -8280084.48522        20.250           2.156
  21121478.964   -16874851.470 5 -12722564.27121         9.750           0.469
  19998793.776   -20713431.227 6 -15861385.26521        15.250           0.844
 91  5 29 19  0 29.9910000  0  6G18G 2G11G19G16G 6
  21095769.151     1681999.077 5   1323186.87021        11.000           0.406
  18713349.300   -29928861.043 7 -23254642.69323        25.500           2.938
  20626220.675   -19971688.899 6 -15448147.11621        18.750           1.000
  18793693.417   -10717314.747 6  -8291337.96522        19.000           2.188
  21118117.714   -16892489.464 5 -12736308.22621         9.750           0.375
  19986365.941   -20778748.772 6 -15912282.02221        14.750           0.875
 91  5 29 19  0 44.9910000  0  6G18G 2G11G19G16G 6
  21099342.284     1700755.339 5   1337802.01421        11.500           0.438
  18702269.159   -29987078.502 7 -23300006.92923        25.500           3.063
  20622534.925   -19991048.460 6 -15463232.50121        17.750           1.031
  18790949.636   -10731701.613 6  -8302548.54422        19.750           2.000
  21114777.003   -16910018.563 5 -12749967.32321         9.500           0.344
  19973941.261   -20844050.631 6 -15963166.57021        15.250           0.906
 91  5 29 19  0 59.9910000  0  6G18G 2G11G19G16G 6
  21102916.144     1719547.288 5   1352444.92121        10.750           0.594
  18691207.487   -30045216.961 7 -23345309.60323        25.500           3.063
  20618880.253   -20010262.131 6 -15478204.21021        18.750           1.031
  18788225.394   -10746030.972 6  -8313714.30322        19.250           2.063
  21111462.792   -16927436.407 5 -12763539.71521         9.500           0.406
  19961516.534   -20909334.407 6 -16014037.02221        15.500           0.875
 91  5 29 19  1 14.9910000  0  6G18G 2G11G19G16G 6
  21106498.292     1738370.779 5   1367112.41721        10.750           0.344
  18680157.870   -30103280.453 7 -23390553.86523        25.250           3.000
  20615250.237   -20029334.163 6 -15493065.53521        18.250           1.000
  18785507.714   -10760307.097 6  -8324838.57922        19.750           2.156
  21108173.698   -16944747.303 5 -12777028.78021        10.250           0.438
  19949098.589   -20974604.238 6 -16064896.60421        15.250           0.813
 91  5 29 19  1 29.9910000  0  6G18G 2G11G19G16G 6
  21110090.855     1757230.254 5   1381807.95421        11.500           0.500
  18669123.558   -30161264.396 7 -23435736.15123        25.250           3.094
  20611648.230   -20048260.053 6 -15507813.00421        19.000           1.031
  18782806.519   -10774525.276 6  -8335917.70422        18.250           2.125
  21104899.519   -16961946.900 5 -12790431.11121         9.750           0.375
  19936679.878   -21039855.435 6 -16115741.67421        15.250           0.875
 91  5 29 19  1 44.9910000  0  6G18G 2G11G19G16G 6
  21113685.097     1776122.144 5   1396528.75521        11.500           0.375
  18658104.917   -30219172.154 7 -23480859.06123        25.250           3.188
  20608073.753   -20067043.113 6 -15522449.13621        18.000           1.063
  18780108.050   -10788688.563 7  -8346954.05922        20.000           2.063
  21101647.737   -16979038.888 5 -12803749.60721         9.500           0.438
  19924267.495   -21105091.089 6 -16166574.63921        15.750           0.938
 91  5 29 19  1 59.9910000  0  6G18G 2G11G19G16G 6
  21117282.526     1795046.604 5   1411274.93121        10.500           0.500
  18647100.441   -30277003.321 7 -23525922.29023        25.500           3.031
  20604526.605   -20085683.288 6 -15536973.96621        17.750           1.063
  18777425.003   -10802796.771 6  -8357947.49222        19.750           2.063
  21098420.901   -16996023.062 5 -12816984.07321         9.750           0.344
  19911854.706   -21170310.857 6 -16217395.21021        16.250           1.000
 91  5 29 19  2 14.9910000  0  6G18G 2G11G19G16G 6
  21120894.894     1814004.794 6   1426047.37621        12.000           0.469
  18636109.323   -30334756.305 7 -23570924.59923        25.000           3.125
  20601007.823   -20104179.189 6 -15551386.36021        18.500           1.031
  18774748.167   -10816848.398 6  -8368896.83122        19.750           2.000
  21095208.230   -17012898.355 5 -12830133.70421         9.000           0.531
  19899449.417   -21235513.235 6 -16268202.23821        15.750           0.844
 91  5 29 19  2 29.9910000  0  6G18G 2G11G19G16G 6
  21124504.026     1832993.330 5   1440843.48421        10.250           0.438
  18625133.644   -30392434.084 7 -23615868.30223        25.250           3.094
  20597515.870   -20122533.940 6 -15565688.79921        18.750           1.031
  18772087.011   -10830846.441 6  -8379804.41922        19.500           2.063
  21092014.769   -17029667.821 5 -12843200.87621         9.500           0.469
  19887044.667   -21300701.127 6 -16318997.97921        15.750           0.906
 91  5 29 19  2 44.9910000  0  6G18G 2G11G19G16G 6
  21128124.737     1852011.340 5   1455662.57221        11.250           0.469
  18614170.026   -30450037.504 7 -23660754.06823        24.500           3.000
  20594050.370   -20140748.325 6 -15579881.82721        18.000           0.969
  18769430.316   -10844791.396 7  -8390670.64222        20.250           2.031
  21088841.105   -17046332.771 5 -12856186.61221         9.250           0.344
  19874642.464   -21365875.252 6 -16369782.98821        16.000           0.938
 91  5 29 19  2 59.9910000  0  6G18G 2G11G19G16G 6
  21131752.417     1871063.427 5   1470508.18121        10.750           0.438
  18603224.550   -30507561.770 7 -23705578.15723        25.500           3.063
  20590610.714   -20158817.604 6 -15593961.80021        18.000           1.063
  18766790.323   -10858678.381 6  -8401491.69122        19.500           2.125
  21085695.964   -17062888.323 5 -12869087.08921         9.750           0.469
  19862243.011   -21431030.710 6 -16420553.45821        16.250           1.000
 91  5 29 19  3 14.9910000  0  6G18G 2G11G19G16G 6
  21135378.308     1890144.299 5   1485376.26021        10.500           0.406
  18592292.417   -30565011.633 7 -23750344.26023        25.250           3.063
  20587196.097   -20176746.995 6 -15607932.76121        18.000           1.063
  18764155.308   -10872512.549 6  -8412271.58422        19.750           2.094
  21082562.198   -17079339.664 5 -12881906.37021         9.750           0.469
  19849846.073   -21496172.407 6 -16471313.20421        15.750           0.969
 91  5 29 19  3 29.9910000  0  6G18G 2G11G19G16G 6
  21139018.776     1909253.959 5   1500266.71821        10.750           0.563
  18581374.683   -30622386.893 7 -23795052.24323        25.500           3.063
  20583812.925   -20194536.270 6 -15621794.55121        17.750           1.031
  18761536.526   -10886293.556 6  -8423010.05622        18.500           2.063
  21079454.620   -17095686.850 5 -12894644.49921        10.500           0.438
  19837452.909   -21561300.014 6 -16522061.96621        16.250           0.969
 91  5 29 19  3 44.9910000  0  6G18G 2G11G19G16G 6
  21142659.691     1928395.903 5   1515182.34521        11.750           0.313
  18570468.831   -30679683.769 7 -23839699.14123        24.500           3.125
  20580456.019   -20212181.901 6 -15635544.39121        18.000           0.969
  18758923.355   -10900017.402 7  -8433703.97722        20.500           2.125
  21076360.441   -17111926.272 5 -12907298.64721         9.250           0.500
  19825061.753   -21626409.721 6 -16572796.77221        16.000           1.000
 91  5 29 19  3 59.9910000  0  6G18G 2G11G19G16G 6
  21146305.644     1947570.055 5   1530123.15921        10.250           0.438
  18559582.573   -30736902.093 7 -23884284.83423        25.250           3.063
  20577127.073   -20229683.908 6 -15649182.32321        17.500           0.938
  18756323.714   -10913684.061 6  -8444353.35322        19.000           2.094
  21073296.917   -17128058.230 5 -12919869.07421         9.750           0.406
  19812674.237   -21691501.362 6 -16623517.52021        16.250           1.031
 91  5 29 19  4 14.9910000  0  6G18G 2G11G19G16G 6
  21149960.941     1966768.698 5   1545082.91421        11.500           0.531
  18548706.800   -30794049.224 7 -23928815.04823        25.000           3.156
  20573821.105   -20247049.899 6 -15662714.29521        17.750           0.969
  18753732.167   -10927300.982 7  -8454963.95722        20.000           2.063
  21070243.222   -17144090.301 5 -12932361.63621         9.750           0.406
  19800289.175   -21756582.277 6 -16674229.89421        16.500           1.031
 91  5 29 19  4 29.9910000  0  6G18G 2G11G19G16G 6
  21153621.269     1985994.214 5   1560063.68721        10.500           0.344
  18537846.698   -30851122.628 7 -23973287.81823        25.500           3.125
  20570543.526   -20264277.411 6 -15676138.32521        17.750           0.906
  18751149.581   -10940865.606 6  -8465533.82022        19.500           2.094
  21067212.058   -17160020.183 5 -12944774.61821         9.750           0.531
  19787907.112   -21821649.927 6 -16724931.94121        16.750           1.094
 91  5 29 19  4 44.9910000  0  6G18G 2G11G19G16G 6
  21157284.089     2005254.474 5   1575071.53721        11.000           0.375
  18527002.386   -30908114.184 7 -24017696.80523        25.250           3.125
  20567291.183   -20281358.450 6 -15689448.24321        17.500           0.875
  18748578.956   -10954369.673 7  -8476056.50122        20.250           2.156
  21064196.355   -17175840.097 5 -12957101.86121         9.000           0.500
  19775533.534   -21886696.005 6 -16775617.18921        17.000           1.063
 91  5 29 19  4 59.9910000  0  6G18G 2G11G19G16G 6
  21160955.191     2024544.230 5   1590102.35921        10.750           0.438
  18516171.058   -30965028.502 7 -24062045.60723        25.000           3.281
  20564068.026   -20298297.827 6 -15702647.75521        18.250           0.906
  18746021.144   -10967817.943 6  -8486535.69222        19.750           2.156
  21061209.722   -17191555.010 5 -12969347.30621         9.500           0.438
  19763156.800   -21951725.223 6 -16826289.27921        16.500           1.063
 91  5 29 19  5 14.9910000  0  6G18G 2G11G19G16G 6
  21164632.191     2043870.050 5   1605161.25321        11.000           0.438
  18505356.300   -31021858.920 7 -24106329.03223        25.250           3.156
  20560873.245   -20315089.033 6 -15715731.84121        17.500           1.000
  18743473.011   -10981203.569 6  -8496966.07922        19.750           2.094
  21058238.972   -17207158.268 5 -12981505.74021         9.750           0.406
  19750787.308   -22016730.773 6 -16876942.92721        17.000           1.000
 91  5 29 19  5 29.9910000  0  6G18G 2G11G19G16G 6
  21168315.386     2063224.958 5   1620242.85321        10.500           0.375
  18494555.800   -31078612.106 7 -24150552.27623        25.250           3.156
  20557704.597   -20331738.861 6 -15728705.74721        17.500           1.000
  18740936.011   -10994533.186 6  -8507352.81422        19.250           2.031
  21055293.987   -17222656.990 5 -12993582.72421        10.000           0.406
  19738419.698   -22081719.207 6 -16927583.23821        17.250           1.000
 91  5 29 19  5 44.9910000  0  6G18G 2G11G19G16G 6
  21172011.730     2082613.944 6   1635350.98121        12.000           0.406
  18483774.034   -31135282.963 7 -24194711.37223        25.500           3.156
  20554567.464   -20348242.479 6 -15741565.70821        18.250           1.000
  18738410.175   -11007801.732 6  -8517691.97122        19.750           2.188
  21052360.339   -17238046.695 5 -13005574.76121         8.750           0.406
  19726059.433   -22146685.620 6 -16978206.40621        16.500           1.031
 91  5 29 19  5 59.9910000  0  6G18G 2G11G19G16G 6
  21175701.980     2102031.317 5   1650481.24121        10.500           0.469
  18473003.316   -31191876.630 7 -24238810.31923        25.750           3.094
  20551452.183   -20364605.051 6 -15754315.77321        17.250           0.969
  18735896.292   -11021014.239 6  -8527987.45022        19.250           2.250
  21049455.925   -17253332.265 5 -13017485.63521         9.500           0.469
  19713695.589   -22211634.943 6 -17028816.25721        16.750           1.063
 91  5 29 19  6 14.9910000  0  6G18G 2G11G19G16G 6
  21179408.425     2121476.409 5   1665633.08521        11.500           0.281
  18462251.230   -31248394.064 7 -24282849.86623        25.750           3.094
  20548365.362   -20380827.452 6 -15766956.63521        17.500           1.000
  18733391.706   -11034171.481 6  -8538239.86822        19.500           2.250
  21046562.628   -17268514.683 5 -13029316.16421         9.250           0.688
  19701341.026   -22276567.694 6 -17079413.16821        17.000           1.000
 91  5 29 19  6 29.9910000  0  6G18G 2G11G19G16G 6
  21183111.269     2140951.912 5   1680808.65021        10.750           0.344
  18451511.417   -31304831.855 7 -24326827.35223        26.250           3.125
  20545304.995   -20396906.848 6 -15779486.02121        17.750           0.938
  18730900.394   -11047270.360 6  -8548446.81422        19.500           2.188
  21043696.237   -17283591.251 5 -13041064.22121         9.500           0.344
  19688985.472   -22341480.995 6 -17129994.97721        16.500           1.063
 91  5 29 19  6 44.9910000  0  6G18G 2G11G19G16G 6
  21186817.636     2160455.408 5   1696005.99521        10.250           0.344
  18440784.472   -31361192.485 7 -24370744.71023        25.750           3.188
  20542269.964   -20412845.736 6 -15791905.94321        17.750           0.906
  18728417.433   -11060313.155 6  -8558610.04922        19.500           2.250
  21040842.917   -17298564.725 5 -13052731.90821         9.500           0.469
  19676641.612   -22406376.960 6 -17180563.23521        17.000           0.969
 91  5 29 19  6 59.9910000  0  6G18G 2G11G19G16G 6
  21190536.526     2179985.205 5   1711223.84921        10.750           0.344
  18430075.089   -31417476.890 7 -24414602.68123        25.750           3.125
  20539263.870   -20428645.447 6 -15804217.42821        17.750           0.938
  18725950.159   -11073301.119 6  -8568730.56722        19.000           2.219
  21038012.472   -17313436.640 5 -13064320.46721         9.500           0.438
  19664295.589   -22471256.670 6 -17231118.81421        17.500           1.063
 91  5 29 19  7 14.9910000  0  6G18G 2G11G19G16G 6
  21194260.128     2199541.107 5   1726462.06321        10.500           0.313
  18419378.159   -31473685.258 7 -24458401.39223        26.000           3.125
  20536283.933   -20444306.017 6 -15816420.49521        17.500           1.031
  18723488.800   -11086234.110 7  -8578808.24922        20.500           2.219
  21035209.542   -17328206.785 5 -13075829.73421         9.500           0.469
  19651946.980   -22536120.129 6 -17281661.73621        16.000           0.938
 91  5 29 19  7 29.9910000  0  6G18G 2G11G19G16G 6
  21197987.425     2219127.160 5   1741723.71621        10.500           0.344
  18408697.144   -31529813.233 7 -24502137.45823        26.250           3.250
  20533331.441   -20459823.412 6 -15828511.96421        17.750           1.000
  18721035.917   -11099107.900 6  -8588839.80022        18.750           2.000
  21032415.901   -17342871.445 5 -13087256.81221         9.000           0.469
  19639612.956   -22600962.978 6 -17332188.60721        17.000           1.094
 91  5 29 19  7 44.9910000  0  6G18G 2G11G19G16G 6
  21201723.081     2238743.486 5   1757009.01221        11.250           0.219
  18398029.886   -31585860.304 7 -24545810.48123        25.500           3.156
  20530405.167   -20475197.287 6 -15840491.62121        17.750           0.813
  18718599.230   -11111921.716 7  -8598824.60922        20.000           2.219
  21029646.112   -17357430.164 5 -13098601.34621         9.000           0.469
  19627273.933   -22665784.574 6 -17382698.92321        17.000           1.031
 91  5 29 19  7 59.9910000  0  6G18G 2G11G19G16G 6
  21205459.776     2258386.851 5   1772315.36321        10.500           0.344
  18387380.230   -31641829.574 7 -24589422.89123        25.500           3.188
  20527507.722   -20490430.972 6 -15852362.05321        17.750           0.938
  18716172.925   -11124678.681 6  -8608765.13022        19.500           2.219
  21026896.081   -17371886.376 5 -13109865.97421         9.500           0.469
  19614944.019   -22730588.097 6 -17433195.16321        16.500           1.094
 91  5 29 19  8 14.9910000  0  6G18G 2G11G19G16G 6
  21209196.964     2278050.730 5   1787637.70521        10.500           0.219
  18376743.269   -31697727.293 7 -24632979.54323        25.750           3.031
  20524634.401   -20505530.895 6 -15864128.23821        17.750           0.875
  18713750.987   -11137385.107 6  -8618666.26722        19.500           2.125
  21024158.706   -17386246.897 5 -13121056.09221         9.750           0.438
  19602612.042   -22795379.755 6 -17483682.13221        16.250           1.094
 91  5 29 19  8 29.9910000  0  6G18G 2G11G19G16G 6
  21212949.472     2297742.218 5   1802981.55321        10.250           0.219
  18366121.948   -31753546.097 7 -24676474.70123        25.750           3.125
  20521784.566   -20520489.865 6 -15875784.57921        17.000           1.000
  18711351.581   -11150033.519 6  -8628522.19322        18.750           2.156
  21021442.870   -17400504.526 5 -13132165.96121         9.250           0.375
  19590291.128   -22860152.008 6 -17534154.01621        17.500           1.094
 91  5 29 19  8 44.9910000  0  6G18G 2G11G19G16G 6
  21216701.667     2317459.115 5   1818345.21021        10.000           0.250
  18355514.370   -31809287.809 7 -24719909.78623        25.750           3.156
  20518967.714   -20535309.871 6 -15887332.66221        17.750           0.938
  18708949.316   -11162625.724 7  -8638334.32722        20.000           2.250
  21018749.339   -17414661.422 5 -13143197.37221         9.250           0.375
  19577964.636   -22924906.621 6 -17584612.13821        16.750           1.000
 91  5 29 19  8 59.9910000  0  6G18G 2G11G19G16G 6
  21220453.948     2337200.459 5   1833727.92121         9.750           0.313
  18344922.636   -31864953.200 7 -24763285.40123        26.000           3.188
  20516173.401   -20549991.819 6 -15898773.14921        17.500           0.969
  18706565.019   -11175162.694 6  -8648103.42222        19.000           2.125
  21016080.026   -17428718.827 5 -13154151.26421         9.000           0.469
  19565649.714   -22989644.382 6 -17635057.13921        17.500           1.031
 91  5 29 19  9 14.9910000  0  6G18G 2G11G19G16G 6
  21224217.339     2356965.362 5   1849128.97321         9.500           0.281
  18334344.120   -31920542.875 7 -24806602.02023        26.000           3.156
  20513405.456   -20564536.459 6 -15910106.66221        17.500           0.938
  18704189.691   -11187644.835 6  -8657829.78722        19.500           2.125
  21013427.425   -17442677.348 5 -13165028.10021         9.750           0.344
  19553331.706   -23054365.746 6 -17685489.33021        17.250           1.125
 91  5 29 19  9 29.9910000  0  6G18G 2G11G19G16G 6
  21227984.112     2376753.865 5   1864548.36821        10.000           0.250
  18323778.987   -31976056.437 7 -24849859.32423        26.000           3.188
  20510664.605   -20578943.703 6 -15921333.10021        17.500           0.875
  18701827.925   -11200071.697 6  -8667513.08122        18.750           2.063
  21010786.167   -17456536.749 5 -13175827.71121         9.500           0.469
  19541016.628   -23119070.321 6 -17735908.44821        17.000           0.969
 91  5 29 19  9 44.9910000  0  6G18G 2G11G19G16G 6
  21231747.003     2396570.553 5   1879989.80221         9.000           0.250
  18313232.175   -32031489.196 7 -24893053.67523        26.250           3.125
  20507948.261   -20593208.989 6 -15932448.92921        17.500           0.719
  18699469.401   -11212438.537 6  -8677149.59622        19.750           2.125
  21008166.362   -17470292.449 5 -13186546.49021         9.000           0.344
  19528707.628   -23183753.344 6 -17786310.78521        17.500           1.063
 91  5 29 19  9 59.9910000  0  6G18G 2G11G19G16G 6
  21235531.542     2416414.365 5   1895452.38721         9.000           0.406
  18302698.480   -32086841.959 7 -24936185.68523        26.250           3.188
  20505259.933   -20607333.133 6 -15943454.75621        17.000           0.813
  18697128.831   -11224746.182 6  -8686740.00122        19.250           2.063
  21005570.776   -17483946.016 5 -13197185.70021         9.500           0.500
  19516404.425   -23248415.481 6 -17836696.85021        17.500           1.094
 91  5 29 19 10 14.9910000  0  6G18G 2G11G19G16G 6
  21239310.995     2436281.783 5   1910933.27521         9.500           0.344
  18292177.378   -32142117.926 7 -24979257.85323        25.500           3.125
  20502597.691   -20621319.602 6 -15954353.32521        17.500           0.875
  18694796.698   -11236997.859 6  -8696286.78722        19.750           2.125
  21002989.066   -17497500.785 5 -13207747.92321         9.250           0.313
  19504102.644   -23313060.001 6 -17887069.22521        17.500           1.125
 91  5 29 19 10 29.9900000  0  6G18G 2G11G19G16G 6
  21243095.490     2456173.076 5   1926432.81621         9.500           0.281
  18281674.295   -32197311.388 7 -25022265.73523        26.000           3.156
  20499964.334   -20635165.765 6 -15965142.55721        17.500           0.875
  18692478.404   -11249190.675 6  -8705787.70522        18.750           2.188
  21000427.022   -17510954.133 5 -13218231.11421         9.750           0.406
  19491806.975   -23377680.406 6 -17937422.75421        17.500           1.063
 91  5 29 19 10 44.9900000  0  6G18G 2G11G19G16G 6
  21246881.725     2476089.748 5   1941952.19021         9.000           0.375
  18271187.873   -32252430.819 7 -25065215.92523        26.250           3.125
  20497353.740   -20648874.542 6 -15975824.73321        17.500           0.875
  18690167.693   -11261327.149 6  -8715244.73222        19.000           2.031
  20997887.357   -17524309.073 5 -13228637.62321         9.250           0.469
  19479512.795   -23442286.285 6 -17987764.97721        17.500           1.031
 91  5 29 19 10 59.9900000  0  6G18G 2G11G19G16G 6
  21250681.248     2496032.048 5   1957491.40921         9.500           0.313
  18260712.764   -32307470.401 7 -25108103.90023        25.750           3.094
  20494774.162   -20662443.075 6 -15986397.63021        18.000           0.750
  18687870.061   -11273404.335 6  -8724655.54222        18.750           2.125
  20995370.100   -17537562.833 5 -13238965.29821         9.500           0.313
  19467222.389   -23506871.117 6 -18038090.77521        17.750           1.094
 91  5 29 19 11 14.9900000  0  6G18G 2G11G19G16G 6
  21254480.373     2515993.520 5   1973045.67821         9.000           0.219
  18250254.201   -32362436.528 7 -25150934.63223        26.000           3.156
  20492216.576   -20675877.995 6 -15996866.42421        17.250           0.906
  18685580.475   -11285428.733 6  -8734025.22522        19.250           2.125
  20992863.897   -17550722.466 5 -13249219.65621         9.000           0.313
  19454935.951   -23571441.302 6 -18088405.19821        17.750           1.125
 91  5 29 19 11 29.9900000  0  6G18G 2G11G19G16G 6
  21258282.232     2535977.404 5   1988617.38921         9.500           0.469
  18239807.709   -32417325.817 7 -25193705.49523        26.000           3.031
  20489686.857   -20689176.293 6 -16007228.76621        16.750           0.750
  18683301.631   -11297397.054 6  -8743351.21822        19.250           2.125
  20990373.186   -17563784.884 5 -13259398.20821         9.000           0.313
  19442650.264   -23635993.537 6 -18138705.61221        17.750           1.156
 91  5 29 19 11 44.9900000  0  6G18G 2G11G19G16G 6
  21262091.443     2555989.346 5   2004210.92121        10.000           0.375
  18229377.889   -32472132.351 7 -25236411.86823        25.750           3.094
  20487185.279   -20702332.032 6 -16017479.99321        17.250           0.844
  18681036.693   -11309303.356 6  -8752628.88222        18.750           2.031
  20987909.975   -17576744.303 5 -13269496.51421        10.000           0.313
  19430372.467   -23700521.652 6 -18188987.24821        17.750           1.094
 91  5 29 19 11 59.9900000  0  6G18G 2G11G19G16G 6
  21265906.357     2576022.158 5   2019820.70721         8.500           0.219
  18218964.545   -32526862.713 7 -25279058.89323        26.250           3.125
  20484704.686   -20715352.251 6 -16027625.63621        16.750           0.781
  18678786.772   -11321154.140 6  -8761863.28222        18.250           1.969
  20985468.732   -17589607.636 5 -13279519.94521         9.500           0.344
  19418095.420   -23765032.323 6 -18239255.27621        18.000           1.281
 91  5 29 19 12 14.9900000  0  6G18G 2G11G19G16G 6
  21269716.498     2596076.462 5   2035447.27321        10.000           0.219
  18208562.381   -32581516.160 7 -25321645.98323        25.750           3.156
  20482252.381   -20728236.280 6 -16037665.14121        16.750           0.906
  18676538.029   -11332948.515 6  -8771053.73322        19.500           2.094
  20983031.772   -17602374.295 5 -13289468.06521         9.000           0.313
  19405823.553   -23829524.738 6 -18289509.09121        18.000           1.188
 91  5 29 19 12 29.9900000  0  6G18G 2G11G19G16G 6
  21273543.647     2616152.015 5   2051090.41121         9.500           0.344
  18198177.982   -32636092.642 7 -25364173.10623        26.000           3.031
  20479827.936   -20740984.154 6                        16.750
  18674305.787   -11344686.587 6  -8780200.29922        18.750           2.094
  20980621.217   -17615044.216 5                         8.750
  19393550.826   -23893998.600 6 -18339748.44821        17.000           1.219
 91  5 29 19 12 44.9900000  0  6G18G 2G11G19G16G 6
  21277366.678     2636252.403 5   2066752.84221         9.500           0.406
  18187807.803   -32690588.338 7 -25406637.27523        26.000           3.031
  20477430.654   -20753592.314 6                        17.000
  18672079.897   -11356364.357 6  -8789299.88722        19.000           1.938
  20978228.350   -17627614.374 5                         9.000
  19381289.428   -23958450.116 6 -18389970.39221        17.500           1.125
 91  5 29 19 12 59.9900000  0  6G18G 2G11G19G16G 6
  21281197.772     2656377.806 5   2082434.80121        10.500           0.313
  18177452.928   -32745002.724 7 -25449038.08423        25.750           3.063
  20475057.936   -20766060.465 6                        16.750
  18669877.006   -11367981.425 6  -8798352.17422        18.250           2.000
  20975859.256   -17640084.552 5                         9.500
  19369030.248   -24022878.702 6 -18440174.48321        17.250           1.156
 91  5 29 19 13 14.9900000  0  6G18G 2G11G19G16G 6
  21285028.100     2676523.989 5   2098132.91321         8.500           0.313
  18167112.678   -32799339.960 7 -25491378.78323        25.500           3.125
  20472710.217   -20778392.838 6                        17.000
  18667672.787   -11379541.884 7  -8807360.34422        20.000           2.031
  20973510.803   -17652458.847 5                         9.500
  19356773.631   -24087288.326 6 -18490363.78321        18.000           1.250
 91  5 29 19 13 29.9900000  0  6G18G 2G11G19G16G 6
  21288866.647     2696691.956 5   2113848.06821        10.000           0.281
  18156788.240   -32853598.798 7 -25533658.38123        26.000           3.063
  20470388.795   -20790588.383 6 -16086251.29921        17.000           0.969
  18665482.779   -11391044.295 6  -8816323.28822        18.000           1.969
  20971164.154   -17664736.403 5                         9.000
  19344517.865   -24151677.610 6 -18540537.22321        17.500           1.031
 91  5 29 19 13 44.9900000  0  6G18G 2G11G19G16G 6
  21292707.232     2716881.288 5   2129579.85421         8.500           0.406
  18146477.936   -32907779.422 7 -25575877.03523        26.000           3.125
  20468091.357   -20802647.482 6 -16095648.01021        16.250           0.844
  18663304.240   -11402488.781 6  -8825241.09222        19.750           2.125
  20968847.248   -17676917.801 5 -13310796.80921         8.750           0.281
  19332271.943   -24216046.833 6 -18590695.03521        18.000           1.250
 91  5 29 19 13 59.9900000  0  6G18G 2G11G19G16G 6
  21296552.022     2737090.144 5   2145326.76621         9.000           0.344
  18136182.240   -32961883.094 7 -25618035.73023        26.000           3.094
  20465824.865   -20814571.769 6 -16104939.68521        17.000           0.906
  18661140.529   -11413876.789 6  -8834114.88722        18.000           2.031
  20966546.232   -17689004.813 5 -13320215.32021         8.500           0.313
  19320023.209   -24280397.152 6 -18640838.12621        17.500           1.250
 91  5 29 19 14 14.9900000  0  6G18G 2G11G19G16G 6
  21300404.943     2757315.015 5   2161086.27721         9.500           0.313
  18125899.303   -33015913.205 7 -25660137.10323        25.750           3.094
  20463578.506   -20826364.625 6 -16114128.93721        16.750           1.000
  18658980.912   -11425211.423 6  -8842947.09422        19.250           2.031
  20964262.217   -17701000.705 5 -13329562.86221         8.250           0.375
  19307783.217   -24344731.750 6 -18690968.97621        18.000           1.250
 91  5 29 19 14 29.9900000  0  6G18G 2G11G19G16G 6
  21304255.490     2777559.263 5   2176860.82521         8.750           0.375
  18115632.982   -33069866.585 7 -25702178.68723        25.750           3.156
  20461361.100   -20838023.028 6 -16123213.43821        17.500           0.875
  18656838.123   -11436489.522 6  -8851735.24622        19.000           2.125
  20962003.154   -17712902.597 5 -13338837.12821         8.250           0.375
  19295543.912   -24409047.329 6 -18741084.96521        17.750           1.344
 91  5 29 19 14 44.9900000  0  6G18G 2G11G19G16G 6
  21308116.154     2797823.152 5   2192650.62121        10.000           0.344
  18105381.990   -33123742.214 7 -25744159.68023        26.000           3.125
  20459169.498   -20849546.376 6 -16132192.67821        16.500           0.750
  18654698.732   -11447710.137 6  -8860478.61422        19.250           2.063
  20959755.186   -17724709.902 5 -13348037.70421         8.750           0.281
  19283308.139   -24473343.002 6 -18791185.48021        17.750           1.156
 91  5 29 19 14 59.9900000  0  6G18G 2G11G19G16G 6
  21311970.732     2818107.736 5   2208456.62021         8.500           0.125
  18095143.318   -33177538.686 7 -25786078.99923        26.000           3.094
  20457003.404   -20860933.510 6 -16141065.78221        17.000           1.000
  18652576.662   -11458871.827 6  -8869176.05322        19.000           2.031
  20957523.873   -17736421.553 5 -13357163.75221         8.750           0.281
  19271076.756   -24537617.216 6 -18841269.28621        17.000           1.156
 91  5 29 19 15 14.9900000  0  6G18G 2G11G19G16G 6
  21315838.490     2838413.297 5   2224279.00421         9.750           0.250
  18084923.139   -33231255.396 7 -25827936.16623        25.750           3.156
  20454863.154   -20872183.942 6 -16149832.38521        17.000           0.875
  18650462.381   -11469973.851 6  -8877827.00922        19.500           2.031
  20955316.725   -17748037.512 5 -13366215.21121         8.500           0.219
  19258851.256   -24601869.231 6 -18891335.76521        17.750           1.219
 91  5 29 19 15 29.9900000  0  6G18G 2G11G19G16G 6
  21319705.256     2858735.569 5   2240114.33521         8.500           0.344
  18074715.217   -33284896.726 7 -25869734.59023        26.000           3.156
  20452747.482   -20883302.286 6                        17.500
  18648361.670   -11481020.675 6                        19.250
  20953123.514   -17759562.036 5 -13375195.40721         8.750           0.156
  19246625.662   -24666103.375 6 -18941388.31721        17.250           1.188
 91  5 29 19 15 44.9900000  0  6G18G 2G11G19G16G 6
  21323571.264     2879075.451 5   2255963.33621         7.500           0.313
  18064522.732   -33338461.529 7 -25911473.38523        26.250           3.094
  20450654.928   -20894287.574 6                        17.500
  18646268.568   -11492011.169 6                        19.500
  20950949.943   -17770994.341 5 -13384103.74621         8.500           0.156
  19234408.412   -24730318.337 6 -18991425.92121        17.500           1.156
 91  5 29 19 15 59.9900000  0  6G18G 2G11G19G16G 6
  21327449.482     2899431.866 5   2271825.34421        10.250           0.188
  18054341.568   -33391950.349 7 -25953152.97023        25.500           3.156
  20448593.256   -20905140.455 6 -16175512.85221        17.500           0.938
  18644192.068   -11502945.803 6  -8903519.51322        17.750           2.156
  20948787.787   -17782335.452 5 -13392941.06421         8.250           0.344
  19222192.373   -24794514.711 6 -19041449.05721        17.500           1.125
 91  5 29 19 16 14.9900000  0  6G18G 2G11G19G16G 6
  21331326.928     2919804.058 4   2287699.65121         7.250           0.375
  18044177.553   -33445363.912 7 -25994773.92023        25.750           3.156
  20446552.623   -20915861.964 6 -16183867.27621        17.750           0.938
  18642115.459   -11513825.343 6  -8911997.10322        19.500           2.063
  20946650.943   -17793586.131 5 -13401707.88221         9.250           0.313
  19209977.584   -24858693.076 6 -19091458.16121        17.250           1.250
 91  5 29 19 16 29.9900000  0  6G18G 2G11G19G16G 6
  21335215.756     2940196.394 5   2303589.42921         8.750           0.250
  18034031.732   -33498697.508 7 -26036332.55523        26.250           3.156
  20444537.334   -20926447.634 6 -16192115.88021        17.500           0.875
  18640065.061   -11524645.114 6  -8920428.11422        18.250           2.063
  20944523.959   -17804742.145 5 -13410400.99121         9.250           0.313
  19197768.897   -24922848.722 6 -19141449.55121        17.250           1.250
 91  5 29 19 16 44.9900000  0  6G18G 2G11G19G16G 6
  21339086.412     2960610.546 5   2319496.44621         8.750           0.156
  18023895.873   -33551949.115 7 -26077827.29723        26.000           3.094
  20442545.318   -20936895.467 6 -16200257.07421        17.250           0.781
  18638012.654   -11535402.745 6  -8928810.70422        19.000           2.125
  20942423.201   -17815801.534 5 -13419018.75221         9.500           0.438
  19185566.311   -24986979.381 6 -19191421.47321        17.750           1.281
 91  5 29 19 16 59.9900000  0  6G18G 2G11G19G16G 6
  21342976.459     2981036.035 4   2335412.30121         6.500           0.219
  18013776.154   -33605128.939 7 -26119266.11323        26.000           3.125
  20440583.998   -20947215.937 6 -16208299.01721        17.750           0.750
  18635976.654   -11546108.462 6  -8937152.84922        19.250           2.125
  20940334.639   -17826775.056 5 -13427569.60921         8.750           0.313
  19173364.256   -25051095.184 6 -19241381.83421        17.250           1.188
 91  5 29 19 17 14.9900000  0  6G18G 2G11G19G16G 6
  21346872.522     3001477.821 5   2351340.68321         8.500           0.344
  18003670.717   -33658232.111 7 -26160645.18823        26.500           3.156
  20438646.631   -20957404.301 6 -16216238.02421        17.250           0.813
  18633946.842   -11556757.638 6  -8945450.93422        19.250           2.063
  20938263.209   -17837657.749 5 -13436049.72021         9.250           0.313
  19161169.014   -25115191.103 6 -19291326.67221        17.250           1.250
 91  5 29 19 17 29.9900000  0  6G18G 2G11G19G16G 6
  21350762.975     3021933.085 5   2367279.66321         8.250           0.219
  17993581.772   -33711260.941 7 -26201966.34023        26.500           3.156
  20436732.311   -20967463.015 6 -16224075.97821        17.250           0.688
  18631934.522   -11567352.236 6  -8953706.49122        18.500           2.000
  20936211.451   -17848452.491 5 -13444461.29321        10.000           0.281
  19148971.600   -25179269.373 6 -19341257.78521        17.250           1.250
 91  5 29 19 17 44.9900000  0  6G18G 2G11G19G16G 6
  21354651.904     3042408.337 4   2383234.26721         6.750           0.188
  17983503.264   -33764208.635 7 -26243224.27623        26.250           3.156
  20434842.107   -20977385.711 6 -16231807.96121        16.250           0.750
  18629930.998   -11577885.503 6  -8961914.24622        19.500           2.063
  20934173.654   -17859153.118 5 -13452799.49821        10.250           0.188
  19136784.857   -25243323.222 6 -19391169.85321        17.000           1.250
 91  5 29 19 17 59.9900000  0  6G18G 2G11G19G16G 6
  21358558.920     3062896.567 5   2399198.92721         8.000           0.219
  17973442.678   -33817081.934 7 -26284424.23823        26.250           3.156
  20432977.350   -20987179.228 6 -16239439.30121        16.750           0.813
  18627936.615   -11588364.154 6  -8970079.46122        18.750           2.094
  20932150.967   -17869766.269 5 -13461069.54821         9.500           0.406
  19124602.326   -25307359.280 6 -19441068.06721        17.500           1.188
 91  5 29 19 18 14.9900000  0  6G18G 2G11G19G16G 6
  21362461.232     3083399.515 5   2415175.01121         7.750           0.313
  17963396.279   -33869878.953 7 -26325564.75823        26.250           3.188
  20431140.147   -20996841.884 6 -16246968.68321        17.250           0.813
  18625951.092   -11598786.302 6                        19.250
  20930151.170   -17880290.437 5                         9.500
  19112418.029   -25371375.383 6 -19490950.73121        17.250           1.094
 91  5 29 19 18 29.9900000  0  6G18G 2G11G19G16G 6
  21366360.881     3103915.231 5   2431161.08121         7.500           0.188
  17953363.498   -33922601.589 7 -26366647.31523        26.250           3.219
  20429327.334   -21006375.833 6 -16254397.75021        17.000           0.875
  18623977.881   -11609153.536 6                        18.250
  20928165.951   -17890727.556 5                         9.500
  19100241.686   -25435373.343 6 -19540819.25121        17.750           1.219
 91  5 29 19 18 44.9900000  0  6G18G 2G11G19G16G 6
  21370267.459     3124441.843 5   2447155.67421         7.500           0.188
  17943342.154   -33975251.209 7 -26407672.98223        26.000           3.188
  20427537.623   -21015782.685 6 -16261727.79921        16.500           0.781
  18622016.443   -11619467.523 6                        19.250
  20926193.873   -17901079.711 5                         9.750
  19088063.803   -25499354.557 6 -19590674.72221        17.250           1.250
 91  5 29 19 18 59.9900000  0  6G18G 2G11G19G16G 6
  21374180.881     3144985.145 4   2463163.28821         7.250           0.156
  17933340.772   -34027821.918 7 -26448637.15923        26.750           3.063
  20425771.240   -21025056.734 6 -16268954.34321        17.250           0.781
  18620065.170   -11629722.245 6                        18.250
  20924244.647   -17911340.811 5                         9.500
  19075891.990   -25563313.024 6 -19640512.47821        17.500           1.219
 91  5 29 19 19 14.9900000  0  6G18G 2G11G19G16G 6
  21378091.506     3165546.183 5   2479184.67621         7.500           0.375
  17923350.373   -34080312.145 7 -26489538.61723        26.000           3.188
  20424031.600   -21034196.609 6 -16276076.35221        16.500           0.594
  18618127.490   -11639916.100 6                        19.750
  20922310.076   -17921510.047 5                        10.250
  19063725.272   -25627247.138 6 -19690331.24921        17.500           1.250
 91  5 29 19 19 29.9900000  0  6G18G 2G11G19G16G 6
  21382008.006     3186122.221 4   2495217.75221         6.750           0.250
  17913379.193   -34132724.177 7 -26530379.15223        26.750           3.063
  20422319.709   -21043204.897 6 -16283095.82421        17.000           0.781
  18616196.350   -11650051.529 6                        18.500
  20920386.584   -17931589.822 5                         9.500
  19051564.217   -25691159.146 6 -19740132.79321        18.000           1.281
 91  5 29 19 19 44.9900000  0  6G18G 2G11G19G16G 6
  21385924.350     3206712.823 5   2511262.15721         7.500           0.156
  17903418.342   -34185058.528 7 -26571159.15123        26.750           3.125
  20420627.686   -21052082.233 6 -16290013.23921        16.000           0.844
  18614278.779   -11660128.673 6  -9026000.02222        19.250           2.000
  20918481.318   -17941580.984 5 -13517030.11021         9.500           0.313
  19039407.404   -25755049.322 6 -19789917.33821        18.000           1.219
 91  5 29 19 19 59.9900000  0  5G 2G11G19G16G 6
  17893475.803   -34237313.710 7 -26611877.45923        26.750           3.094
  20418964.912   -21060827.424 6 -16296827.69621        16.000           0.844
  18612376.522   -11670146.252 6  -9033805.94722        18.750           1.969
  20916607.037   -17951482.522 5 -13524745.65421        10.250           0.344
  19027254.131   -25818916.116 6 -19839683.64621        18.000           1.250
 91  5 29 19 20 14.9900000  0  5G 2G11G19G16G 6
  17883546.615   -34289491.804 7 -26652535.70123        26.750           3.219
  20417324.725   -21069442.730 6 -16303540.94121        16.000           0.875
  18610477.397   -11680106.270 6  -9041567.02722        19.250           1.969
  20914737.326   -17961296.755 5 -13532393.14921         9.250           0.250
  19015105.201   -25882761.477 6 -19889433.27621        18.500           1.313
 91  5 29 19 20 29.9900000  0  5G 2G11G19G16G 6
  17873632.522   -34341590.114 7 -26693131.76923        26.500           3.094
  20415709.123   -21077925.742 6 -16310151.10121        16.250           0.875
  18608593.201   -11690006.139 6  -9049281.23222        18.500           2.000
  20912884.998   -17971021.337 5 -13539970.88121         9.000           0.406
  19002959.256   -25946582.665 6 -19939164.04721        18.000           1.250
 91  5 29 19 20 44.9900000  0  5G 2G11G19G16G 6
  17863734.342   -34393612.073 7 -26733668.35623        26.500           3.156
  20414120.904   -21086280.171 6 -16316661.06321        16.250           0.719
  18606721.076   -11699849.217 6  -9056951.19522        19.000           2.000
  20911046.943   -17980660.023 5 -13547481.64121         8.250           0.563
  18990817.561   -26010383.108 6 -19988878.66521        18.000           1.188
 91  5 29 19 20 59.9900000  0  5G 2G11G19G16G 6
  17853850.936   -34445552.376 7 -26774141.30523        26.750           3.219
  20412558.545   -21094500.788 6 -16323066.75921        16.250           0.875
  18604862.365   -11709629.937 6  -9064572.55922        18.000           1.938
  20909236.326   -17990207.528 5 -13554921.35121         9.250           0.469
  18978682.928   -26074157.229 6 -20038572.78021        18.500           1.219
 91  5 29 19 21 14.9900000  0  5G 2G11G19G16G 6
  17843980.139   -34497416.455 7 -26814554.85923        26.750           3.281
  20411016.897   -21102593.185 6 -16329372.55321        15.750           0.813
  18603007.357   -11719353.745 6  -9072149.58122        19.000           1.875
  20907434.170   -17999669.691 5 -13562294.52121         9.750           0.406
  18966551.623   -26137910.238 6 -20088250.43021        18.250           1.344
 91  5 29 19 21 29.9890000  0  5G 2G11G19G16G 6
  17834125.853   -34549201.773 7 -26854907.04823        26.500           3.188
  20409500.915   -21110558.151 6 -16335579.04621        15.750           0.813
  18601171.782   -11729020.887 6  -9079682.44322        18.250           1.813
  20905647.649   -18009047.149 5 -13569601.70821         9.500           0.313
  18954424.493   -26201638.929 6 -20137909.13921        18.500           1.375
 91  5 29 19 21 44.9890000  0  5G 2G11G19G16G 6
  17824284.134   -34600916.190 7 -26895203.98723        27.000           3.250
  20408008.931   -21118397.881 6 -16341687.94821        16.000           0.750
  18599341.353   -11738633.483 6  -9087172.81122        19.000           1.906
  20903875.884   -18018342.386 5 -13576844.78921         8.250           0.281
  18942301.376   -26265352.539 6 -20187556.09521        18.750           1.313
 91  5 29 19 21 59.9890000  0  5G 2G11G19G16G 6
  17814458.251   -34652553.412 7 -26935440.77223        27.000           3.219
  20406543.501   -21126108.994 6 -16347696.62221        16.500           0.750
  18597521.985   -11748188.028 6  -9094617.93922        17.250           1.969
  20902124.704   -18027551.970 5 -13584021.16221         7.500           0.344
  18930180.907   -26329043.781 6 -20237185.61621        18.750           1.313
 91  5 29 19 22 14.9890000  0  5G 2G11G19G16G 6
  17804647.165   -34704115.887 7 -26975619.31623        27.000           3.094
  20405100.329   -21133694.277 6 -16353607.25721        16.250           0.750
  18595714.048   -11757687.114 6  -9102019.84822        19.000           1.875
  20900392.337   -18036679.041 5 -13591133.26921         7.500           0.375
  18918064.126   -26392714.998 6 -20286799.53821        18.500           1.281
 91  5 29 19 22 29.9890000  0  5G 2G11G19G16G 6
  17794850.204   -34755597.838 7 -27015735.11123        27.000           3.125
  20403678.798   -21141148.085 6 -16359415.43921        16.000           0.781
  18593919.376   -11767124.814 6  -9109373.93222        19.250           1.875
  20898666.845   -18045717.654 5 -13598176.47321         8.250           0.438
  18905951.173   -26456360.281 6 -20336393.25621        18.500           1.219
 91  5 29 19 22 44.9890000  0  5G 2G11G19G16G 6
  17785068.720   -34807002.775 7 -27055790.89923        27.000           3.156
  20402285.345   -21148474.266 6 -16365124.19221        15.750           0.813
  18592134.087   -11776504.594 6  -9116682.88522        19.000           1.906
  20896972.509   -18054671.747 5 -13605153.76521         9.000           0.375
  18893843.524   -26519983.114 6 -20385969.48321        18.750           1.250
 91  5 29 19 22 59.9890000  0  5G 2G11G19G16G 6
  17775299.321   -34858330.472 7 -27095786.49523        26.500           3.156
  20400917.798   -21155672.967 6 -16370733.58221        16.000           0.875
  18590360.493   -11785826.309 6  -9123946.57622        18.500           2.031
  20895278.142   -18063541.814 5 -13612065.58521         8.250           0.281
  18881742.993   -26583583.221 6 -20435528.00821        19.000           1.281
 91  5 29 19 23 14.9890000  0  5G 2G11G19G16G 6
  17765548.337   -34909576.561 7 -27135718.50423        27.000           3.188
  20399568.985   -21162739.962 6 -16376240.35821        15.500           0.938
  18588596.556   -11795085.396 6  -9131161.48322        18.750           2.000
  20893608.517   -18072323.578 5 -13618908.60321         7.750           0.375
  18869644.829   -26647156.009 6 -20485065.22521        19.000           1.313
 91  5 29 19 23 29.9890000  0  5G 2G11G19G16G 6
  17755810.189   -34960747.594 7 -27175592.02623        27.000           3.094
  20398251.673   -21169682.068 6 -16381649.82121        15.500           0.688
  18586846.259   -11804288.503 6  -9138332.76222        18.750           1.813
  20891952.509   -18081024.217 4 -13625688.42221         7.000           0.250
  18857552.337   -26710708.178 6 -20534586.38621        19.500           1.250
 91  5 29 19 23 44.9890000  0  5G 2G11G19G16G 6
  17746084.735   -35011841.120 7 -27215405.15423        26.250           3.031
  20396951.649   -21176496.950 6 -16386960.14421        16.500           0.719
  18585106.149   -11813433.090 6  -9145458.43922        19.000           1.844
  20890316.712   -18089641.351 4 -13632403.13821         6.750           0.375
  18845460.931   -26774236.872 6 -20584089.24721        19.250           1.219
 91  5 29 19 23 59.9890000  0  5G 2G11G19G16G 6
  17736378.376   -35062864.372 7 -27255163.52923        27.250           3.031
  20395678.587   -21183192.146 6 -16392177.20321        15.750           0.719
  18583371.157   -11822526.337 6  -9152544.11522        19.000           1.813
  20888687.134   -18098182.353 5 -13639058.54221         7.750           0.313
  18833375.853   -26837749.241 6 -20633579.40021        18.750           1.188
 91  5 29 19 24 14.9890000  0  5G 2G11G19G16G 6
  17726683.196   -35113812.708 7 -27294863.51323        26.500           3.031
  20394427.314   -21189763.080 6 -16397297.42921        16.000           0.813
  18581657.907   -11831563.434 6  -9159586.03422        18.750           1.938
  20887083.321   -18106642.979 5 -13645651.29021         8.750           0.281
  18821294.876   -26901240.502 6 -20683053.09121        19.500           1.375
 91  5 29 19 24 29.9890000  0  5G 2G11G19G16G 6
  17717003.728   -35164681.748 7 -27334501.72723        26.750           3.031
  20393205.149   -21196205.701 6 -16402317.66921        16.750           0.688
  18579949.267   -11840540.015 6  -9166580.80122        17.500           1.875
  20885483.509   -18115018.927 5 -13652178.08821         8.000           0.281
  18809217.165   -26964706.194 6 -20732506.86221        19.250           1.281
 91  5 29 19 24 44.9890000  0  5G 2G11G19G16G 6
  17707338.642   -35215478.240 7 -27374083.39523        27.250           3.094
  20392003.181   -21202527.073 6 -16407243.43721        16.250           0.750
  18578249.415   -11849463.046 6  -9173533.84522        19.250           1.844
  20883901.290   -18123317.585 5 -13658644.69521         7.500           0.438
  18797144.610   -27028153.004 6 -20781945.92721        19.500           1.438
 91  5 29 19 24 59.9890000  0  5G 2G11G19G16G 6
  17697685.321   -35266197.900 7 -27413605.20123        27.000           3.031
  20390821.618   -21208723.061 6 -16412071.52721        16.250           0.813
  18576563.946   -11858327.966 6  -9180441.61422        18.250           1.781
  20882338.649   -18131534.939 4 -13665047.90421         7.000           0.438
  18785073.079   -27091576.566 6 -20831366.86521        19.250           1.344
 91  5 29 19 25 14.9890000  0  5G 2G11G19G16G 6
  17688048.103   -35316841.310 7 -27453067.59223        27.250           2.969
  20389666.298   -21214794.512 6 -16416802.54521        15.750           0.813
  18574885.212   -11867135.195 6  -9187304.41322        18.750           1.813
  20880798.814   -18139672.028 4 -13671388.57921         6.750           0.219
  18773009.649   -27154977.364 6 -20880770.07321        19.250           1.250
 91  5 29 19 25 29.9890000  0  5G 2G11G19G16G 6
  17678423.806   -35367408.796 7 -27492470.82223        26.750           3.156
  20388534.470   -21220741.832 6 -16421436.84821        15.500           0.750
  18573228.399   -11875885.005 6  -9194122.48322        18.250           1.844
  20879259.032   -18147729.150 4 -13677667.01621         6.500           0.188
  18760948.634   -27218355.280 6 -20930155.44921        19.250           1.344
 91  5 29 19 25 44.9890000  0  5G 2G11G19G16G 6
  17668818.071   -35417901.822 7 -27531816.02823        27.000           3.094
  20387426.931   -21226566.820 6 -16425975.82521        16.500           0.719
  18571564.087   -11884578.999 6  -9200897.05622        18.000           1.844
  20877740.181   -18155708.025 4 -13683884.39021         7.000           0.219
  18748892.642   -27281711.808 6 -20979524.16021        19.500           1.469
 91  5 29 19 25 59.9890000  0  5G 2G11G19G16G 6
  17659222.001   -35468321.518 7 -27571104.09623        26.750           3.156
  20386341.876   -21232270.852 6 -16430420.54321        16.000           0.688
  18569927.149   -11893218.212 6  -9207628.93422        18.750           1.813
  20876231.290   -18163610.252 4 -13690042.04221         6.750           0.125
  18736838.837   -27345048.133 6 -21028877.12321        19.000           1.438
 91  5 29 19 26 14.9890000  0  5G 2G11G19G16G 6
  17649642.259   -35518668.204 7 -27610335.27323        26.750           3.063
  20385278.923   -21237854.554 6 -16434771.51321        15.750           0.719
  18568290.032   -11901803.185 6  -9214318.56022        19.000           1.781
  20874751.798   -18171436.392 5 -13696140.36221         8.250           0.250
  18724790.689   -27408364.165 6 -21078214.27621        19.500           1.375
 91  5 29 19 26 29.9890000  0  5G 2G11G19G16G 6
  17640074.798   -35568939.194 7 -27649507.46323        26.750           3.063
  20384238.657   -21243315.440 6 -16439026.76721        15.750           0.594
  18566672.290   -11910330.905 6  -9220963.56522        17.250           1.813
  20873272.774   -18179184.211 5 -13702177.72621         8.250           0.125
  18712746.853   -27471657.301 6 -21127533.58821        19.500           1.344
 91  5 29 19 26 44.9890000  0  5G 2G11G19G16G 6
  17630523.353   -35619137.843 7 -27688623.28623        26.750           3.063
  20383220.993   -21248657.079 6 -16443189.10921        16.000           0.656
  18565053.595   -11918804.719 6  -9227566.57822        18.500           1.781
  20871812.759   -18186857.209 5 -13708156.76621         7.750           0.219
  18700705.548   -27534930.827 6 -21176837.62221        19.250           1.344
 91  5 29 19 26 59.9890000  0  5G 2G11G19G16G 6
  17620985.079   -35669258.401 7 -27727678.26023        27.000           3.156
  20382229.267   -21253873.953 6 -16447254.23221        15.250           0.594
  18563455.220   -11927218.834 6  -9234123.06222        18.000           1.688
  20870362.040   -18194450.053 5 -13714073.36621         7.500           0.250
  18688669.978   -27598178.727 6 -21226121.68021        19.500           1.469
 91  5 29 19 27 14.9890000  0  5G 2G11G19G16G 6
  17611461.376   -35719301.194 7 -27766672.63523        26.750           3.063
  20381260.899   -21258966.680 6 -16451222.61121        15.500           0.719
  18561863.431   -11935573.557 6  -9240633.27022        18.500           1.844
  20868940.009   -18201963.359 4 -13719928.01921         7.250           0.313
  18676641.540   -27661401.268 7 -21275385.98321        20.000           1.469
 91  5 29 19 27 29.9890000  0  5G 2G11G19G16G 6
  17601953.876   -35769271.661 7 -27805610.65323        26.750           3.125
  20380314.142   -21263941.068 6 -16455098.78721        16.000           0.813
  18560288.665   -11943874.354 6  -9247101.46122        18.000           1.875
  20867523.845   -18209402.902 5 -13725725.17621         7.750           0.281
  18664614.712   -27724603.794 6 -21324634.69022        19.500           1.563
 91  5 29 19 27 44.9890000  0  5G 2G11G19G16G 6
  17592460.478   -35819166.365 7 -27844489.63523        27.000           3.094
  20379391.556   -21268793.894 6 -16458880.25221        15.500           0.719
  18558714.314   -11952117.756 6  -9253524.92222        18.250           1.750
  20866120.618   -18216765.493 5 -13731462.34821         7.750           0.125
  18652590.649   -27787782.765 6 -21373865.03822        19.750           1.594
 91  5 29 19 27 59.9890000  0  5G 2G11G19G16G 6
  17582978.743   -35868986.711 7 -27883310.67723        26.750           3.063
  20378489.524   -21273526.801 6 -16462568.25821        15.500           0.688
  18557158.524   -11960305.102 6  -9259904.71022        17.750           1.719
  20864738.618   -18224052.737 5 -13737140.81321         8.750           0.125
  18640573.376   -27850939.289 6 -21423077.90022        19.500           1.625
 91  5 29 19 28 14.9890000  0  5G 2G11G19G16G 6
  17573511.251   -35918728.305 7 -27922070.35223        26.250           3.000
  20377614.782   -21278135.472 6 -16466159.45621        15.750           0.688
  18555607.673   -11968431.828 6  -9266237.26322        17.750           1.844
  20863368.501   -18231260.728 5 -13742757.45621         9.000           0.219
  18628560.173   -27914068.835 7 -21472269.73222        20.000           1.594
 91  5 29 19 28 29.9890000  0  5G 2G11G19G16G 6
  17564061.853   -35968394.540 7 -27960771.31323        27.000           3.000
  20376756.626   -21282623.383 6 -16469656.55421        14.750           0.625
  18554081.423   -11976501.165 6  -9272525.09022        17.250           1.750
  20862006.384   -18238392.883 5 -13748315.05421         8.000           0.156
  18616550.860   -27977174.528 6 -21521442.99322        19.750           1.531
 91  5 29 19 28 44.9890000  0  5G 2G11G19G16G 6
  17554622.649   -36017988.670 7 -27999416.08023        26.500           3.000
  20375928.626   -21286994.190 6 -16473062.40921        15.250           0.688
  18552550.353   -11984516.410 6  -9278770.77322        18.500           1.813
  20860664.321   -18245453.014 5 -13753816.52921         7.750           0.219
  18604546.899   -28040259.641 6 -21570600.20322        19.750           1.625
 91  5 29 19 28 59.9890000  0  5G 2G11G19G16G 6
  17545197.868   -36067511.157 7 -28038005.02823        26.250           3.031
  20375118.110   -21291248.693 6 -16476377.63921        15.750           0.594
  18551037.790   -11992478.056 6  -9284974.68822        17.250           1.875
  20859333.243   -18252441.982 4 -13759262.61621         7.250           0.219
  18592545.149   -28103324.412 7 -21619741.57522        20.000           1.531
 91  5 29 19 29 14.9890000  0  5G 2G11G19G16G 6
  17535792.407   -36116958.158 7 -28076535.15223        27.000           3.000
  20374332.337   -21295383.249 6 -16479599.40421        16.250           0.656
  18549530.673   -12000382.169 6  -9291133.77922        18.000           1.813
  20858012.978   -18259356.038 4 -13764650.29921         7.250           0.344
  18580549.915   -28166365.049 6 -21668864.13222        19.500           1.688
 91  5 29 19 29 29.9890000  0  5G 2G11G19G16G 6
  17526395.767   -36166325.415 7 -28115003.12923        26.500           3.063
  20373569.774   -21299393.901 6 -16482724.60921        15.000           0.594
  18548037.626   -12008224.520 6  -9297244.73522        17.500           1.781
  20856725.228   -18266191.223 5 -13769976.51821         9.750           0.313
  18568558.407   -28229377.194 6 -21717964.48622        19.250           1.594
 91  5 29 19 29 44.9890000  0  5G 2G11G19G16G 6
  17517017.548   -36215613.142 7 -28153409.15223        27.250           2.969
  20372827.392   -21303281.216 6 -16485753.72721        15.500           0.688
  18546556.626   -12016005.423 6  -9303307.81322        18.250           1.844
  20855434.204   -18272948.375 5 -13775241.93621         9.500           0.188
  18556569.985   -28292360.837 6 -21767042.62822        18.750           1.625
 91  5 29 19 29 59.9890000  0  5G 2G11G19G16G 6
  17507650.720   -36264828.091 7 -28191758.45323        26.750           3.063
  20372110.634   -21307051.906 6 -16488691.94621        16.000           0.656
  18545090.165   -12023731.469 6  -9309328.14722        18.000           1.781
  20854155.267   -18279634.258 5 -13780451.81021         8.250           0.219
  18544592.056   -28355322.567 6 -21816103.70722        19.750           1.594
 91  5 29 19 30 14.9890000  0  5G 2G11G19G16G 6
  17498301.368   -36313968.352 7 -28230049.55723        27.000           3.031
  20371417.728   -21310704.288 6 -16491537.98121        14.750           0.750
  18543628.024   -12031400.648 6  -9315304.16822        18.250           1.719
  20852900.056   -18286247.434 5 -13785604.99421         8.000           0.188
  18532617.001   -28418260.198 6 -21865146.00722        19.750           1.563
 91  5 29 19 30 29.9890000  0  5G 2G11G19G16G 6
  17488965.009   -36363034.457 7 -28268282.87823        27.750           3.031
  20370741.931   -21314239.430 6 -16494292.68721        14.500           0.656
  18542181.689   -12039013.613 6  -9321236.38622        17.750           1.781
  20851659.939   -18292788.640 5 -13790702.12621         7.750           0.031
  18520643.665   -28481174.297 6 -21914169.96522        19.500           1.656
 91  5 29 19 30 44.9890000  0  5G 2G11G19G16G 6
  17479640.962   -36412025.568 7 -28306457.76223        27.250           2.938
  20370090.634   -21317656.677 6 -16496955.50721        14.750           0.625
  18540741.485   -12046569.527 6  -9327124.14322        18.750           1.781
  20850413.384   -18299257.354 4 -13795742.77221         6.750           0.156
  18508674.282   -28544063.956 6 -21963174.88122        19.250           1.563
 91  5 29 19 30 59.9890000  0  5G 2G11G19G16G 6
  17470334.243   -36460938.933 7 -28344572.06723        27.500           3.031
  20369466.985   -21320953.617 6 -16499524.58921        15.000           0.750
  18539316.274   -12054065.579 6  -9332965.26522        18.250           1.906
  20849199.790   -18305651.101 4 -13800725.01921         6.500           0.344
  18496711.032   -28606926.234 6 -22012158.46222        19.500           1.594
 91  5 29 19 31 14.9890000  0  5G 2G11G19G16G 6
  17461038.649   -36509779.760 7 -28382629.84723        27.250           3.000
  20368860.032   -21324135.418 6 -16502003.94921        14.250           0.625
  18537900.142   -12061506.626 6  -9338763.53022        18.750           1.813
  20848000.235   -18311975.396 5 -13805653.13621         7.500           0.281
  18484753.462   -28669766.027 6 -22061124.52322        19.250           1.531
 91  5 29 19 31 29.9890000  0  5G 2G11G19G16G 6
  17451760.415   -36558545.207 7 -28420628.89623        27.500           3.000
  20368277.360   -21327199.625 6 -16504391.67221        15.000           0.594
  18536496.392   -12068889.912 6  -9344516.77222        18.000           1.781
  20846816.360   -18318228.139 5 -13810525.54221         8.250           0.281
  18472801.696   -28732580.622 6 -22110070.94222        19.250           1.688
 91  5 29 19 31 44.9890000  0  5G 2G11G19G16G 6
  17442495.853   -36607232.789 7 -28458567.26023        27.500           2.906
  20367714.017   -21330143.947 6 -16506685.96821        14.750           0.594
  18535099.689   -12076213.029 6  -9350223.13022        18.250           1.688
  20845647.040   -18324406.822 5 -13815340.20721         9.000           0.438
  18460855.423   -28795367.117 6 -22158995.47822        19.750           1.625
 91  5 29 19 31 59.9890000  0  5G 2G11G19G16G 6
  17433243.095   -36655847.263 7 -28496448.66423        27.500           2.938
  20367179.806   -21332973.467 6 -16508890.80821        15.250           0.625
  18533720.767   -12083480.598 6  -9355886.21022        18.000           1.719
  20844484.126   -18330516.297 5 -13820100.93121         8.500           0.406
  18448910.728   -28858130.344 6 -22207901.88322        19.000           1.625
 91  5 29 19 32 14.9890000  0  5G 2G11G19G16G 6
  17424006.540   -36704391.416 7 -28534275.27023        27.500           2.938
  20366661.962   -21335691.043 6 -16511008.45021        15.000           0.625
  18532345.860   -12090695.303 6  -9361508.09322        18.250           1.750
  20843331.095   -18336559.645 5 -13824810.16821         7.750           0.313
  18436970.017   -28920872.884 6 -22256792.15622        19.000           1.750
 91  5 29 19 32 29.9880000  0  5G 2G11G19G16G 6
  17414783.715   -36752859.815 8 -28572042.84723        28.250           2.969
  20366166.067   -21338294.726 6 -16513037.33221        15.250           0.656
  18530983.973   -12097854.540 6  -9367086.75422        17.500           1.781
  20842188.098   -18342535.017 5 -13829466.40621         7.500           0.250
  18425037.887   -28983587.970 6 -22305661.04422        19.250           1.688
 91  5 29 19 32 44.9880000  0  4G 2G11G19G 6
  17405574.442   -36801258.962 8 -28609756.46323        28.000           2.938
  20365692.754   -21340785.256 6 -16514978.02521        15.000           0.594
  18529631.527   -12104959.341 6  -9372623.00222        18.000           1.781
  18413105.223   -29046284.229 6 -22354515.25222        19.250           1.938
 91  5 29 19 32 59.9880000  0  4G 2G11G19G 6
  17396375.504   -36849583.728 7 -28647412.12023        27.750           2.906
  20365240.692   -21343160.671 6 -16516829.03321        15.500           0.656
  18528291.481   -12112007.071 6  -9378114.78022        17.500           1.750
  18401180.559   -29108955.176 6 -22403349.75122        19.500           1.594
 91  5 29 19 33 14.9880000  0  4G 2G11G19G 6
  17387195.824   -36897834.998 8 -28685010.50523        28.250           2.875
  20364810.770   -21345422.077 6 -16518591.19721        15.250           0.750
  18526961.746   -12118998.666 6  -9383562.81122        18.500           1.688
  18389258.051   -29171601.658 6 -22452165.17722        19.250           1.750
 91  5 29 19 33 29.9880000  0  4G 2G11G19G 6
  17378028.442   -36946014.311 8 -28722552.82023        28.250           3.094
  20364400.723   -21347571.307 6 -16520265.96121        14.250           0.719
  18525645.207   -12125935.577 6  -9388968.23622        17.500           1.688
  18377341.270   -29234224.947 7 -22500962.53222        20.000           1.688
 91  5 29 19 33 44.9880000  0  4G 2G11G19G 6
  17368871.598   -36994121.972 8 -28760039.30023        28.250           3.063
  20364013.231   -21349608.752 6 -16521853.61921        14.250           0.531
  18524331.317   -12132817.858 6  -9394331.09022        18.250           1.594
  18365427.520   -29296825.092 6 -22549741.84522        19.500           1.844
 91  5 29 19 33 59.9880000  0  4G 2G11G19G 6
  17359730.379   -37042162.003 8 -28797473.08623        28.000           3.063
  20363644.770   -21351538.722 6 -16523357.52421        14.750           0.531
  18523032.832   -12139649.553 6  -9399654.52822        17.500           1.656
  18353520.926   -29359405.956 6 -22598506.15022        19.500           1.750
 91  5 29 19 34 14.9880000  0  4G 2G11G19G 6
  17350604.660   -37090128.204 8 -28834849.34323        28.000           3.094
  20363302.543   -21353355.359 6 -16524773.11021        15.250           0.594
  18521739.707   -12146424.707 6  -9404933.90822        18.250           1.688
  18341617.910   -29421961.262 6 -22647250.53222        19.750           1.688
 91  5 29 19 34 29.9880000  0  4G 2G11G19G 6
  17341490.434   -37138018.643 8 -28872166.56323        28.250           3.031
  20362977.684   -21355057.035 6 -16526099.11921        15.000           0.563
  18520465.637   -12153141.192 6  -9410167.56722        16.750           1.625
  18329717.324   -29484488.928 7 -22695973.37622        20.000           1.750
 91  5 29 19 34 44.9880000  0  4G 2G11G19G 6
  17332389.754   -37185836.029 8 -28909426.86123        28.000           3.094
  20362672.676   -21356646.698 6 -16527337.85121        13.750           0.688
  18519196.965   -12159801.630 6  -9415357.55122        18.500           1.656
  18317824.582   -29546991.668 6 -22744676.80022        19.750           1.750
 91  5 29 19 34 59.9880000  0  4G 2G11G19G 6
  17323304.817   -37233578.931 8 -28946629.11623        28.250           3.094
  20362391.004   -21358123.175 6 -16528488.40821        14.250           0.656
  18517941.317   -12166404.628 6  -9420502.79222        17.500           1.656
  18305934.707   -29609467.764 7 -22793359.45422        20.250           1.719
 91  5 29 19 35 14.9880000  0  4G 2G11G19G 6
  17314235.606   -37281249.658 8 -28983775.13323        28.500           3.156
  20362133.590   -21359489.081 6 -16529552.76621        14.750           0.625
  18516691.613   -12172952.520 6  -9425605.08122        17.250           1.625
  18294052.231   -29671919.279 7 -22842022.96322        20.250           1.750
 91  5 29 19 35 29.9880000  0  4G 2G11G19G 6
  17305177.496   -37328842.425 8 -29020860.40023        28.250           3.094
  20361894.973   -21360738.958 6 -16530526.71721        14.500           0.719
  18515462.051   -12179439.594 6  -9430659.97322        17.000           1.531
  18282175.731   -29734340.569 7 -22890662.92522        20.750           1.719
 91  5 29 19 35 44.9880000  0  4G 2G11G19G 6
  17296134.332   -37376362.682 8 -29057889.16623        28.000           3.156
  20361678.676   -21361878.441 6 -16531414.67921        13.750           0.625
  18514234.129   -12185871.198 6  -9435671.65022        17.750           1.500
  18270298.731   -29796736.856 7 -22939283.38822        20.000           1.719
 91  5 29 19 35 59.9880000  0  4G 2G11G19G 6
  17287105.770   -37423812.049 8 -29094862.70123        28.750           3.063
  20361482.785   -21362909.318 6 -16532218.01321        14.000           0.656
  18513021.840   -12192248.613 6  -9440641.09922        17.250           1.563
  18258429.129   -29859109.426 7 -22987885.39222        20.500           1.688
 91  5 29 19 36 14.9880000  0  4G 2G11G19G 6
  17278091.043   -37471185.855 8 -29131777.34523        28.500           3.125
  20361308.043   -21363827.279 6 -16532933.33721        13.750           0.625
  18511820.871   -12198567.171 6  -9445564.68822        17.750           1.625
  18246565.645   -29921453.530 7 -23036465.19922        20.000           1.656
 91  5 29 19 36 29.9880000  0  4G 2G11G19G 6
  17269091.520   -37518485.223 8 -29168633.99523        29.000           3.063
  20361149.645   -21364633.727 6 -16533561.77421        13.500           0.563
  18510625.684   -12204828.203 6  -9450443.46322        17.500           1.594
  18234708.707   -29983770.211 7 -23085023.64822        20.500           1.563
 91  5 29 19 36 44.9880000  0  4G 2G11G19G 6
  17260102.699   -37565710.640 8 -29205433.01323        28.500           3.188
  20361021.402   -21365329.281 6 -16534103.79821        13.000           0.625
  18509447.801   -12211031.993 6  -9455277.61722        17.250           1.625
  18222855.457   -30046059.598 7 -23133560.82222        21.000           1.594
 91  5 29 19 36 59.9880000  0  4G 2G11G19G 6
  17251128.942   -37612865.489 8 -29242177.05023        28.750           3.094
  20360910.254   -21365917.658 6 -16534562.30921        13.750           0.594
  18508279.629   -12217181.779 6  -9460069.70322        16.250           1.563
  18211006.231   -30108324.913 7 -23182079.24822        21.000           1.625
 91  5 29 19 37 14.9880000  0  4G 2G11G19G 6
  17242167.527   -37659948.291 8 -29278864.94023        28.000           3.031
  20360819.934   -21366397.578 6 -16534936.32421        14.250           0.563
  18507114.426   -12223276.137 6  -9464818.58522        16.750           1.688
  18199161.512   -30170564.545 7 -23230577.64222        21.000           1.625
 91  5 29 19 37 29.9880000  0  4G 2G11G19G 6
  17233224.059   -37706957.783 8 -29315495.71023        28.750           3.063
  20360750.082   -21366767.991 6 -16535224.98621        14.250           0.563
  18505970.121   -12229313.740 6  -9469523.25422        16.750           1.719
  18187323.863   -30232777.082 7 -23279054.93022        21.000           1.625
 91  5 29 19 37 44.9880000  0  4G 2G11G19G 6
  17224290.754   -37753894.482 8 -29352069.75223        28.250           3.063
  20360698.731   -21367029.627 6 -16535428.90221        13.750           0.594
  18504830.684   -12235295.020 6  -9474184.03122        17.250           1.594
  18175490.168   -30294962.794 7 -23327511.31822        21.000           1.656
 91  5 29 19 37 59.9880000  0  4G 2G11G19G 6
  17215375.246   -37800757.494 8 -29388586.38623        29.250           3.188
  20360666.949   -21367182.048 6                        14.500
  18503706.106   -12241219.193 6  -9478800.31322        15.750           1.531
  18163661.551   -30357120.899 7 -23375946.19722        20.500           1.594
 91  5 29 19 38 14.9880000  0  4G 2G11G19G 6
  17206470.027   -37847547.103 8 -29425045.81123        28.500           3.125
  20360660.652   -21367225.820 6                        14.000
  18502587.277   -12247086.508 6  -9483372.28222        17.250           1.594
  18151837.574   -30419251.402 7 -23424359.56522        20.500           1.688
 91  5 29 19 38 29.9880000  0  4G 2G11G19G 6
  17197580.293   -37894265.287 8 -29461449.59023        28.750           3.031
  20360676.371   -21367163.009 6                        13.500
  18501481.488   -12252898.891 6  -9487901.45322        16.250           1.656
  18140020.317   -30481355.932 7 -23472752.69922        21.000           1.625
 91  5 29 19 38 44.9880000  0  4G 2G11G19G 6
  17188704.035   -37940909.928 8 -29497796.05423        28.750           3.125
  20360703.020   -21366992.063 6                        12.750
  18500384.621   -12258654.267 6  -9492386.20622        17.500           1.594
  18128207.176   -30543432.480 7 -23521124.02422        20.750           1.719
 91  5 29 19 38 59.9880000  0  4G 2G11G19G 6
  17179842.918   -37987481.412 8 -29534085.51823        29.500           3.125
  20360759.082   -21366713.460 6                        13.000
  18499304.574   -12264352.917 6  -9496826.75522        15.750           1.500
  18116398.863   -30605481.215 7 -23569473.68122        20.500           1.781
 91  5 29 19 39 14.9880000  0  4G 2G11G19G 6
  17170994.098   -38033979.403 8 -29570317.71623        29.000           3.156
  20360831.223   -21366327.045 6 -16534881.66321        13.500           0.563
  18498229.871   -12269994.337 6  -9501222.70622        17.250           1.594
  18104598.598   -30667501.351 7 -23617801.04722        20.500           1.719
 91  5 29 19 39 29.9880000  0  4G 2G11G19G 6
  17162160.106   -38080405.892 8 -29606494.19423        28.750           3.156
  20360925.965   -21365835.123 6 -16534498.38721        13.250           0.563
  18497166.699   -12275580.585 6  -9505575.67221        16.250           1.469
  18092804.098   -30729495.047 7 -23666107.80922        21.500           1.688
 91  5 29 19 39 44.9880000  0  4G 2G11G19G 6
  17153338.207   -38126758.353 8 -29642612.99023        28.750           3.219
  20361038.113   -21365235.463 6 -16534031.17821        13.000           0.531
  18496114.832   -12281109.030 6  -9509883.58421        17.250           1.469
  18081010.199   -30791459.334 7 -23714391.66622        21.000           1.781
 91  5 29 19 39 59.9880000  0  4G 2G11G19G 6
  17144532.996   -38173035.461 8 -29678673.07123        28.750           3.063
  20361174.332   -21364527.094 6 -16533479.24621        13.750           0.594
  18495074.645   -12286578.132 6  -9514145.26921        16.000           1.469
  18069223.809   -30853392.851 7 -23762651.52922        20.500           1.719
 91  5 29 19 40 14.9880000  0  4G 2G11G19G 6
  17135740.465   -38219238.880 8 -29714675.73323        28.750           3.156
  20361328.512   -21363711.764 6 -16532843.94121        13.250           0.500
  18494043.574   -12291989.513 6  -9518361.96621        17.500           1.469
  18057445.699   -30915296.951 7 -23810888.48522        20.750           1.875
 91  5 29 19 40 29.9880000  0  4G 2G11G19G 6
  17126962.465   -38265371.626 8 -29750623.32423        29.000           3.031
  20361503.301   -21362792.931 6 -16532128.01521        13.250           0.531
  18493023.207   -12297346.412 6  -9522536.21521        16.500           1.469
  18045669.942   -30977174.506 7 -23859104.75022        20.500           1.781
 91  5 29 19 40 44.9880000  0  4G 2G11G19G 6
  17118197.715   -38311431.855 8 -29786514.40723        29.250           3.156
  20361700.035   -21361768.885 6 -16531330.09421        12.750           0.438
  18492012.129   -12302646.756 6  -9526666.39721        17.250           1.469
  18033900.652   -31039023.576 7 -23907298.82022        20.500           1.781
 91  5 29 19 40 59.9880000  0  4G 2G11G19G 6
  17109445.488   -38357413.863 8 -29822344.53823        28.750           3.125
  20361914.887   -21360634.279 6 -16530446.02721        12.750           0.563
  18491024.817   -12307884.933 6  -9530748.14021        16.250           1.438
  18022137.395   -31100838.421 7 -23955466.22422        21.000           1.719
 91  5 29 19 41 14.9880000  0  4G 2G11G19G 6
  17100710.629   -38403321.994 8 -29858117.10223        28.750           3.156
  20362150.715   -21359393.610 6 -16529479.31421        12.250           0.688
  18490032.879   -12313065.067 6  -9534784.64321        17.000           1.406
  18010379.215   -31162622.970 7 -24003610.01922        20.500           1.688
 91  5 29 19 41 29.9880000  0  4G 2G11G19G 6
  17091989.746   -38449152.121 8 -29893828.88523        28.750           3.156
  20362410.457   -21358043.158 6 -16528427.07421        12.250           0.656
  18489063.207   -12318183.118 6  -9538772.78221        16.500           1.438
  17998630.121   -31224373.035 7 -24051726.94222        21.000           1.750
 91  5 29 19 41 44.9880000  0  4G 2G11G19G 6
  17083282.277   -38494905.461 8 -29929480.83623        29.000           3.125
  20362685.192   -21356584.368 6 -16527290.41521        12.000           0.563
  18488096.637   -12323240.244 6  -9542713.44121        17.000           1.406
  17986884.215   -31286089.589 7 -24099817.75922        20.250           1.594
 91  5 29 19 41 59.9880000  0  4G 2G11G19G 6
  17074588.707   -38540589.867 8 -29965079.07123        28.750           3.156
  20362982.434   -21355025.362 6 -16526075.63621        12.250           0.469
  18487145.731   -12328244.273 6  -9546612.73721        16.250           1.438
  17975145.887   -31347780.184 7 -24147888.33722        20.750           1.719
 91  5 29 19 42 14.9880000  0  4G 2G11G19G 6
  17065911.777   -38586197.370 8 -30000617.38423        29.250           3.188
  20363301.965   -21353358.583 6 -16524776.88221        13.000           0.406
  18486202.426   -12333187.407 6  -9550464.57521        16.750           1.313
  17963413.379   -31409437.010 7 -24195932.60522        20.500           1.750
 91  5 29 19 42 29.9880000  0  4G 2G11G19G 6
  17057245.637   -38631733.054 8 -30036099.72923        29.000           3.000
  20363637.637   -21351589.243 6 -16523398.21821        12.750           0.594
  18485276.621   -12338074.417 6  -9554272.67421        16.500           1.438
  17951686.082   -31471064.682 7 -24243954.15422        21.000           1.750
 91  5 29 19 42 44.9880000  0  4G 2G11G19G 6
  17048594.223   -38677195.882 8 -30071525.30623        29.500           3.063
  20363991.231   -21349716.491 5 -16521938.98121        11.750           0.531
  18484354.809   -12342904.319 6  -9558036.28221        17.250           1.406
  17939963.488   -31532662.177 7 -24291952.20022        20.500           1.688
 91  5 29 19 42 59.9880000  0  4G 2G11G19G 6
  17039957.481   -38722585.741 8 -30106894.01923        29.500           3.125
  20364368.356   -21347740.438 5 -16520399.26721        11.750           0.625
  18483445.824   -12347676.773 6  -9561755.13321        16.250           1.438
  17928247.301   -31594228.977 7 -24339926.31622        20.500           1.688
 91  5 29 19 43 14.9880000  0  4G 2G11G19G 6
  17031333.543   -38767902.824 8 -30142206.03323        29.500           3.094
  20364765.504   -21345661.607 6 -16518779.45821        12.500           0.531
  18482548.590   -12352392.009 6  -9565429.39121        17.000           1.438
  17916538.910   -31655765.143 7 -24387876.55722        20.500           1.656
 91  5 29 19 43 29.9870000  0  4G 2G11G19G 6
  17022723.741   -38813144.232 8 -30177459.07223        29.000           3.281
  20365181.210   -21343480.685 6 -16517080.07921        13.750           0.469
  18481663.773   -12357049.778 6  -9569058.87021        16.500           1.344
  17904834.530   -31717266.479 7 -24435799.67322        20.750           1.781
 91  5 29 19 43 44.9870000  0  4G 2G11G19G 6
  17014127.429   -38858313.976 8 -30212656.27223        28.750           3.188
  20365616.476   -21341195.614 6 -16515299.55221        14.750           0.438
  18480785.366   -12361648.808 6  -9572642.57521        16.750           1.313
  17893135.944   -31778739.249 7 -24483700.51722        20.250           1.781
 91  5 29 19 43 59.9870000  0  4G 2G11G19G 6
  17005546.210   -38903410.456 8 -30247796.38323        29.000           3.063
  20366070.609   -21338808.245 6 -16513439.28921        13.250           0.406
  18479924.046   -12366190.214 6  -9576181.37721        16.000           1.313
  17881445.312   -31840180.337 7 -24531576.67822        20.500           1.750
 91  5 29 19 44 14.9870000  0  4G 2G11G19G 6
  16996980.085   -38948433.144 8 -30282878.99423        29.250           3.188
  20366541.640   -21336318.193 6 -16511499.05221        12.250           0.531
  18479070.312   -12370673.238 6  -9579674.69521        16.500           1.281
  17869759.280   -31901589.140 7 -24579427.67822        21.250           1.813
 91  5 29 19 44 29.9870000  0  4G 2G11G19G 6
  16988426.241   -38993382.707 8 -30317904.62823        29.250           3.281
  20367037.210   -21333726.369 6 -16509479.48521        12.750           0.531
  18478228.812   -12375098.571 6  -9583123.05321        15.750           1.281
  17858076.999   -31962966.057 7 -24627253.83922        20.750           1.875
 91  5 29 19 44 44.9870000  0  4G 2G11G19G 6
  16979885.351   -39038259.574 8 -30352873.60523        28.250           3.094
  20367550.116   -21331033.360 6 -16507381.09021        14.000           0.594
  18477397.507   -12379466.362 6  -9586526.56721        16.000           1.188
  17846405.944   -32024311.191 7 -24675055.23422        21.250           1.844
 91  5 29 19 44 59.9870000  0  4G 2G11G19G 6
  16971359.663   -39083062.516 8 -30387784.99123        28.500           3.156
  20368081.624   -21328238.477 6 -16505203.29821        13.500           0.344
  18476578.843   -12383775.554 6  -9589884.44221        16.000           1.188
  17834738.116   -32085623.275 7 -24722830.87522        21.000           1.875
 91  5 29 19 45 14.9870000  0  4G 2G11G19G 6
  16962850.109   -39127788.555 8 -30422636.44423        29.000           3.156
  20368633.632   -21325339.094 6 -16502944.08421        13.250           0.406
  18475768.960   -12388023.145 6  -9593194.29121        16.500           1.250
  17823077.319   -32146899.138 7 -24770578.28522        21.000           1.906
 91  5 29 19 45 29.9870000  0  4G 2G11G19G 6
  16954353.429   -39172440.112 8 -30457429.85923        28.750           3.063
  20369202.476   -21322337.829 6 -16500605.46321        12.750           0.500
  18474971.546   -12392211.463 6  -9596457.97121        15.500           1.313
  17811426.351   -32208141.132 7 -24818299.31322        22.000           1.906
 91  5 29 19 45 44.9870000  0  4G 2G11G19G 6
  16945868.530   -39217021.837 8 -30492168.86223        28.750           3.063
  20369793.273   -21319239.542 6 -16498191.26621        12.750           0.531
  18474183.773   -12396345.240 6  -9599679.13921        15.750           1.281
  17799776.780   -32269353.630 7 -24865997.35222        21.250           1.906
 91  5 29 19 45 59.9870000  0  4G 2G11G19G 6
  16937399.718   -39261528.713 8 -30526849.53823        29.250           3.031
  20370402.085   -21316039.501 5 -16495697.77721        11.750           0.438
  18473411.718   -12400419.237 6  -9602853.73021        14.750           1.313
  17788132.577   -32330531.490 7 -24913668.40622        21.250           1.938
 91  5 29 19 46 14.9870000  0  4G 2G11G19G 6
  16928943.523   -39305960.789 8 -30561471.93423        28.500           3.156
  20371028.218   -21312738.142 6 -16493125.35521        12.000           0.563
  18472646.609   -12404433.622 6  -9605981.88721        16.250           1.250
  17776499.171   -32391674.497 7 -24961312.29422        22.000           2.031
 91  5 29 19 46 29.9870000  0  4G 2G11G19G 6
  16920502.155   -39350316.170 8 -30596034.56723        28.250           3.125
  20371678.648   -21309333.797 6 -16490472.66621        12.000           0.438
  18471897.187   -12408386.484 6  -9609062.09021        16.000           1.344
  17764870.741   -32452780.612 7 -25008927.44322        21.750           1.969
 91  5 29 19 46 44.9870000  0  4G 2G11G19G 6
  16912075.460   -39394605.507 8 -30630545.74123        28.500           3.000
  20372346.343   -21305837.209 6 -16487748.09621        12.000           0.500
  18471150.187   -12412288.276 6  -9612102.49421        16.250           1.313
  17753247.359   -32513860.059 7 -25056521.80522        22.000           2.063
 91  5 29 19 46 59.9870000  0  4G 2G11G19G 6
  16903660.749   -39438820.234 8 -30664998.77723        28.250           3.094
  20373025.327   -21302240.176 5 -16484945.27421        11.000           0.469
  18470424.819   -12416130.310 6  -9615096.35221        16.000           1.344
  17741630.359   -32574904.147 7 -25104088.62922        21.750           2.031
 91  5 29 19 47 14.9870000  0  4G 2G11G19G 6
  16895261.202   -39482962.735 8 -30699395.53823        28.250           3.188
  20373733.241   -21298545.280 6 -16482066.20721        12.250           0.406
  18469698.046   -12419915.049 6  -9618045.56121        16.500           1.219
  17730021.194   -32635915.120 7 -25151629.64822        21.750           2.000
 91  5 29 19 47 29.9870000  0  4G 2G11G19G 6
  16886874.109   -39527029.067 8 -30733732.93323        28.250           3.156
  20374452.296   -21294749.098 5 -16479108.18221        11.750           0.406
  18468995.171   -12423638.570 6  -9620947.05421        16.500           1.313
  17718418.694   -32696888.923 7 -25199141.69222        21.750           2.031
 91  5 29 19 47 44.9870000  0  4G 2G11G19G 6
  16878503.452   -39571021.524 8 -30768012.77223        28.250           3.188
  20375197.687   -21290854.144 6 -16476073.17521        12.500           0.500
  18468293.366   -12427303.114 6  -9623802.58521        15.750           1.313
  17706821.343   -32757827.617 7 -25246626.37222        22.000           2.063
 91  5 29 19 47 59.9870000  0  4G 2G11G19G 6
  16870145.812   -39614944.635 8 -30802238.57923        28.250           3.188
  20375953.413   -21286865.094 5 -16472964.87821        11.750           0.563
  18467609.429   -12430913.054 6  -9626615.58721        16.000           1.375
  17695231.382   -32818735.518 7 -25294087.07922        21.750           1.938
 91  5 29 19 48 14.9870000  0  4G 2G11G19G 6
  16861801.624   -39658789.083 8 -30836403.07623        28.000           3.063
  20376732.929   -21282773.092 6 -16469776.38621        12.000           0.531
  18466933.663   -12434459.227 6  -9629378.88721        16.750           1.313
  17683648.984   -32879603.115 7 -25341516.37122        22.250           2.063
 91  5 29 19 48 29.9870000  0  4G 2G11G19G 6
  16853474.179   -39702561.773 8 -30870511.66723        28.500           3.094
  20377527.359   -21278585.301 5 -16466513.21521        11.500           0.531
  18466266.710   -12437948.470 6  -9632097.83621        16.000           1.344
  17672073.015   -32940437.238 7 -25388919.57422        22.500           2.031
 91  5 29 19 48 44.9870000  0  4G 2G11G19G 6
  16845157.835   -39746256.554 8 -30904559.54723        28.000           3.094
  20378345.421   -21274295.661 5 -16463170.68821        11.500           0.531
  18465615.921   -12441374.456 6  -9634767.47721        16.750           1.375
  17660502.898   -33001231.249 7 -25436291.51922        22.500           2.125
 91  5 29 19 48 59.9870000  0  4G 2G11G19G 6
  16836859.679   -39789874.649 8 -30938547.67523        28.750           3.094
  20379183.046   -21269905.720 6 -16459750.00321        12.250           0.531
  18464973.843   -12444738.508 6  -9637388.87621        16.000           1.313
  17648942.015   -33061986.350 7 -25483633.14722        22.000           2.063
 91  5 29 19 49 14.9870000  0  4G 2G11G19G 6
  16828571.335   -39833418.455 8 -30972477.91023        28.250           3.063
  20380035.507   -21265418.414 6 -16456253.44421        12.000           0.531
  18464347.366   -12448043.045 6  -9639963.89421        16.000           1.438
  17637389.694   -33122704.873 7 -25530946.26622        22.500           2.000
 91  5 29 19 49 29.9870000  0  4G 2G11G19G 6
  16820297.944   -39876889.919 8 -31006351.78023        28.500           3.125
  20380906.062   -21260835.832 6 -16452682.66021        12.000           0.531
  18463731.484   -12451289.728 6  -9642493.83321        14.750           1.250
  17625840.952   -33183388.396 7 -25578232.12422        22.250           2.063
 91  5 29 19 49 44.9870000  0  4G 2G11G19G 6
  16812039.780   -39920287.347 8 -31040167.95623        28.000           3.063
  20381799.359   -21256156.457 6 -16449036.44021        12.500           0.563
  18463122.007   -12454476.756 6  -9644977.27521        16.000           1.313
  17614301.905   -33244034.885 7 -25625489.11722        22.250           2.031
 91  5 29 19 49 59.9870000  0  4G 2G11G19G 6
  16803797.702   -39963610.777 8 -31073926.47223        28.750           3.188
  20382706.554   -21251380.581 5 -16445315.00921        11.000           0.469
  18462527.757   -12457604.303 6  -9647414.37821        15.750           1.313
  17602765.210   -33304644.182 7 -25672717.13222        21.750           2.125
 91  5 29 19 50 14.9870000  0  4G 2G11G19G 6
  16795566.624   -40006862.980 8 -31107629.48423        28.500           3.125
  20383633.359   -21246511.360 5 -16441520.89721        11.000           0.594
  18461943.015   -12460675.071 6  -9649807.23321        16.500           1.375
  17591239.991   -33365219.031 7 -25719918.30122        22.000           2.063
 91  5 29 19 50 29.9870000  0  4G 2G11G19G 6
  16787350.163   -40050044.039 8 -31141277.06423        29.000           3.125
  20384576.319   -21241549.185 5 -16437654.31121        11.500           0.500
  18461371.944   -12463689.085 6  -9652155.87021        15.000           1.406
  17579720.429   -33425759.152 7 -25767092.41422        22.250           2.219
 91  5 29 19 50 44.9870000  0  4G 2G11G19G 6
  16779145.077   -40093150.601 8 -31174866.59623        28.250           3.063
  20385540.819   -21236491.022 6 -16433712.94121        12.250           0.313
  18460809.819   -12466643.141 6  -9654457.78221        17.000           1.375
  17568206.218   -33486261.185 7 -25814236.84622        22.000           2.188
 91  5 29 19 50 59.9870000  0  4G 2G11G19G 6
  16770957.866   -40136182.079 8 -31208397.62023        28.750           3.094
  20386523.491   -21231336.423 5 -16429696.39321        11.500           0.344
  18460258.819   -12469536.651 6  -9656712.52021        15.750           1.250
  17556699.476   -33546724.172 7 -25861350.85022        21.750           2.219
 91  5 29 19 51 14.9870000  0  4G 2G11G19G 6
  16762784.523   -40179135.322 8 -31241867.67723        29.000           3.094
  20387520.780   -21226082.597 5 -16425602.53721        11.000           0.406
  18459718.741   -12472366.320 6  -9658917.50721        16.250           1.219
  17545202.999   -33607144.749 7 -25908431.81522        21.750           2.125
 91  5 29 19 51 29.9870000  0  4G 2G11G19G 6
  16754623.983   -40222017.673 8 -31275282.48823        29.000           3.156
  20388536.648   -21220737.216 5 -16421437.36921        10.000           0.438
  18459196.734   -12475139.474 6  -9661078.45721        15.500           1.406
  17533711.984   -33667530.220 7 -25955485.41922        21.750           2.094
 91  5 29 19 51 44.9870000  0  4G 2G11G19G 6
  16746477.343   -40264829.806 8 -31308642.59223        29.000           3.125
  20389573.265   -21215301.021 5 -16417201.42921        10.750           0.344
  18458674.499   -12477856.498 6  -9663195.66021        16.500           1.344
  17522227.913   -33727880.803 7 -26002511.83822        21.750           2.188
 91  5 29 19 51 59.9870000  0  4G 2G11G19G 6
  16738344.304   -40307570.876 8 -31341947.32323        29.250           3.125
  20390622.460   -21209773.547 5 -16412894.34221        10.750           0.281
  18458169.546   -12480516.538 6  -9665268.47821        16.000           1.375
  17510749.843   -33788195.610 7 -26049510.37722        21.000           1.938
 91  5 29 19 52 14.9870000  0  4G 2G11G19G 6
  16730225.132   -40350234.117 8 -31375191.40223        28.750           3.156
  20391694.952   -21204148.424 5 -16408511.17221        10.750           0.344
  18457673.648   -12483112.937 6  -9667291.69821        16.000           1.344
  17499279.554   -33848467.593 7 -26096475.55122        21.500           2.094
 91  5 29 19 52 29.9870000  0  4G 2G11G19G 6
  16722121.351   -40392823.190 8 -31408377.69223        29.000           3.188
  20392782.398   -21198429.531 5 -16404054.93821        10.500           0.406
  18457193.851   -12485649.339 6  -9669268.16221        16.000           1.375
  17487818.148   -33908700.348 7 -26143410.16622        21.000           2.125
 91  5 29 19 52 44.9870000  0  4G 2G11G19G 6
  16714030.093   -40435341.963 8 -31441509.19723        28.500           3.156
  20393888.015   -21192621.166 5 -16399529.02121        10.500           0.375
  18456719.835   -12488129.548 6  -9671200.84621        16.750           1.281
  17476364.507   -33968897.433 7 -26190316.97222        21.500           2.094
 91  5 29 19 52 59.9870000  0  4G 2G11G19G 6
  16705951.382   -40477789.738 8 -31474585.38223        29.000           3.094
  20395010.663   -21186722.845 5 -16394932.99621        10.500           0.313
  18456257.976   -12490552.701 6  -9673089.05621        15.500           1.313
  17464918.202   -34029057.931 7 -26237195.27522        22.250           2.031
 91  5 29 19 53 14.9870000  0  4G 2G11G19G 6
  16697886.694   -40520168.555 8 -31507607.83423        28.750           3.094
  20396151.648   -21180736.763 5 -16390268.54221        10.500           0.219
  18455808.460   -12492920.890 6  -9674934.45821        16.750           1.313
  17453471.663   -34089183.678 7 -26284046.49922        21.500           2.156
